GFSSGP_con_mucape_000.txt.gz
CAPE
1251 1230 1387 1393 168 32 59 101 141 239 363 377 378 409 646 635 699 712 548 974 839 771 862 1123 2492 2776 2631 2868 2719 2675 2612 2809 3158 3133 3082 2977 2851 2681 2666 2970 2871 2806 2393 2310 2360 2364 2354 2309 2402
1326 1258 1736 787 39 49 267 95 93 131 516 632 572 544 556 663 545 511 863 1211 1135 963 972 1255 2033 2449 2788 2877 3107 2989 2481 2676 3243 3229 3083 3139 2952 2838 2771 2419 2535 2555 2555 2377 2234 2315 2435 2229 2192
1339 1430 1508 73 64 37 203 310 438 457 326 76 457 518 391 581 594 670 1042 1263 1210 1267 1355 1755 2479 2831 2894 2855 3107 2782 2771 2968 2931 2989 3073 2966 2787 2838 2434 2363 2434 2395 2380 2413 2355 2327 2289 2197 2159
1514 1590 1160 140 147 203 315 429 428 239 114 158 213 557 706 769 805 794 1240 1264 1415 1841 1885 1609 2306 2903 2992 3314 2772 2463 2489 3076 3304 3326 3023 2717 2352 2407 2430 2431 2460 2427 2365 2312 2324 2307 2187 2074 2132
1501 1291 123 124 380 391 346 211 101 69 66 143 145 373 797 1068 859 1015 1328 1344 1446 1672 2024 1933 2671 3089 3011 3276 2740 2806 2558 2541 3087 2889 2402 2312 2295 2403 2363 2249 2255 2347 2373 2310 2333 2352 2275 2224 2152
1066 601 127 126 431 593 587 482 76 181 329 369 419 681 1223 1058 886 1136 1165 1243 1409 1660 1883 2117 2294 2837 3172 2798 2697 3287 3092 2774 3032 2816 2357 2314 2400 2418 2368 2301 2412 2405 2262 2174 2142 2157 2139 2263 2348
572 131 90 114 549 672 736 645 188 121 203 366 473 716 1071 1023 945 1059 1188 1341 1175 1514 1650 2002 2014 2404 2669 2685 2707 3065 3084 2697 2859 2622 2454 2510 2608 2569 2474 2462 2378 2279 2122 2087 2114 2173 2109 2169 2354
614 135 50 60 81 549 780 530 388 354 576 683 590 543 1197 1015 1008 1013 1119 1268 1511 1449 1613 1981 2074 1893 2008 1973 2619 2384 2579 2560 2346 2465 2569 2694 2672 2654 2643 2594 2491 2451 2285 2403 2492 2702 2215 2129 2019
215 48 28 11 69 573 765 633 958 681 1200 1417 1241 668 1136 1033 974 1012 1116 1186 1441 1370 1632 1885 2006 2096 2086 1966 2104 2372 2358 2285 2128 2234 2293 2340 1657 2182 2153 2096 2597 2413 2390 2477 2497 2532 2583 2444 2205
24 15 2 23 57 480 678 777 995 1076 1578 1670 1456 1444 1304 976 983 977 995 1126 1363 1480 1455 1477 1624 1966 2147 1812 2142 1947 1729 1486 1491 1633 2097 1944 2062 2265 2408 2568 2659 2606 2641 2630 2760 2405 2414 1850 1588
0 0 189 483 501 621 754 898 829 818 883 1528 1542 1494 1186 942 953 943 943 943 1069 1386 1422 1526 1793 1984 1849 1763 1973 1897 1941 1835 1981 2351 2459 2285 2272 2315 2249 1912 2067 2050 2343 1779 2023 1833 1793 1281 1362
0 466 464 854 720 549 513 604 1298 1301 1274 1594 1433 1398 1315 1049 825 778 840 896 1048 1297 1393 1637 2007 2262 2228 2018 1876 1833 1779 1909 1849 1965 2301 2830 2349 2066 2020 1854 1826 1914 1710 1684 1700 1636 1690 1677 1300
90 645 900 924 598 461 225 613 1438 1683 1630 1626 1615 1580 1500 1225 993 874 858 877 1067 1339 1505 1632 2075 2271 2357 2448 1934 1770 1719 1693 1631 1783 1982 2249 2036 2008 1972 2147 2024 1656 1700 1945 2098 1908 1812 1738 1193
245 614 704 462 112 85 166 475 370 1848 1822 1753 1695 1691 1626 1462 1343 1125 896 909 1060 1179 1316 1770 2115 2355 2460 2877 2490 2463 2089 1960 1886 1745 1785 2196 2372 2038 1866 2041 1783 1786 1693 2096 2046 2126 1958 1813 1564
542 677 843 424 646 130 12 228 843 1817 1942 1767 1673 1840 1806 1820 1848 1825 1699 1659 1666 1717 1665 1854 2261 2294 2400 2424 2601 2568 2129 1856 1775 1712 1951 2158 2502 2271 2474 1934 1805 1967 2039 1688 1790 2017 1920 1838 1622
138 167 309 456 581 356 950 328 1003 1318 1491 1719 1741 1832 1884 1962 1927 2058 2122 2202 2223 2218 2498 2525 2454 2175 2574 2768 2878 2470 2191 1969 1657 1407 1370 1786 2212 2461 2722 1748 1751 1748 2006 1555 1561 2153 1731 1964 1549
29 54 64 272 633 626 621 367 817 936 911 1160 1508 1767 1829 1921 2023 2083 2179 2417 2334 2086 2460 2905 2818 2459 2236 2453 2469 2298 2185 2125 1992 1804 2090 2129 2540 2587 2802 2660 1574 2095 1581 1507 1328 1590 1677 2169 1939
0 15 31 39 314 545 451 720 578 740 607 766 1073 1286 1520 1611 1739 2018 2202 2287 2563 2711 2936 2945 2758 2808 2863 2666 2840 2990 3081 3407 3351 2890 2248 2262 2417 2145 2348 1914 1937 2014 1658 1377 1421 1912 1662 1579 1476
0 0 26 18 92 247 381 938 537 533 649 523 542 1200 1219 1317 1447 1815 2164 2318 2375 2475 2674 2873 2973 2996 2877 2856 2722 2630 2588 2477 2464 2336 2318 2442 2360 2475 2654 2618 2226 2673 2493 2004 2053 2155 1688 1425 1320
0 0 0 26 125 253 804 910 906 652 329 587 587 1001 1103 1326 1426 1920 2026 2245 2334 2535 2697 2938 3123 3240 3296 2906 2834 2647 2362 1841 1988 2358 2249 1954 1658 1697 1649 1710 1430 1454 1426 1686 1890 2270 1849 1200 1714
0 0 0 7 285 338 814 917 1414 1036 956 722 990 995 1375 1519 1614 1793 1910 2118 2188 2415 2847 2983 3181 3181 3442 3164 2306 1570 999 1430 825 853 672 1043 1213 1069 1128 1166 1250 1336 1354 1243 1450 1714 1549 1417 1048
0 0 0 0 341 123 479 132 1425 1307 1345 1196 957 1428 1462 1662 1760 1725 1701 2061 2045 2342 2742 3656 3851 3501 2460 1503 925 982 228 340 515 443 370 752 547 791 792 946 983 1248 1135 1183 1083 1178 1375 1465 1263
1 1 27 70 265 267 706 302 138 1047 1255 1179 1189 1074 1179 1473 1689 1650 1396 1601 1873 2755 3121 2895 2355 1731 1180 1053 597 182 217 63 179 155 201 394 381 477 534 754 724 956 912 825 819 998 1181 1204 1175
3 60 83 103 67 75 48 118 21 142 680 748 1096 1287 1367 1355 1506 1724 1556 1815 2457 2275 1960 1288 1374 1136 901 432 358 385 312 169 54 89 183 46 86 161 283 309 392 553 598 631 718 819 1009 1415 1395
0 0 10 14 18 13 20 15 4 18 417 487 760 1306 1496 1315 1375 1581 2020 2306 2054 2026 1131 750 1049 1132 841 83 36 83 110 152 154 207 1 111 7 11 11 54 90 139 327 435 621 886 873 1054 1184
0 0 2 0 0 4 36 0 0 188 206 173 529 1018 1354 1245 1131 1453 2173 1987 1980 1547 863 672 1010 915 308 172 325 296 225 4 16 22 81 3 3 6 33 25 73 165 228 316 467 573 624 840 1098
0 0 0 3 0 0 5 0 16 131 170 194 592 953 1414 912 1012 1435 1832 1744 1622 877 836 876 973 771 351 215 492 436 357 302 104 180 246 20 112 1 3 52 127 196 279 462 568 494 540 571 915
3 3 3 6 0 5 6 0 4 0 2 197 341 862 1505 811 928 1322 1471 1486 950 670 762 790 868 760 417 342 335 60 78 159 126 125 172 197 231 211 225 211 216 258 330 330 456 584 522 733 757
0 4 5 19 5 15 14 14 8 0 0 20 400 882 1387 831 669 1118 1416 1507 674 619 606 699 724 597 434 403 235 146 83 54 11 24 158 251 274 358 354 476 519 513 533 514 524 490 277 391 476
6 12 26 47 88 30 1 1 0 0 11 19 80 833 1151 1346 402 374 1234 1373 602 659 357 413 435 389 232 194 137 65 63 103 45 52 125 190 224 369 431 525 784 728 695 699 741 628 537 508 408

GFSSGP_con_mucape_003.txt.gz
CAPE
1144 1592 1320 1368 162 99 88 77 65 124 172 183 269 300 675 682 331 731 539 524 599 650 712 889 2342 2129 2176 2570 2700 2541 2638 2494 2758 3184 2820 2607 1911 2028 2354 2413 2304 2455 2174 2266 2355 2342 2403 2514 2595
1607 1245 1620 1349 128 106 92 56 47 122 312 227 202 377 544 672 633 950 829 852 826 622 854 1087 2596 2523 1988 2528 2586 2877 2783 2577 2748 3073 2785 2551 1880 2186 2453 2291 2473 2556 2400 2243 2307 2472 2404 2149 2191
1683 1409 1806 112 89 120 125 141 167 117 9 176 131 248 502 678 683 1070 1153 1230 1038 1036 1828 1807 2389 2565 2259 2405 2408 3064 3006 2424 2456 2888 2582 2221 2016 2085 2373 2390 2371 2411 2363 2373 2366 2289 2216 1995 1918
1812 1896 161 114 91 93 173 234 52 4 4 50 164 481 734 689 967 1136 1402 1407 1529 1411 1580 2094 2482 2630 2694 2603 2488 2385 2865 2507 2469 2401 2135 2194 2064 2250 2208 2290 2351 2392 2359 2335 2320 2214 2131 2021 2012
1828 1288 175 240 92 143 156 118 55 52 33 34 205 560 760 818 1038 1333 1427 1420 1622 1627 1512 1666 2973 3058 2970 2563 2482 2383 2902 2410 2642 2101 2120 2142 2363 2313 2214 2246 2275 2297 2256 2160 2123 2103 2045 1931 2043
1479 137 148 213 254 364 176 75 109 166 114 167 344 730 837 874 947 1323 1329 1484 1507 1669 1621 1578 2403 3018 3155 2500 2657 2501 2456 2315 2337 2173 2162 2246 2362 2296 2232 2202 2348 2267 2054 1919 2010 2011 1922 1956 2014
1103 85 114 120 346 448 402 142 135 182 220 266 400 845 813 817 814 836 1295 1089 1137 1365 1832 1812 1689 1991 2609 2688 2843 2971 2842 2420 2206 2165 2205 2333 2535 2438 2391 2372 2311 2167 2081 1997 2020 2100 1971 2038 2051
308 170 32 128 220 383 441 243 240 361 359 400 496 470 916 856 791 782 1202 999 1440 1705 1803 2513 2046 1864 1963 1979 2209 2639 2677 2453 2237 2245 2320 2513 2532 2525 2449 2617 2482 2298 2150 2257 2444 2440 2383 1929 1884
158 136 67 110 135 364 425 587 761 828 666 652 718 473 837 803 781 802 1149 1419 1307 1627 1574 1668 1574 1711 2485 2082 2310 2611 2731 2437 2252 2223 2232 2192 1560 2283 2297 2525 2176 2362 2249 2193 2263 2450 2389 2394 2160
31 59 18 69 175 300 510 679 885 1328 1599 979 994 793 867 835 849 828 832 1511 1143 1331 1497 1644 1735 2063 2425 1684 2205 2030 1720 1554 1527 1493 2495 1767 2417 2957 2104 2291 2422 2426 2463 2545 2372 2603 2386 1993 1526
41 6 3 57 149 279 319 243 326 269 1429 1080 1229 920 895 906 876 842 843 921 1046 1198 1164 1130 2026 1709 1682 2886 1853 1804 1692 1790 1732 2055 2793 2612 2367 2713 2339 1961 2817 2502 2362 1820 2357 2626 2208 1868 947
41 14 111 20 68 276 131 240 557 1358 1409 1344 977 803 859 901 903 800 830 915 1147 1268 1173 1298 1729 2076 1722 2120 1396 1867 1826 1306 1626 2067 2462 2296 1674 2791 2302 1942 2455 2064 1401 1546 1800 1796 1505 1248 1289
92 91 51 42 140 52 54 482 1223 1407 1234 1115 1029 932 843 805 796 808 795 864 1044 1230 1269 1420 1950 2306 2311 2517 1427 1599 1735 1273 1346 1422 1776 1672 2725 2639 2091 2091 1657 1835 1297 1827 1966 2421 1873 1939 1356
26 111 40 52 0 27 277 365 1180 1487 1214 1243 1235 1217 1129 948 823 801 792 805 946 1122 1244 1403 1816 2504 2324 2619 2580 2195 1234 1901 1859 1870 1874 2438 1627 2833 2239 2221 1805 2424 1806 1917 1789 2275 1840 1883 1425
14 53 41 51 110 11 0 118 1010 1656 1365 1442 1525 1593 1608 1520 1368 1065 821 771 895 1063 1303 1975 2542 2876 2574 2609 2936 3055 1722 1272 1596 2106 2417 1372 2000 2501 2836 2182 1749 1766 1777 2134 1912 1802 2100 1658 1282
25 40 104 103 54 149 136 387 893 1301 1526 1572 1689 1799 1785 1776 1692 1694 1487 1596 1452 1524 2246 2234 1847 2337 2569 2610 2864 2653 2054 1818 2200 1285 1210 1409 1867 3068 2955 1614 1202 1656 1955 1777 1951 1671 1526 1510 1544
33 64 51 74 37 215 54 340 670 617 808 1176 1373 1416 1384 1438 1446 1661 1749 1929 1961 2077 2315 2532 2218 2114 2825 2866 2829 2660 3052 1916 1813 2535 2383 2046 2460 2148 2850 1878 1527 1852 1589 1358 1488 1502 1361 1627 1483
38 49 76 80 68 47 41 79 650 523 309 788 957 1014 1013 1185 1317 1324 1586 1806 1904 2032 2412 2471 2449 2601 2437 2812 2779 2702 3071 2346 2317 2369 2176 2908 2839 2443 3072 2894 2342 2598 2491 2439 1943 2134 1739 1555 1504
19 1 27 32 29 74 105 151 505 590 365 364 613 925 818 850 918 1144 1385 1673 1948 2218 2668 2785 2963 3422 3314 3177 3094 3571 2711 3061 2549 3054 2537 2265 2457 2284 2498 2651 2267 2630 2154 2419 2293 2048 2328 1896 1855
0 0 22 25 43 31 40 314 199 323 413 311 338 567 544 601 742 1229 1510 1705 1825 2088 2387 2806 3002 3526 3441 3187 3230 3237 2746 1774 1444 1770 1978 2103 1513 1952 1580 1723 1550 2042 882 2208 1548 1950 1510 1473 1170
0 0 1 19 16 7 93 106 409 186 250 321 241 331 407 527 530 865 1288 1415 1484 2084 2655 2875 3153 3324 3700 3595 3351 2464 2056 1953 1029 697 676 991 866 645 999 1190 1193 1505 1489 479 1274 1288 1485 1313 1674
0 0 0 2 37 54 8 67 484 599 194 130 308 323 371 410 372 422 649 948 1093 1682 2345 3003 3422 3762 2941 1998 1253 1265 576 188 589 230 150 492 282 464 585 686 762 967 1082 1169 1049 911 1094 1258 1139
3 0 0 0 10 25 48 67 291 29 670 430 161 329 510 557 542 532 276 688 849 1559 2092 2950 3257 2052 1430 948 545 170 135 0 0 0 84 457 933 383 368 591 715 963 794 1106 854 953 1261 1408 1274
0 0 1 6 22 67 101 50 117 540 940 868 500 160 276 575 617 746 589 780 1104 1691 2229 2582 1938 1614 1072 524 372 250 160 121 28 111 121 40 6 71 286 269 352 543 541 549 600 677 774 1316 1554
0 2 11 23 53 73 16 41 96 17 139 42 346 442 339 380 569 823 935 1218 1663 1789 2003 1436 1542 1436 1029 368 60 8 101 171 273 327 32 188 5 10 49 170 198 147 267 311 658 908 635 713 793
0 1 16 22 40 49 8 0 0 0 21 87 162 307 580 803 749 828 1188 1524 1936 1754 1642 825 1439 1543 975 289 403 449 407 47 45 68 199 35 6 6 93 140 113 164 184 262 661 459 421 874 760
0 0 1 3 7 8 25 29 7 24 17 68 92 207 840 947 1074 962 1181 1945 1759 1705 1301 889 1368 1489 733 306 861 727 510 409 332 338 355 86 200 73 42 102 196 265 249 228 512 296 501 562 951
3 0 0 1 0 35 30 18 17 44 2 0 54 140 372 1124 1318 1016 1080 1948 1623 1625 888 645 886 1047 678 485 584 102 30 187 320 296 324 335 340 328 275 202 210 280 367 776 653 689 681 808 406
0 1 14 27 36 51 41 46 21 6 0 3 7 25 289 938 1436 950 1153 1557 1553 1310 739 365 679 780 740 620 499 187 87 97 179 149 125 274 384 427 433 306 315 467 529 637 772 760 719 523 844
2 2 9 35 50 26 31 29 2 2 5 28 15 22 162 1185 1615 1104 1285 1441 1418 950 688 326 315 433 501 383 366 160 208 233 136 157 136 187 214 334 375 389 640 520 533 967 665 701 658 737 618

GFSSGP_con_mucape_006.txt.gz
CAPE
1094 1303 1552 1261 898 53 18 31 78 26 110 99 200 359 7 150 217 312 318 589 656 407 522 1221 2512 2348 2101 2214 2250 2371 2313 2792 2919 2818 2589 2638 2781 3187 3086 3030 3061 2963 2659 2300 2256 2226 2295 2313 2242
686 1620 1303 1405 127 1 22 11 0 0 1 168 280 480 572 510 412 513 589 556 507 447 517 856 2540 2611 2604 2345 2266 2435 2459 2580 2858 2763 2680 2785 2871 2908 2818 2761 2598 2550 2565 2200 2283 2193 2014 1890 1916
989 1478 1381 423 32 26 37 15 12 17 19 49 178 324 422 674 677 752 633 687 869 1362 1350 1859 2752 2678 2531 2577 2895 2957 2853 2931 2944 2855 2652 2618 2440 2015 2166 2141 2236 2323 2396 2280 2174 2048 1902 1803 1735
1500 887 1258 1 0 16 0 0 0 22 4 104 201 229 579 870 897 882 837 1045 1394 1448 1248 2239 2712 2605 2799 2699 2769 2986 2880 2885 2893 2738 2699 2450 2291 2174 2100 2179 2217 2244 2278 2246 2189 2011 1863 1761 1653
1541 1106 227 16 40 50 34 6 1 5 0 68 267 319 586 1336 1244 1194 1239 1149 1166 1280 1333 1923 3266 3294 3092 2987 3025 3088 2892 2743 2683 2513 2105 2510 2483 2085 2136 2205 2150 2095 2070 2006 1901 1811 1687 1576 1689
560 634 135 88 41 72 8 7 20 3 42 107 268 396 564 1045 928 1313 1435 1444 1235 1226 1256 1530 2793 2716 2842 2875 2742 3076 2824 2664 2613 2510 2522 2573 2207 2056 1963 1984 2060 1963 1760 1739 1834 1805 1634 1581 1631
51 103 121 121 128 1 3 1 5 4 43 331 290 454 471 655 653 1361 1413 1454 1453 1472 1652 1830 1731 2294 2599 3128 2713 2867 2894 2624 2386 2435 2322 2220 2106 2052 2078 2074 1991 1703 1816 1821 1937 2104 1911 1950 1963
467 469 39 104 321 58 18 0 8 26 98 271 399 377 468 470 778 870 1174 1250 1492 1553 1961 2316 2147 1961 2225 2278 3075 2740 2940 2657 2354 2039 1987 2038 2168 2186 2191 2107 2289 2027 1863 1965 2107 2347 2307 2380 2482
562 95 59 16 121 257 296 247 121 85 238 370 510 412 534 423 733 842 1318 1526 1800 1561 1576 1585 2027 2489 2748 2247 2002 2939 2485 2589 2185 2012 2095 2309 1736 1425 1009 304 880 2174 2090 2021 2157 2575 2835 2718 2704
5 0 18 11 109 279 88 241 413 474 516 436 178 546 524 499 527 1186 749 997 1185 1546 1611 1689 1802 2142 2315 1553 2304 2576 2195 1974 2080 2009 2521 2213 2176 2186 1265 1029 973 2193 2192 2451 2599 2558 2931 2119 1554
1 0 1 118 175 280 71 638 481 580 559 498 404 585 537 566 584 537 1171 889 1451 1632 1385 1429 2631 2782 2450 2077 2301 2475 2210 1931 2066 2993 2992 2923 2831 910 2389 1242 1615 2738 2971 2266 2938 2557 2345 1823 1685
17 77 5 5 170 53 99 444 404 209 461 773 406 529 544 564 534 501 616 642 1230 1047 1538 1874 1767 2566 2812 1649 2101 2236 2207 2330 1313 2342 3252 3405 2650 2887 2678 2342 2406 2881 1995 2949 2599 2130 2616 2188 2099
22 4 0 43 37 6 96 391 745 885 749 419 316 498 575 533 510 485 513 598 1112 1127 1265 2113 2568 2869 3229 2386 3270 1674 1705 1486 2006 2587 2508 2621 3105 2958 2722 2853 2634 2747 2718 2023 2360 2592 2376 2149 2038
7 27 6 28 0 10 67 272 457 796 658 505 458 526 542 594 623 604 570 810 1003 1168 1231 1773 2524 3421 2988 3378 3664 3700 1786 1724 2404 2563 1922 1923 2274 2848 2690 2340 2597 2807 2062 2923 2382 2851 2469 2249 2164
0 6 18 2 31 16 3 252 587 782 825 792 818 782 722 677 628 660 598 919 1099 1073 1437 2063 2322 2941 3360 3431 3774 3453 3051 1491 2415 2052 2385 2843 2873 3358 2758 2581 2351 2243 2635 2886 2725 2535 2234 2198 1807
11 28 12 46 64 1 74 445 771 726 965 1106 1040 1001 1033 1064 986 855 673 822 919 1321 2131 1912 1420 2576 3068 3483 3396 3121 2640 2476 2908 3114 2207 2614 2955 3033 2843 2537 2086 2170 2484 2111 2598 2415 1955 1989 1851
11 21 18 65 33 18 34 322 714 671 653 681 1018 979 1149 1143 1485 1394 1347 1369 1979 2509 2657 2222 2361 2834 3274 3359 3581 3257 3255 3069 3128 2644 3155 2651 3056 2616 2649 2539 2626 2671 2047 1914 1849 1830 1795 1590 1277
0 12 59 68 30 66 81 210 377 328 422 531 623 584 790 843 765 1489 1650 1430 1746 2200 2207 2835 2578 3572 3143 3721 3385 3217 3025 2728 3025 3252 2838 3122 3060 2934 2257 2229 2305 1937 2052 2034 1698 1591 1614 1652 1742
32 13 1 31 89 149 69 109 200 94 213 489 558 485 454 407 1056 1173 1747 1970 1976 2119 3423 2863 3155 4129 4307 3601 3059 3403 2957 3658 2943 3465 3163 3132 3097 2351 2429 2506 2493 2349 2012 2150 2163 2045 1786 1357 1767
0 1 3 8 37 90 175 163 193 108 100 320 570 595 464 554 588 788 1000 894 1262 2688 3372 3828 4332 4411 4232 4382 4214 3687 3395 3417 3278 2782 3342 2719 2168 2378 2731 2787 2044 1727 1646 1685 1726 1923 1395 1315 1174
0 0 0 9 24 5 53 151 73 116 139 141 217 458 480 522 536 964 1165 1200 1454 2237 3063 3632 4331 4243 4007 4188 4413 3956 3395 3328 2525 2564 1686 1654 1253 1505 2114 2060 1927 1938 1875 1004 1297 1326 938 965 1327
0 0 0 0 12 14 0 3 177 112 55 120 89 159 236 339 542 687 981 1411 1534 2262 2772 3791 4279 4650 4461 3824 2842 2878 1591 907 2015 1709 1626 1096 1294 1383 1261 1595 1757 1790 1474 1405 1308 922 989 1152 916
0 0 0 0 0 0 1 3 169 172 66 60 68 97 126 194 295 431 594 959 1147 2007 2305 3482 4426 4190 3423 2774 1408 1503 1526 771 845 953 1127 1314 1427 1637 1185 1552 1706 1386 1251 1136 1120 1088 828 843 854
0 0 0 0 0 12 0 34 106 127 676 99 101 161 184 174 303 362 568 836 960 1637 2145 3276 3681 3281 2782 2097 1622 843 331 740 644 1178 921 838 919 949 1624 1114 1232 1358 1123 1028 773 1130 943 850 869
0 0 8 6 9 0 5 21 136 120 72 268 392 147 169 295 526 695 572 761 1213 1759 2363 3146 2887 2807 2425 1738 1367 491 352 578 717 1138 1060 957 697 960 1378 1200 1203 941 1012 968 946 803 747 656 557
0 0 2 29 14 15 23 22 122 70 176 371 678 576 220 162 709 883 1233 1114 1689 2090 2852 2480 2537 2465 2141 1780 1506 1055 818 1053 1165 1737 1103 696 720 844 892 701 919 1047 1083 1050 971 749 729 756 633
0 0 0 2 1 4 4 11 0 0 0 0 23 0 267 180 351 829 1258 1331 1951 2144 2535 2508 2498 2536 2142 1557 2332 1960 1784 1314 1065 845 935 816 1308 545 801 788 945 1171 1175 945 1135 757 688 782 646
0 0 0 0 27 31 19 9 27 124 5 0 0 0 59 443 558 553 860 1570 2260 2209 2383 2171 2373 2557 1804 1684 1723 1625 1716 1566 1456 1146 980 1081 1336 1221 1164 1030 1040 1081 1200 1194 940 729 576 534 553
0 0 0 0 5 32 28 18 62 156 38 1 0 0 0 52 502 1164 1179 1877 2413 1944 1996 1512 1799 2084 1579 1476 1764 1511 702 824 1345 1072 1030 1119 1512 1471 1396 1297 1168 1087 986 1161 900 972 746 481 674
0 3 11 10 63 36 80 2 2 0 0 0 0 0 0 133 448 1620 1415 2184 2253 2015 1711 1094 956 1266 1219 1295 1775 1573 1251 953 919 1066 951 1106 1289 1463 1418 1413 1248 941 972 974 693 760 765 738 673

GFSSGP_con_mucape_009.txt.gz
CAPE
1347 1218 1402 1395 1419 654 6 53 106 57 47 60 108 32 203 421 171 39 254 255 397 776 1304 1401 2085 2167 2310 2440 2222 1990 2163 2640 2727 2787 3078 3189 3121 3151 3300 3233 3188 3037 2892 2244 2254 2334 2339 2210 2152
935 1374 1553 1395 484 0 4 19 59 149 169 131 211 359 495 295 298 375 420 343 358 802 1314 1570 2113 2240 2175 2338 2239 2651 2516 2617 2802 2896 2942 3096 3151 3130 2940 2309 2343 2849 2562 2149 2192 2156 2047 2024 1890
867 847 1496 1338 1 0 0 12 40 183 312 364 350 376 360 358 451 428 402 410 469 678 1519 1795 2726 2572 2488 2438 2593 3038 2774 2994 2860 2940 3055 2905 2766 2356 2024 2169 2160 2217 2506 2147 2077 2060 2008 1955 1763
76 539 1253 153 0 0 0 3 31 163 131 349 773 767 693 551 567 554 1179 1175 910 1008 1550 2676 3033 3014 2964 3051 3115 3254 3124 2938 2919 2834 2624 2562 2511 2111 2006 2048 2105 2177 2172 2140 2074 1978 1935 1870 1756
881 509 230 7 2 0 0 0 0 114 153 870 914 817 807 789 692 906 1129 1202 1101 1236 1660 2150 2913 2941 2893 3132 3160 3108 2978 2878 2930 2703 2501 2692 2796 2173 2208 2069 1987 1905 1903 1850 1776 1728 1671 1728 1717
10 58 125 0 0 1 8 0 56 298 315 871 1199 1071 1048 893 743 857 1090 1153 1061 1296 1997 2258 3031 3181 3241 2814 2559 3158 2821 2638 2747 2723 2992 2801 2823 2577 2398 1924 1874 1768 1605 1617 1735 1832 1724 1704 1815
7 192 78 27 0 0 0 5 37 131 317 416 1328 1136 941 1221 1092 1127 1097 1115 1118 1188 1623 2153 2303 2345 2823 3066 2926 2704 2887 2671 2879 2864 2790 2759 2308 2044 2009 1958 1921 1639 1609 1743 1871 2380 2369 2398 2569
231 124 43 140 46 0 0 0 28 232 287 431 487 686 676 1077 1221 1344 1145 1173 1107 1208 1616 1698 2053 2227 2481 2514 2873 2364 2759 2395 2784 2652 2310 2580 2154 1838 1616 1371 1850 2045 1939 1891 2177 2679 2643 3020 2944
311 298 72 40 25 27 44 0 70 221 309 415 360 532 461 1307 1361 1316 1267 1320 1351 1403 1316 1351 1305 1750 2118 2378 2482 3038 2639 2851 2681 2365 2488 2361 1604 726 170 933 920 1544 2305 2220 2455 2488 2262 2934 2359
545 489 32 79 62 78 278 425 414 273 344 405 390 345 726 854 1071 1215 1441 1284 1343 1398 1557 1378 1413 1509 1546 1673 2225 2204 2078 2044 1849 1784 1682 1521 1230 1076 942 829 834 1133 2522 2808 2922 2413 2567 2652 1681
487 191 82 70 25 302 370 321 285 647 278 315 387 260 645 927 1124 1221 1447 1300 1196 1143 1078 1169 1674 1552 1656 1475 1615 1916 1993 1781 1691 1662 1575 1486 1460 1023 1399 1179 1326 1433 1945 1781 1955 2239 1869 1894 1641
10 133 122 35 190 298 199 310 70 117 240 450 369 312 377 618 923 783 670 873 1332 1144 1289 1382 1758 1782 1626 1537 1669 1842 1613 1510 1455 1540 1791 1748 1491 1403 1552 1346 1420 1465 1414 1663 1216 994 1629 1508 1203
19 21 56 36 121 516 569 242 0 368 520 457 354 392 428 418 338 736 609 867 765 1124 1452 1540 1703 2003 1398 1299 1823 1652 1634 1769 1493 1702 1768 1832 1640 1516 1265 1493 975 1469 1507 1142 1500 1592 1249 1412 1522
8 9 37 29 113 326 567 787 672 624 420 391 298 386 402 394 368 372 675 710 581 904 1463 1660 1626 2100 1985 2124 2036 2179 1897 1085 1399 1756 1705 1866 1910 1697 1645 1229 1278 1619 1320 1624 1394 1311 1308 1201 1304
6 1 1 10 3 200 290 558 675 584 418 239 318 365 392 390 386 397 457 614 613 676 1763 1828 1942 2112 1827 1986 2199 2433 2194 1812 1079 1344 1443 1017 1072 1587 1552 1233 1308 1158 1192 1553 1672 1705 1680 1528 1440
13 0 0 0 2 189 336 425 583 447 345 285 338 391 437 454 495 441 588 559 679 468 1118 1909 2199 2204 2014 2125 2434 2390 2152 1776 1752 1723 1401 1495 1809 1283 1645 1299 1221 1268 1299 1262 1071 1106 1152 979 947
0 0 4 0 0 0 172 471 507 540 596 643 668 625 654 607 573 539 617 510 613 1171 1164 1137 1796 2283 2182 2419 2387 2277 2256 2115 1970 1665 2078 1926 2144 1816 1514 1560 1659 1807 1537 1374 1217 1408 1141 863 843
0 1 14 11 0 0 109 520 441 533 744 749 777 888 951 970 829 783 751 932 1125 1438 1187 1525 1454 2069 2293 1965 2201 2431 2063 1828 1738 2017 1818 1577 1659 1621 1393 1313 1231 1315 1249 1181 1114 1028 905 1048 905
0 0 8 0 14 11 46 298 412 385 378 332 664 763 834 1018 1086 1044 1045 1037 1469 1313 1390 1537 1851 2400 1914 2099 1741 1972 1330 1811 1742 1788 1991 1827 1680 1656 1658 1334 1500 1508 1300 1179 1136 1020 1083 835 763
6 7 5 45 3 32 19 125 163 216 244 247 399 310 568 605 1251 1220 1158 912 1285 1316 1920 1781 2220 2424 2138 2254 2229 2328 2287 1973 2054 1956 2185 1733 1642 1608 1749 1509 886 731 734 484 430 435 386 555 631
0 0 28 62 71 63 57 82 114 98 86 209 349 298 293 541 1248 1354 1394 1219 1526 1883 2007 2158 2450 2363 2487 1982 2670 2376 2070 2100 1112 874 1449 1077 694 504 425 420 446 645 585 389 415 427 368 382 418
0 0 0 8 74 34 103 78 87 12 12 134 331 328 237 517 459 665 974 968 1944 1972 2365 2692 2398 2278 2510 2490 2472 1898 1383 132 453 330 177 91 421 210 199 250 575 424 396 419 336 396 315 303 251
0 0 0 0 0 14 68 10 56 41 17 76 193 330 265 304 249 504 434 612 1520 1958 2120 2731 2329 2735 2503 2457 749 138 2 0 65 37 0 0 1 209 382 550 305 238 171 178 287 78 216 208 201
0 0 0 0 0 0 0 0 47 9 62 67 75 115 221 225 308 418 630 697 1257 1677 2368 2735 2989 2558 2250 1334 32 0 0 0 0 9 0 24 1 126 501 188 80 203 240 223 83 178 111 42 72
0 0 0 0 0 0 0 0 13 66 59 17 27 23 52 105 327 405 554 731 1300 1741 2274 2845 2522 2246 1034 121 113 0 0 0 0 0 44 39 0 146 121 62 241 5 33 53 133 52 22 75 10
0 0 0 0 0 0 0 0 4 121 105 70 37 35 39 69 94 264 384 532 1227 1642 2417 2500 2485 2143 613 454 82 0 0 0 14 389 124 0 0 20 130 23 141 99 155 222 190 58 12 63 41
0 0 0 0 0 5 8 4 35 73 81 78 175 76 50 22 84 88 231 315 1079 1562 2428 2389 2250 1302 750 482 52 22 34 30 178 45 1 1 199 0 59 44 47 142 286 361 162 77 110 23 1
0 0 0 0 0 0 1 31 20 19 56 100 142 154 121 86 80 146 189 504 1106 1769 2086 2063 1753 1044 895 564 351 349 335 206 115 86 10 24 0 87 60 159 176 181 98 163 307 60 47 0 3
0 0 0 0 0 0 12 10 90 20 0 0 0 46 128 213 305 577 563 774 1272 1754 1821 1606 1349 1070 900 604 476 491 639 387 205 133 28 35 116 354 303 264 192 137 204 303 344 158 131 121 191
0 0 0 0 0 17 22 25 0 2 0 0 0 0 0 153 158 291 330 862 1351 1651 1441 1231 1262 1038 691 757 538 583 13 8 151 77 30 24 69 116 179 139 212 197 128 156 169 109 88 153 121

GFSSGP_con_mucape_012.txt.gz
CAPE
2311 1307 1255 1244 838 23 95 112 67 61 53 139 130 126 279 458 33 23 93 397 886 1084 1225 1571 2206 2358 2033 2471 2067 2229 2696 2833 2929 2979 2990 3209 2913 2987 3113 2953 2560 2602 2347 2275 2419 2439 2276 2129 2129
1025 1083 1367 1377 369 4 49 89 104 55 61 139 286 437 349 429 302 255 310 651 1077 1010 1354 1614 2323 2560 2018 2183 2508 2726 2455 2378 2927 3077 3107 3117 3131 3025 2375 2200 2332 2288 2233 2290 2234 2127 2100 2020 1898
650 1122 1388 1183 106 41 85 254 276 117 121 339 366 387 339 395 440 360 389 741 1127 1156 1221 1505 2427 2589 2214 2472 2879 2702 2677 2458 2845 2981 3078 3117 2483 2142 2262 2147 2078 2204 2200 2146 2123 2057 2026 1948 1784
487 578 1075 482 5 80 200 458 420 349 442 591 787 612 527 565 536 442 424 665 1084 1350 1413 2406 2645 2148 2395 2793 2772 2871 2534 2735 2643 2832 2360 2236 2015 1865 2093 2110 2170 2212 2199 2094 2028 1997 1986 1911 1830
425 129 78 3 1 123 266 417 409 599 720 729 664 719 703 781 987 714 714 759 984 1484 1773 1997 2356 2425 2615 2728 3198 2944 2729 2312 2577 2444 2241 2352 2310 2073 2127 2096 2021 1966 1941 1885 1838 1770 1720 1770 1775
70 27 40 15 0 10 190 213 652 1030 926 745 776 725 660 1002 1179 1108 973 849 1113 1447 1842 1880 2383 2399 2664 2756 2495 2866 2546 2125 2440 2549 2559 2633 2276 2150 2027 1934 1926 1861 1702 1664 1711 1770 1707 1740 1731
51 31 2 35 0 129 311 355 1012 1108 1047 975 872 626 697 910 1099 1211 1132 1049 1378 1852 2043 2105 2073 2153 2428 2995 2507 2344 2336 2131 2321 2495 2336 2423 2073 1888 1840 1864 1893 1749 1590 1661 1812 2006 2298 2228 2239
141 116 0 0 0 53 218 247 611 1009 1113 1052 866 882 708 648 920 1183 988 1129 1350 1942 2078 2157 2179 2295 2418 2435 2718 2023 2184 2148 2148 2147 2210 2193 2028 1937 1835 1583 2045 2049 1942 1956 1952 2242 2368 2470 2511
204 42 16 0 2 0 12 209 330 663 1177 894 830 853 985 1068 1160 1220 1148 1111 1219 1559 1953 2108 2179 2216 2216 2234 2112 2795 2252 2403 2279 2164 2116 2691 1928 1555 742 756 1194 1499 2058 1945 2418 2243 2063 2381 2160
281 226 47 5 13 142 100 224 264 514 731 531 580 937 1280 1273 1179 1177 1182 1140 1144 1335 1301 1598 1948 2112 2116 2379 2154 2257 1925 2075 1953 1888 1775 1792 1353 1053 1023 918 1330 1027 1164 2197 2425 2246 2401 2082 1767
166 118 76 30 88 316 258 274 312 359 368 494 714 1232 1333 1326 1286 1285 1297 1240 1286 1270 1209 1060 1390 1696 1926 1903 2177 2105 1976 1830 1649 1456 1318 1285 1154 1152 1200 1103 1026 1063 1458 1498 1637 1605 1575 1417 1410
6 1 10 53 390 230 159 230 274 271 327 417 1122 1328 1380 1322 1315 1363 1243 1255 1322 1393 1371 1222 1283 1499 1428 1560 1951 1870 1865 1690 1575 1317 1395 1337 1302 1130 926 1221 1197 1290 1240 1314 1042 1041 1096 1314 1232
1 3 30 205 242 216 228 41 221 289 318 277 804 955 1130 1078 1238 1366 1194 1157 1255 1085 1080 1493 1595 1533 1555 1633 1380 1589 1623 1604 1354 1307 1287 1570 1440 1255 1154 1272 1123 830 1288 1105 1324 1346 1171 1062 1052
33 15 207 354 402 98 0 67 407 376 329 257 442 680 859 1030 1093 932 1073 1211 1129 1095 1312 1588 1629 1505 1674 1355 1605 1590 1785 1708 1489 1413 1297 1488 1684 1417 1135 1109 999 1185 1165 1170 1436 1334 1381 1405 1288
49 30 209 376 462 363 356 497 424 456 357 333 280 337 338 479 799 582 787 982 973 1270 1436 1598 1662 1556 1322 1709 1633 1761 1648 1487 1169 1511 1358 1472 1534 1690 1239 1113 1069 938 861 1072 1280 972 944 1010 974
42 36 65 248 393 522 553 549 375 375 346 278 332 316 348 309 299 544 641 490 889 1231 1358 1409 1673 1716 1551 1593 1845 2020 1890 1663 1361 1385 1279 1435 1041 1152 1271 1116 972 1001 1058 1140 983 946 1004 1096 954
1 10 2 77 143 275 369 427 352 243 302 300 263 262 275 302 282 382 514 468 402 1114 1338 1563 1538 1431 1421 1631 1971 2023 1950 1766 1523 1504 1483 1549 1698 1593 1350 1068 1076 1219 993 1020 1052 1145 953 796 715
0 0 0 0 52 203 322 408 346 274 243 251 387 392 382 398 324 334 368 404 422 410 1020 1643 1651 1717 1759 1952 1975 1969 1861 1801 1686 1568 1408 1533 1341 1190 1095 1075 895 960 897 815 771 717 615 829 793
0 3 0 4 20 143 167 355 370 374 430 514 584 570 569 578 470 431 577 402 531 627 659 791 1378 1752 1900 1704 1731 1885 2124 1694 1379 1237 1340 1514 1322 1241 1021 766 1105 1282 797 429 237 317 506 693 403
0 0 3 22 18 35 264 295 290 360 461 592 607 627 647 678 576 591 727 737 833 761 664 1033 1268 1897 1925 1730 1627 1547 1430 1278 1302 1516 1524 1585 1286 1167 1141 1009 755 473 344 254 257 259 203 191 349
1 1 16 32 29 42 194 238 280 286 439 609 608 673 694 749 762 882 707 823 907 858 1117 1079 1642 1796 1840 1553 1583 1895 1972 1841 1572 999 1373 1407 845 409 210 220 185 276 203 164 200 187 168 86 140
0 0 6 37 50 35 88 54 166 252 268 313 300 713 814 837 885 944 858 687 1001 1096 1363 1499 1990 1818 1826 1822 1999 2132 1131 922 234 573 173 73 22 1 0 35 265 211 124 124 135 127 155 102 36
0 0 0 57 70 68 41 49 44 87 104 159 194 388 427 831 933 992 930 774 1126 1386 1663 1619 1805 1847 1893 1782 1739 2200 1635 52 130 8 0 0 0 3 78 300 182 72 0 12 20 6 40 101 119
0 0 0 28 79 47 36 15 21 61 113 73 105 232 297 609 934 1060 1083 855 1254 1443 1742 1867 1729 1586 1876 2142 2284 1103 67 0 0 0 0 0 0 97 121 74 0 0 0 0 0 30 8 24 43
0 0 0 0 0 0 0 64 6 7 63 80 45 116 285 315 642 949 1017 1064 1415 1499 1715 1995 1657 1601 1820 2256 1503 2 0 0 0 0 0 0 9 45 33 0 0 0 0 0 0 4 0 10 20
0 0 0 0 0 0 0 0 0 3 31 34 38 86 228 342 370 510 520 514 1387 1422 1531 2082 1720 1697 2393 2249 1670 0 0 0 0 0 0 0 0 0 0 0 0 0 0 0 16 27 2 28 37
0 0 0 0 0 0 0 0 0 3 18 31 23 46 200 283 295 377 311 377 1111 1400 1556 1832 1790 1838 1804 1519 0 0 0 0 1 55 67 0 0 0 6 0 0 0 11 0 7 1 0 0 0
0 0 0 0 0 0 0 0 0 46 37 50 36 19 76 188 255 270 303 453 1026 1457 1667 1899 1519 1658 1627 802 202 29 0 0 42 14 8 0 1 0 0 1 0 0 0 0 0 10 29 0 0
0 0 0 0 0 0 0 0 5 60 60 61 71 87 30 19 129 276 324 427 927 1259 1788 1885 1631 1744 1672 470 247 92 76 25 22 19 0 0 0 3 41 64 33 2 0 3 23 26 55 0 0
0 0 0 0 0 0 0 0 0 30 35 72 95 110 187 82 61 133 222 370 744 1163 1934 1768 1680 1809 1791 562 353 356 161 194 127 80 43 5 7 46 49 21 9 0 11 8 2 1 3 35 41

GFSSGP_con_mucape_015.txt.gz
CAPE
1661 1192 569 758 541 93 81 58 61 62 32 90 181 232 264 184 34 0 37 229 399 381 536 1242 1675 1571 1638 1962 2095 1983 2203 2231 2756 3061 2777 2846 2562 2467 2512 2562 2481 2362 2226 2286 2307 2139 1975 1974 2002
1501 1070 952 1221 93 111 90 79 59 12 76 279 394 349 349 226 230 229 207 642 839 982 1131 1413 1937 2235 1752 2269 2501 2564 2432 2213 2948 2893 2997 2792 2424 2473 2312 2376 2308 2159 2186 2167 2045 1974 1912 1888 1876
937 882 1269 933 103 85 72 22 0 0 152 318 336 348 327 266 241 225 332 955 969 1318 1537 1712 2238 2322 1939 1954 2549 2510 2397 2204 2407 2498 2373 2396 2160 2016 2111 2041 1947 2025 2069 2083 2014 1944 1905 1852 1739
561 856 994 34 78 123 151 45 51 124 329 584 486 464 555 527 384 379 616 1012 998 1194 1391 2168 2214 2027 2103 2184 2398 2130 2099 2259 2604 2706 2316 2018 2020 2152 2073 1957 2069 2128 2081 2004 1944 1899 1862 1846 1820
469 148 0 33 135 350 333 229 105 368 552 599 534 520 704 727 485 463 807 836 963 1247 1558 1784 2671 2599 2518 2066 2277 2130 2095 2236 2417 2288 2003 2008 1923 2024 2008 2047 2023 1973 1955 1922 1861 1767 1688 1721 1712
20 0 0 106 283 448 415 327 529 751 752 642 557 607 854 543 517 622 768 872 1299 1529 1681 1737 2249 2571 2621 2081 1955 2063 1854 1882 2022 2236 2317 2246 2134 2162 2087 1966 1886 1828 1762 1754 1654 1798 1822 1716 1739
19 0 0 8 260 415 539 693 849 699 526 597 543 605 1004 872 773 769 644 955 1270 1664 1660 1597 1634 1817 2372 2892 1943 1964 1995 1972 2046 2444 2383 2280 2168 2057 2010 1963 1921 1799 1709 1672 1848 2051 2288 2310 2267
46 0 0 3 169 207 657 812 731 803 885 629 578 585 776 1100 1062 1056 874 1094 1515 1725 1874 1845 1719 1836 2002 2230 2281 2003 1976 1776 2190 2341 2309 2262 2031 1865 1977 1866 1840 1892 1941 2015 2102 1853 2213 2331 2353
185 0 0 8 118 234 337 795 919 961 813 446 584 646 788 1176 1123 978 1015 1260 1522 1877 1914 1959 1935 2015 2146 2176 1954 2389 2018 2188 2208 2133 2273 2519 1925 1746 1343 1304 1450 1577 1887 1759 1732 1979 2296 2228 2178
156 114 4 0 24 273 124 636 759 495 694 694 703 642 801 1101 1115 925 961 1088 1421 1678 1854 1876 2037 1998 2152 2202 1972 2069 1686 1988 2010 1976 1987 2044 1736 1416 1017 946 1247 1539 1384 1605 2290 1951 2197 1825 1356
188 179 42 1 27 105 193 365 522 663 607 699 931 837 871 976 1118 978 990 907 1045 1301 1420 1788 1920 1854 1950 2101 2063 2121 1945 1803 1838 1680 1620 1752 1250 1106 1211 1292 1073 1126 1276 1327 1440 1467 1485 1318 1079
88 150 0 26 185 114 235 300 411 503 415 683 1016 1056 1040 1073 1142 1090 1010 913 917 1020 1057 1343 1665 1805 1815 2079 2043 1989 1956 1896 1598 1413 1270 1197 1210 1297 1076 961 1129 1237 1226 1163 1060 968 994 1135 930
0 10 0 43 197 181 209 207 322 352 441 678 1186 1257 1235 1157 1175 1158 1131 1058 1087 1083 1058 994 1247 1506 1602 1629 1878 1821 1783 1734 1575 1357 1133 1299 1300 1283 1185 1132 1218 1242 1232 1165 1279 1190 1114 1054 1104
1 0 21 45 137 133 193 257 281 346 945 1134 1309 1280 1291 1234 1212 1279 1200 1131 1144 1125 1103 1058 1198 1353 1329 1508 1459 1446 1451 1512 1547 1324 1325 1190 1319 1493 1409 1166 1090 973 1132 1115 1261 1144 1275 1198 1049
0 8 45 72 73 72 165 239 278 352 972 1122 1317 1297 1292 1190 1235 1288 1157 1077 1072 1135 1081 1255 1352 1393 1391 1604 1441 1308 1417 1576 1524 1593 1461 1533 1411 1475 1501 1337 1013 1001 889 945 1091 963 841 927 913
5 12 63 99 80 96 268 221 313 317 479 784 955 1031 1043 1028 1079 1197 1131 1010 989 955 1099 1357 1648 1422 1315 1570 1350 1475 1616 1317 1280 1200 1212 1462 1386 1363 1444 1189 918 885 894 1001 1003 990 988 879 686
0 0 52 168 179 297 344 228 293 274 200 311 310 654 792 795 935 853 760 896 1037 833 1170 1354 1503 1445 1362 1288 1516 1469 1567 1472 1395 1213 1201 1184 1237 1194 1171 924 859 904 809 795 830 907 763 548 561
0 4 37 126 202 242 231 216 239 235 175 103 132 195 271 269 392 698 457 694 633 830 1095 1280 1467 1444 1335 1344 1448 1598 1659 1564 1591 1539 1410 1318 1232 1220 1035 935 831 743 680 549 296 303 455 592 785
0 0 48 89 162 122 169 228 180 227 186 136 138 148 152 210 227 349 488 418 469 920 1083 1145 1244 1273 1203 1486 1648 1613 1693 1803 1645 1380 1353 1304 1255 1166 986 564 659 882 350 187 180 171 273 348 346
0 0 4 36 33 122 161 257 118 164 135 132 168 198 252 283 352 356 371 401 402 586 950 1120 1203 1286 1410 1534 1511 1424 1323 1499 1359 1165 1323 1511 1269 1086 761 556 925 388 270 119 138 112 88 180 278
0 0 0 1 28 79 143 206 169 144 150 192 341 403 405 377 400 422 314 336 474 288 409 703 1129 1288 1589 1649 1598 1462 1704 1801 1510 1453 1402 1501 1191 1126 1029 782 328 152 38 41 80 78 43 11 175
0 0 0 3 15 15 106 112 224 235 254 276 386 470 510 453 461 491 397 467 509 413 405 509 881 1142 1526 1734 1660 1450 1660 1270 915 743 810 1111 608 18 17 4 43 28 0 3 5 6 15 11 7
0 0 0 7 19 35 84 32 104 189 239 309 363 495 512 559 510 551 487 661 536 446 691 794 1142 1440 1558 1810 1554 1655 1698 947 556 394 188 6 0 0 0 26 46 27 0 0 0 0 0 3 20
0 0 0 0 5 13 40 34 0 80 205 229 305 425 559 588 622 646 586 764 568 604 828 1128 1264 1558 1629 1625 1752 1641 1796 1535 413 91 0 0 0 0 0 103 55 0 0 0 0 0 0 0 3
1 3 0 0 0 2 9 36 10 33 89 119 193 310 408 451 667 738 711 845 663 809 982 1240 1316 1543 1701 1795 1557 1662 1663 957 0 0 0 0 0 0 24 14 0 0 0 0 0 0 0 0 0
0 6 0 0 0 0 1 7 19 23 34 72 85 142 261 273 687 775 791 889 777 851 1086 1296 1400 1352 1459 1527 1666 1797 539 0 0 0 0 0 0 1 0 0 0 0 0 0 0 0 0 0 0
0 0 0 0 0 0 0 0 0 0 0 22 37 78 121 203 531 830 903 902 865 876 1120 1364 1440 1318 1299 1356 1723 1502 102 0 0 0 0 0 0 0 0 0 0 0 0 0 0 0 0 0 0
0 0 0 0 0 0 0 0 0 0 3 0 20 48 61 94 278 694 908 959 962 1079 1195 1361 1574 1416 1312 1325 1748 1668 227 0 0 0 0 0 0 0 0 0 0 0 0 0 0 0 0 0 0
0 0 0 0 0 0 0 0 0 0 0 0 8 20 45 90 205 348 661 857 956 1256 1358 1409 1703 1603 1393 1309 1797 1437 89 42 0 1 18 15 1 0 0 0 0 0 0 0 0 0 0 0 0
0 0 0 0 0 0 0 0 0 0 0 6 0 18 30 90 146 269 418 572 758 884 1316 1456 1582 1620 1398 1422 1617 747 204 79 98 8 5 0 0 0 0 5 12 0 0 0 0 0 0 0 5

GFSSGP_con_mucape_018.txt.gz
CAPE
1619 1162 562 657 119 3 2 9 26 43 64 96 179 138 131 110 33 3 15 106 167 239 402 1003 1304 1169 1218 1159 1042 988 1480 1668 2285 2516 2683 2575 2193 2308 2351 2513 2380 2308 2178 2155 2089 2022 1904 1951 1895
1235 622 695 893 25 0 0 2 8 14 59 293 275 238 181 106 172 107 131 412 427 470 581 879 1384 1538 1641 1671 1935 2140 1963 1889 2775 2911 2799 2667 2427 2316 2370 2307 2154 2065 2096 2014 1956 1964 1856 1806 1779
1035 795 1044 436 66 0 0 0 0 174 259 289 273 257 182 138 168 136 211 683 885 724 936 1260 1710 2104 1801 1873 2300 2490 2394 2226 2499 2507 2272 2213 2132 2063 2169 2036 1898 1971 2030 2019 1973 1920 1861 1788 1738
798 917 773 21 24 39 0 0 0 185 406 342 277 363 389 149 233 289 743 861 1053 1110 1250 1648 1899 1640 1793 1865 2235 2187 2238 2117 2317 2334 2174 1919 1957 2056 1998 1859 1969 2001 2002 1972 1899 1837 1789 1840 1871
514 316 2 18 138 285 82 38 154 310 528 411 389 478 489 393 361 676 809 855 1058 1256 1641 1679 2063 2221 2174 2244 2368 2408 2080 1836 2262 2258 1925 1924 2037 2052 1975 2002 1982 1926 1925 1898 1815 1692 1641 1551 1567
163 7 38 77 328 368 215 87 329 633 600 448 379 450 576 453 366 761 767 823 1125 1363 1542 1739 2046 2306 2271 1905 1951 2172 2156 2228 2186 2044 2052 2018 2025 2020 2011 1877 1796 1802 1766 1794 1676 1875 1954 2030 1866
48 0 9 181 372 390 312 202 675 653 544 421 376 459 622 415 518 703 718 1123 1411 1553 1585 1736 1881 1828 1901 2507 1869 1931 1931 1948 2129 2276 2272 2186 2141 2098 1999 1931 1910 1881 1848 1821 2005 2048 2128 2133 2035
16 0 18 224 356 345 408 745 711 574 518 445 474 391 467 523 640 591 812 1140 1474 1513 1467 1520 1649 1752 1841 1886 1823 1795 1887 1870 2212 2370 2254 2120 2012 1887 1890 1960 1888 1967 1892 1787 1940 2103 1868 2209 1957
75 0 6 49 284 229 590 750 497 761 484 361 537 408 654 778 784 659 888 1168 1404 1575 1537 1547 1643 1748 2006 2027 1675 2057 1926 1784 2140 2146 2223 2503 1715 1632 1931 1722 1590 1597 1641 1957 1982 2301 2218 1985 1787
42 0 0 0 194 224 633 630 776 488 392 562 564 916 1044 994 822 712 728 588 791 1233 1491 1607 1636 1726 1845 2056 1817 1884 1678 1743 1915 1881 1847 1924 1802 1508 1535 899 1502 1500 1700 1777 2103 2318 2203 1764 1488
42 3 7 0 21 222 388 563 514 249 574 540 599 930 1111 943 881 769 655 610 637 943 1232 1667 1653 1784 1803 1845 1841 1737 1615 1696 1878 1754 1680 1460 1541 1190 1114 1255 1173 1051 1152 1456 1600 1487 1701 1516 1239
7 60 13 7 0 197 230 448 359 490 360 522 566 879 1086 1020 1026 686 739 796 956 1247 1347 1592 1717 1857 1839 1820 1856 1771 1779 1641 1594 1556 1371 1283 1098 997 1066 941 906 1057 1191 1105 982 1021 1128 1184 979
2 7 1 73 0 70 175 335 344 429 382 583 571 822 937 980 967 803 794 704 786 1055 1133 1381 1538 1685 1526 1622 1761 1746 1781 1622 1428 1364 1168 1041 993 1071 1132 962 994 1088 1025 1127 1131 1158 1158 1091 1132
0 0 33 62 27 69 157 211 378 277 706 826 745 779 863 940 1042 1010 958 815 774 744 815 991 1194 1469 1459 1397 1606 1695 1678 1515 1438 1301 1179 999 957 1149 1206 1086 1070 1087 982 1055 1057 989 1167 1158 916
0 22 17 120 88 96 149 153 254 399 790 978 1005 984 1002 1025 1002 1090 1052 945 901 828 813 824 834 1010 1217 1247 1336 1220 1305 1193 1206 1211 1184 1089 1161 1189 1231 1064 1085 819 887 778 933 956 876 941 948
0 15 41 48 74 87 164 128 189 763 813 1021 1037 1086 1120 1079 1045 1076 1093 1010 935 876 832 876 1018 1006 1151 1145 1390 1485 1087 1178 1311 1227 1135 1113 1238 1190 1200 1093 901 709 695 743 857 765 836 723 541
0 0 3 47 62 45 118 54 197 735 790 967 1054 1052 1124 1075 1050 1045 1129 1049 923 928 855 903 1151 1252 1157 1180 1253 1458 1280 1416 1248 1235 1166 1010 1088 1176 1108 1092 778 717 741 629 676 688 575 452 422
0 0 10 50 54 52 126 151 180 354 603 674 834 953 954 918 935 942 1027 1053 930 862 857 877 1205 1367 1238 1088 1146 1366 1352 1418 1404 1371 1137 1085 1158 1287 1139 934 779 800 565 402 109 114 152 310 471
10 42 33 45 53 104 200 168 151 197 258 361 545 676 764 708 649 737 819 941 845 797 792 916 1084 1244 1319 1119 1186 1291 1384 1452 1442 1435 1450 1294 1207 1080 725 845 602 575 272 104 55 79 133 172 136
0 17 16 44 30 83 133 164 105 176 188 161 182 175 266 481 492 348 633 782 557 733 787 873 1068 1181 1218 1193 1184 1269 1336 1298 1545 1370 1172 1123 1246 1200 964 418 621 569 218 120 24 27 10 45 107
0 0 0 25 38 58 79 120 139 134 187 150 136 86 101 140 165 140 185 429 441 598 674 793 1021 1074 1198 1156 1088 1252 1209 1131 1108 1039 1234 1298 1319 1035 727 468 578 301 100 1 7 10 3 0 34
0 0 0 0 12 5 92 22 122 81 161 168 160 132 98 102 127 194 199 237 383 395 527 825 900 967 973 977 1118 1324 1335 1211 1272 966 610 1151 1147 1056 878 554 128 15 0 0 0 0 0 0 0
0 0 0 0 14 35 65 28 35 89 76 141 148 142 132 181 293 290 279 272 260 373 377 559 756 864 954 1094 1305 1421 1397 1107 732 487 385 693 639 98 0 0 0 0 0 0 0 0 0 0 0
0 0 8 6 12 8 3 13 0 14 149 135 163 174 192 237 348 400 380 374 315 303 437 280 323 540 782 1054 1252 1485 1446 1260 872 481 246 382 102 0 0 0 0 11 0 0 0 0 0 0 0
0 9 16 3 3 0 0 8 17 17 92 118 148 199 229 276 354 453 499 473 451 360 546 395 412 542 785 1038 1295 1575 1450 1382 1075 625 92 0 0 0 0 4 19 1 0 0 0 0 0 0 0
0 0 0 0 0 0 0 0 16 37 44 62 105 141 181 247 357 452 528 584 558 498 655 437 601 682 862 1117 1379 1522 1591 1410 1309 541 0 0 0 0 0 31 1 0 0 0 0 0 0 0 0
0 0 0 2 0 0 0 0 0 0 13 8 18 66 131 153 287 408 542 596 633 629 695 503 668 794 930 1144 1343 1478 1437 1438 951 1 0 0 0 0 0 0 0 0 0 0 0 0 0 0 0
0 0 0 4 0 0 0 0 0 0 0 0 0 4 80 121 200 367 500 527 649 703 702 735 710 857 920 1064 1258 1420 1336 1390 44 2 0 0 0 0 0 0 0 0 0 0 0 0 0 0 0
0 0 0 0 0 0 0 0 0 0 0 0 0 0 29 99 130 309 595 660 694 817 755 878 889 1000 994 983 1064 1158 1317 888 0 28 11 0 0 0 0 2 0 0 0 0 0 0 0 0 0
0 0 0 0 0 0 0 0 0 0 0 0 0 22 14 44 98 181 604 782 867 915 852 925 981 1197 1164 1069 1024 1027 1296 964 0 13 16 0 0 1 0 0 0 0 0 4 0 0 0 0 0

GFSSGP_con_mucape_021.txt.gz
CAPE
1307 1023 706 1006 100 17 19 17 37 38 114 230 175 76 156 211 57 71 139 231 160 302 580 796 1193 1181 1195 1057 1084 861 1124 1545 2112 2171 2324 1895 1904 2259 2368 2386 2366 2221 2190 2032 1986 1862 1847 1905 1951
1189 691 1019 1127 20 31 57 35 55 66 310 373 350 296 241 144 126 170 288 386 352 284 610 635 1194 1456 1312 1180 1161 1380 1361 1470 2290 2668 2539 2199 2149 2302 2344 2206 2063 2144 2107 1975 1945 1889 1900 1812 1797
698 868 1346 232 19 46 47 55 99 241 416 341 310 237 108 143 124 180 383 611 813 899 1045 1198 1394 1677 1621 1527 1349 1483 2083 1949 2260 2498 2249 2233 2250 2233 2207 1993 1936 2037 2064 2009 1892 1753 1763 1783 1838
930 806 349 10 20 149 46 64 440 505 540 376 118 196 206 159 172 308 642 808 845 1125 1139 1549 1442 1538 1557 1646 1627 2072 2401 2307 2509 2380 2075 2024 2010 2092 1925 1875 2002 2016 1947 1886 1780 1723 1668 1677 1680
510 222 0 60 233 272 78 82 317 512 594 353 297 207 154 723 430 581 820 777 861 1102 1422 1488 1715 1840 2116 2040 2081 2363 1852 1846 2089 2068 1937 2028 2066 2052 1966 2040 1982 1902 1842 1782 1688 1688 1766 1701 1620
406 0 59 17 219 340 111 216 619 793 645 457 296 209 480 756 441 576 786 970 912 1118 1420 1502 1691 1887 2441 1952 1739 2146 1836 1808 2033 1944 1948 1992 2105 2057 2058 1897 1814 1787 1762 1777 1790 2024 1927 2055 2006
134 33 50 239 307 310 258 307 654 762 590 463 353 234 561 457 456 628 706 903 1017 1273 1422 1598 1766 2075 1985 2409 2040 2124 2199 2146 2078 2121 2197 2157 2117 2117 2018 1925 1901 1873 1839 1986 2124 2011 1690 1422 1522
34 1 158 239 134 108 429 643 804 688 514 523 346 295 421 637 474 631 735 936 1006 1209 1531 1988 1989 1780 1555 1809 2044 2040 2013 2121 2232 2312 2277 2195 2082 1905 1893 2072 1781 1808 1925 1755 1847 1988 1591 1492 1495
16 7 169 238 263 140 599 664 713 746 630 448 666 468 440 702 480 567 775 974 1325 1430 1562 1658 1727 1745 1849 1767 1692 1869 1952 1923 2213 2269 2233 2123 1622 1747 1875 1899 1668 1224 1568 1759 2035 2020 2011 1704 1702
173 2 20 105 281 273 721 750 780 746 445 519 861 781 858 664 590 414 649 813 972 1181 1474 1438 1523 1493 1746 1344 1770 1836 1665 1393 1745 1932 2277 2076 1948 2026 1868 1727 1399 2031 2009 2013 2072 2036 1869 1674 1722
109 34 3 1 192 411 691 809 698 457 349 502 940 935 856 764 622 441 455 590 789 1041 1202 1516 1947 2096 1901 1840 2116 2068 1821 1605 1934 2273 2242 2271 1914 1865 1862 1859 1884 1913 1531 1939 1810 1835 1675 1887 1790
11 48 6 9 183 438 692 706 448 276 302 495 846 873 917 920 866 631 544 575 700 1015 1144 1329 1643 2133 2143 1833 1646 1734 1618 1722 1643 1631 2093 1920 1695 1820 1789 1919 1675 1962 1918 2195 1943 1807 2089 1888 1868
0 1 0 2 56 328 510 456 163 196 629 800 897 1007 978 964 1084 1141 832 711 881 1009 1126 1497 1768 1956 2265 2376 1646 1428 1695 1476 1635 1560 1539 1513 1406 1669 1705 2118 2085 1985 1967 1809 2423 2134 2074 1968 1842
0 3 73 6 74 322 285 419 307 331 724 859 948 959 990 1083 1189 1148 942 966 1054 1119 1196 1463 1781 2075 2280 2181 2326 1964 1892 1729 1782 1735 1520 1768 1564 1724 1795 2106 2173 2556 1834 1876 2132 2126 2259 1941 1803
0 49 119 50 118 183 214 375 443 483 678 723 820 981 1043 1125 1254 1197 996 1065 1038 1095 1093 1166 1439 1735 2089 1963 1953 1930 1957 2007 1805 1761 1995 2118 1779 1982 2000 2609 2338 1970 1845 2004 1904 2133 1738 1869 1645
7 15 71 83 47 98 98 156 377 683 734 656 636 785 936 1066 1244 1403 1221 1312 1126 1064 1067 1125 892 1216 1735 1843 1918 1913 1878 1889 1912 2453 2243 2368 2345 2412 2471 2269 2680 1802 1802 1641 1890 1725 1505 1384 1135
3 2 49 139 28 112 201 196 245 636 756 813 708 746 959 1184 1251 1362 1463 1475 1460 1421 1357 1320 1315 1411 1677 1966 1995 2135 2347 2277 2048 2137 2727 2235 2258 2343 2449 2650 2767 1672 1797 2149 1517 1342 1292 867 751
13 6 29 170 102 115 159 217 269 693 717 862 903 787 1084 1257 1402 1411 1465 1511 1480 1486 1594 1544 1537 1856 2127 2064 2191 2144 2329 2311 2330 2324 2333 2365 2514 2326 2520 2461 2116 1876 1792 1315 858 807 586 610 564
19 39 64 156 130 103 125 182 223 646 787 844 999 1028 1016 1164 1267 1341 1422 1471 1478 1476 1553 1601 1763 2492 2270 1999 1973 2039 2193 2281 2402 2378 1976 2389 2243 2142 2211 1855 1774 1738 1329 844 764 464 441 278 561
20 37 58 65 113 75 87 70 217 316 700 765 859 973 1055 1168 1224 1284 1308 1261 1398 1473 1539 1693 2094 2594 2462 2178 2103 1986 2211 2167 2300 2308 2357 2431 2384 2495 2052 2099 1705 1479 937 924 579 472 71 230 565
0 29 41 53 75 123 101 66 162 248 328 439 591 596 656 914 986 857 917 1071 1091 1272 1502 1844 2434 2707 2413 2301 2157 2098 1988 1948 2016 2107 2203 2226 2272 2359 2224 1720 1481 1421 895 296 416 287 360 20 173
0 0 61 97 81 112 127 70 108 301 397 383 360 374 344 385 572 589 549 773 933 1066 1400 1971 2186 2610 2270 2392 2163 2262 2046 1956 2025 1938 1833 2282 2304 2106 1920 1585 1484 1208 469 377 338 185 162 152 4
0 0 9 81 99 81 82 95 71 172 362 446 424 393 323 283 333 359 376 534 722 881 1104 1476 2205 2500 2768 2370 2621 2249 2153 2143 2089 1479 1250 1359 1536 1871 1858 1543 1031 700 268 519 264 177 213 107 87
0 0 0 14 47 33 16 52 21 116 330 405 305 364 358 314 295 309 325 409 621 728 905 1268 2078 2630 2639 2222 2254 2473 2610 2342 1637 1183 911 812 588 598 659 568 583 597 445 238 149 127 150 144 198
0 0 0 0 9 0 0 26 86 74 145 221 287 269 324 327 305 414 481 445 725 980 1141 1345 2023 2370 2410 2115 2379 2393 2537 2505 2074 1489 792 507 324 398 292 566 645 532 345 221 141 181 72 106 88
0 0 0 0 0 0 0 0 58 121 117 85 157 278 302 301 415 471 853 899 960 1066 1469 1597 1751 2014 2307 2014 2565 2682 2655 2276 1657 1641 752 326 237 126 386 568 598 422 203 137 100 85 118 107 136
0 0 0 0 0 0 0 0 0 7 15 21 58 91 260 412 555 467 526 750 1056 1304 1476 1703 1927 2063 2220 1963 2549 2477 2677 2368 1696 1443 866 371 234 151 316 421 463 207 63 110 225 94 264 222 270
0 0 0 2 0 0 0 0 0 0 5 35 40 35 145 382 526 569 830 1040 1225 1244 1559 1714 1948 2126 2174 2001 2255 2147 2145 1905 1667 1196 737 99 137 181 350 391 275 183 172 202 293 145 90 195 206
0 0 0 0 0 0 0 0 0 0 24 24 30 17 35 183 434 720 1101 1200 1271 1285 1236 1511 1747 2139 2280 2362 2491 2461 1804 1311 1311 1089 87 1 22 94 302 257 198 283 288 249 290 253 174 235 300
0 0 0 0 0 0 0 0 0 0 0 2 0 0 9 101 263 583 842 1064 1238 1517 1214 1317 1689 1794 2104 2248 2352 1932 967 954 1101 780 92 30 27 13 59 193 269 317 327 267 332 299 102 258 291

GFSSGP_con_mucape_024.txt.gz
CAPE
1192 1340 1092 1654 1020 51 110 110 172 241 327 214 42 34 152 351 418 333 427 430 372 455 666 717 1097 775 732 981 1140 1231 1326 1242 1237 1726 1620 1668 2116 2415 2422 2334 2241 2235 2091 1963 1899 1863 1862 1795 1822
1502 1032 1134 1235 265 66 170 175 213 328 384 330 333 279 311 306 266 304 444 410 667 557 715 771 1234 1209 1230 1262 1178 1352 1333 1173 1827 1933 1778 1980 2223 2408 2273 2042 2158 2203 2068 1969 1882 1798 1754 1774 1752
1056 951 1637 228 63 66 59 153 300 518 418 280 422 280 267 280 276 439 511 482 539 755 760 1157 1191 1415 1392 1403 1479 1628 1753 1742 1842 2029 1845 2110 2286 2257 2044 1884 2049 2108 2010 1826 1703 1676 1700 1683 1782
1062 1439 1073 62 13 26 12 151 468 598 618 339 280 378 291 341 395 628 781 893 938 1024 990 1339 1538 1677 1717 1622 1772 1924 2026 1915 1814 1754 2102 2106 2061 2025 1795 1994 2042 1918 1847 1748 1678 1610 1604 1504 1447
1210 605 32 0 0 0 86 295 543 668 639 353 295 252 590 605 595 887 1004 916 977 1035 1116 1555 1863 1805 1813 1624 1825 1842 1804 1793 1923 2029 1982 1949 2044 1955 2001 2033 1858 1776 1711 1724 1708 1830 1801 1801 1767
997 238 13 2 0 18 106 256 564 714 748 481 345 647 842 666 985 1144 1081 948 911 916 1192 1191 1454 1772 1863 1693 1776 1882 1775 1959 2022 1926 1981 2103 2109 2012 2023 1832 1732 1720 1756 1873 2009 1926 1572 1544 1534
496 182 34 6 0 2 81 349 549 748 651 395 245 639 853 767 1036 1118 1067 900 881 1283 1119 1274 1502 1757 1846 2035 1681 1653 1721 1831 1893 1929 1992 2104 2069 2068 1935 1862 1814 1919 1962 1960 1860 1808 1349 1191 1342
537 116 86 15 19 27 129 297 517 552 726 449 276 480 847 691 869 920 906 954 1006 1204 1523 1786 1923 1609 1199 1434 1859 2102 2139 2070 2043 2309 2223 2145 2054 1877 1799 1922 1882 1636 1724 1837 1895 1917 1445 1368 1538
177 142 107 53 18 96 295 428 626 642 749 549 535 223 531 555 603 646 789 914 1122 1333 1319 1666 1748 1457 1427 1501 1898 2068 2032 2150 2248 2272 2175 1897 1395 1461 1485 1785 1395 1150 1711 1830 1824 1831 1559 1565 1660
265 195 75 51 31 86 301 317 740 660 589 598 810 424 572 518 650 716 843 1093 1167 1341 1443 1319 1204 1376 1533 1264 1758 1624 1506 1438 1568 1578 1878 1619 1305 1629 1662 1770 1807 1918 1895 1946 1721 1553 1618 1616 1493
370 330 44 44 123 125 412 411 410 303 370 507 887 813 688 579 649 731 865 1013 1151 1267 1222 1193 1145 1443 1522 1324 1469 1479 1437 1321 1565 1975 1984 1572 1593 1770 1891 1760 1954 1963 1926 1497 1747 1810 1603 1746 1814
207 35 0 16 218 118 427 362 268 219 151 325 727 859 659 576 551 589 771 911 1112 1297 1246 1331 1533 1591 1565 1498 1401 1383 1343 1374 1269 1193 1750 1665 1703 1688 1879 1627 1827 1735 1836 1779 1772 1771 2055 1936 1855
65 0 0 0 184 293 409 473 110 290 725 357 764 781 658 655 599 546 564 666 922 1219 1281 1470 1753 2236 2148 2071 1373 1184 1308 1178 1107 1123 1213 1331 1514 1758 1918 1908 1467 1527 1548 1788 1766 1814 1897 2074 1855
0 0 7 0 129 411 480 524 130 278 913 608 807 815 750 699 742 752 704 744 860 971 1089 1333 1680 1914 2057 2061 1998 1544 1345 1101 1184 1038 1108 1702 1767 1855 2134 1587 1704 1521 1588 1906 1902 1849 1951 1983 1912
0 0 60 79 319 531 381 595 629 585 884 773 830 868 708 728 815 1109 1131 1049 1109 1095 1055 1248 1664 1823 2195 2143 2158 1959 1355 1280 1255 1498 1877 2051 2083 1891 2345 1588 1416 1365 2079 2169 1783 1820 1817 1621 1401
0 0 66 278 448 516 438 525 569 735 926 884 731 717 640 750 865 1042 1017 1101 1133 1188 1272 1326 1208 1494 2048 2092 2083 1840 1609 1739 1714 1848 1699 2060 1928 2458 2283 2777 1313 1337 2020 1882 1689 1737 739 391 302
0 16 26 324 329 434 446 343 601 860 921 984 679 561 612 858 991 1165 919 1148 1276 1290 1370 1454 1342 1237 1743 2128 2189 2261 2269 2751 2123 2655 2192 1855 1935 1749 1887 1595 1651 2094 1860 1681 1453 646 611 160 30
0 6 15 107 290 414 433 421 491 847 875 912 895 549 568 820 1081 1237 1231 1186 1464 1486 1525 1644 1459 1695 2005 2031 2548 2994 3503 3455 2201 2227 2837 2084 1864 1870 1938 1525 1678 1641 2106 1747 894 1049 276 17 34
26 18 38 78 299 353 312 367 474 819 801 731 866 800 649 831 956 1192 1364 1398 1496 1671 1803 1924 1965 2225 2528 2473 2303 2119 2108 3264 2353 2467 2438 2213 2114 1884 2095 1595 1573 1515 1785 1181 1074 384 0 0 57
0 16 38 126 279 286 238 347 382 410 890 735 641 806 833 828 976 1188 1405 1406 1554 1812 1974 2201 2278 2513 2836 2483 2427 2064 2036 1995 2024 2311 2500 2568 2499 2323 1871 1990 1757 1742 789 1353 810 90 0 0 92
0 8 31 112 265 276 168 228 283 158 385 897 776 623 744 918 815 1020 1235 1427 1483 1810 2103 2288 2661 2658 2981 2913 2585 2732 2612 2649 2428 2263 2309 2241 2539 2405 2318 1981 1847 1965 1398 266 155 39 60 0 0
0 0 20 115 212 197 265 163 125 230 432 661 928 598 629 885 1044 946 1016 1260 1481 1621 2042 2424 2748 3100 2969 3379 3286 3002 2295 1828 1365 1506 1163 1342 2095 2199 2247 2302 2087 2134 638 107 23 19 49 87 0
0 0 5 82 149 182 208 267 145 175 339 540 791 636 367 436 449 565 705 827 1174 1429 1657 2196 2874 3793 3608 3615 3715 2949 2855 1999 1915 1888 1970 2043 2164 2411 1867 2332 1993 1571 166 229 252 99 50 0 28
0 0 0 41 111 156 126 142 100 164 471 312 465 663 396 176 199 219 333 461 797 1087 1340 1738 2979 4246 3922 3433 3357 3545 3479 2723 1993 2365 2131 1169 930 1700 2250 2126 1843 870 105 558 275 96 55 133 126
0 0 41 67 70 83 101 61 19 13 46 151 100 477 581 387 152 204 282 244 505 841 1209 1562 3473 4277 3906 3292 3194 3327 3316 3241 3049 2953 2383 934 578 524 1347 1521 1115 785 919 671 217 198 78 89 72
0 0 11 49 53 68 37 6 10 108 92 56 32 79 391 637 532 357 528 610 715 975 1577 1999 3267 4050 3559 3097 3644 3863 3684 3044 2953 3048 2212 1179 328 342 884 935 904 883 828 628 331 93 144 81 90
0 0 0 50 68 72 13 5 0 43 78 15 36 60 141 572 706 672 674 859 978 1416 2235 2791 3433 4070 3964 3131 4068 3621 3608 3245 3036 2844 2966 1604 1101 374 602 857 827 873 822 450 331 180 218 162 108
0 0 0 18 77 0 9 31 0 36 22 0 9 42 108 226 585 728 798 934 1286 1356 1767 2116 3113 3824 3390 2795 2991 2817 3020 3197 3303 3193 2818 1797 1202 626 492 715 702 686 611 352 588 192 156 228 47
0 0 0 1 11 44 24 1 0 0 0 0 0 2 28 79 382 715 852 968 1359 1452 1615 2034 2375 2634 2763 3335 3494 3730 2929 2933 3104 2861 2536 1840 1032 809 936 1018 637 726 443 525 688 440 81 190 289
0 0 0 1 9 17 33 9 0 1 0 0 0 0 0 12 117 466 843 1042 1174 1582 1642 1867 2125 2372 2586 3273 3941 3259 3181 3081 2967 2625 1815 1101 732 485 693 601 734 692 658 661 569 441 97 238 307

GFSSGP_con_mucape_027.txt.gz
CAPE
967 1068 1325 1125 1661 201 80 103 114 207 149 62 59 132 271 227 161 2 217 175 348 395 450 678 850 951 1083 1131 1211 1045 1046 1047 1324 1688 1747 2050 2213 2331 2273 2180 2154 2029 1936 1858 1840 1787 1742 1695 1638
1025 1329 1549 1222 664 23 109 145 124 225 225 79 290 258 206 375 377 398 386 466 326 290 380 315 1171 1064 1242 1356 1453 1491 1305 1148 1380 1647 1819 2101 2294 2215 1941 2053 2119 2044 1945 1763 1690 1712 1712 1772 1697
1628 1429 1247 1291 201 15 96 125 403 310 351 278 266 243 321 259 518 469 591 486 448 611 566 772 1196 1328 1437 1475 1645 1534 1492 1433 1547 1562 1890 2188 2253 2096 1761 1942 1988 1917 1750 1645 1630 1579 1558 1481 1504
1695 1190 1462 195 54 77 204 255 346 381 307 253 365 314 336 412 500 514 638 669 872 888 829 799 1224 1454 1573 1653 1887 1814 1888 1944 1610 1701 2108 2101 2058 1781 1829 1923 1815 1732 1649 1585 1547 1606 1642 1594 1469
1365 1315 487 23 26 125 212 290 345 296 285 377 418 540 407 556 648 722 535 563 1027 1027 1082 1070 1538 1727 1843 2004 2111 2124 2059 1936 1643 1900 1998 1957 2003 1828 1917 1702 1567 1568 1687 1820 1855 1812 1539 1661 1637
1182 576 78 19 4 48 236 315 345 352 381 325 498 694 665 731 773 882 940 686 890 830 1281 1467 1957 1994 1904 2046 1904 1865 1794 1783 1882 1920 1903 2036 2005 1870 1692 1464 1489 1626 1829 1983 2012 1642 1284 1288 1402
876 282 66 25 2 12 44 108 274 316 243 483 647 693 810 855 862 824 864 660 696 875 1012 1302 1576 2046 1889 1890 1738 1734 1812 1926 1890 1854 1934 2055 1912 1812 1508 1538 1633 1766 1878 1838 1785 1640 1300 1256 1369
700 387 41 92 48 1 6 111 59 185 387 261 775 796 835 985 842 758 678 787 630 1138 1034 1318 1389 1499 2013 1531 1558 1614 1760 1800 1779 1965 2047 1961 1886 1640 1501 1588 1767 1417 1479 1656 1787 1775 1452 1287 1559
426 211 216 46 94 1 5 21 123 266 318 212 332 679 799 773 763 965 914 747 1586 1289 1472 1323 1281 1063 1217 1186 1406 2110 2086 1950 2027 2233 2047 1702 1561 1673 2219 1668 1241 1117 2132 1783 1854 1832 1643 1608 1737
441 30 152 107 86 99 15 16 171 164 260 296 266 663 828 803 770 683 684 1162 1088 1221 1326 1246 1394 1140 1242 1112 1993 1684 1501 1466 1408 1330 1995 1377 1520 1702 1587 1470 1631 1873 2055 1916 1882 1752 1885 2331 1885
231 116 180 64 106 114 52 11 70 145 127 305 372 657 769 791 764 680 667 749 872 1429 1253 1498 1399 1317 1142 2092 1280 1487 1441 1388 1368 1712 1809 1499 1624 1979 1711 1923 2672 2314 2467 2235 2094 2018 1958 2109 1851
303 242 15 96 14 109 93 12 5 12 72 167 366 601 605 686 708 689 735 894 1054 1111 968 881 1138 1560 1448 1432 1119 1134 1042 1026 1045 1403 1909 1895 1773 1537 2021 2398 2020 2391 2203 1837 2768 2228 2240 2412 2358
277 101 9 8 16 114 193 23 5 20 33 104 387 641 544 606 575 615 677 832 1053 1132 984 1000 1242 1738 1721 1895 1275 1070 994 1019 925 1087 1465 1372 1542 2617 2531 2674 1761 1715 1485 2388 1995 2424 2681 1749 2108
101 79 37 5 43 77 88 96 8 141 108 196 469 601 541 475 465 516 587 752 1024 1214 1162 1212 1478 1848 1940 2383 2128 1466 1364 1187 1022 1022 1002 1676 1866 2964 1970 1736 1553 2374 1606 2173 2433 2214 2140 1909 2119
40 28 13 1 58 57 125 161 3 251 225 281 472 435 382 392 422 505 529 664 847 1036 1184 1322 1539 1711 2061 2030 2055 1798 1350 1065 1085 988 1426 1572 2202 2194 2183 2297 1891 2004 2897 2486 2192 2551 2873 2452 1986
1 6 115 21 17 184 90 211 284 557 317 213 347 400 377 399 395 538 574 691 797 880 1101 1309 1297 1473 1954 2560 2218 1828 1453 1342 1560 1497 1980 2811 2340 2397 2208 1792 1610 2014 2708 2577 2362 2005 2455 574 269
0 54 53 33 5 296 135 66 258 565 474 247 228 366 402 421 492 629 755 838 867 1085 1238 1356 1424 1367 1889 2761 2307 2104 2708 1750 2034 2351 1393 2287 2082 2498 2410 1996 2829 2632 2100 1877 2397 1816 1152 266 0
30 43 121 243 14 277 156 533 531 600 542 309 240 225 355 387 523 695 748 709 921 1080 1278 1595 1521 2189 2845 2468 2862 2220 2546 2358 2295 1606 1882 2580 2349 2031 3055 2395 1780 1867 1488 2203 1421 1137 362 0 20
58 113 29 140 13 180 249 238 398 722 733 474 313 258 190 267 547 628 848 612 932 1144 1378 1677 2311 3625 2561 1952 1938 2068 1903 2825 2099 2042 2296 2489 2378 2350 2823 2414 2134 1781 1638 1700 1013 413 301 0 113
2 76 89 55 70 63 228 286 287 687 779 615 507 367 169 117 314 642 941 814 1018 1321 1751 2573 2939 3899 3209 2480 2844 2257 2227 1429 2033 1936 1953 2719 2209 3052 1989 2434 2158 2393 1467 1308 585 208 1 0 134
0 42 97 74 247 175 217 232 267 291 599 782 594 429 413 205 248 618 918 1049 1122 1352 1961 3044 3845 4101 3824 3707 3255 2577 2462 2047 1798 903 982 1361 1797 1418 2299 2245 1957 2193 903 741 488 41 9 0 0
0 1 32 81 128 239 100 274 249 210 271 476 773 714 364 365 269 412 826 1087 1055 1327 1803 3280 4001 4346 4136 4253 3153 3765 2403 1674 990 1202 882 830 1029 1054 2224 1861 1345 1544 1253 916 11 11 8 23 0
0 2 32 82 136 198 117 163 130 104 172 144 516 842 632 460 377 308 463 899 1025 1155 1493 2447 4220 4512 4423 4359 3966 3003 3087 1433 1196 1045 2701 1537 2546 1231 992 1162 2080 1498 610 769 63 33 50 0 2
0 2 71 87 118 141 188 175 221 54 214 197 348 603 790 454 552 543 449 634 937 1035 1304 2031 4092 4695 4789 4629 4616 4756 4449 2956 1937 1797 1927 1288 751 1162 1325 1333 1767 2211 683 217 240 150 25 46 107
0 2 62 81 96 88 137 217 243 144 143 166 148 219 626 733 435 597 574 480 1006 1367 1707 1923 3795 4710 4950 4685 4580 4527 4735 4675 4221 3041 1967 2257 563 526 2694 2260 2559 1544 1441 452 349 390 104 94 52
0 0 24 61 56 65 90 114 136 183 116 56 23 89 250 708 619 439 498 385 733 1199 2026 2360 3261 4572 4809 4721 4751 4896 4949 3184 2952 3368 2044 1439 583 519 2514 1860 1809 1104 1325 1212 765 181 138 217 141
0 0 0 53 79 107 94 86 51 44 50 124 87 47 74 416 645 607 467 399 341 1053 1894 2341 3057 4328 4703 4498 4932 4900 4862 4595 2957 3556 4148 2295 2246 631 1679 1504 1335 1537 810 691 513 269 216 215 265
0 0 0 14 112 132 91 80 95 119 34 79 72 20 6 41 291 616 596 601 813 589 1399 2326 3045 4308 4526 4490 4725 4514 4624 4702 4602 4695 4447 3631 2934 1595 1821 1399 1504 1447 1189 1384 1317 837 888 549 183
0 0 0 0 41 92 106 110 116 110 67 32 12 3 39 43 86 395 723 773 1136 874 1223 1879 2903 3845 4433 4436 4444 4383 4386 4116 4476 4001 4178 4025 3621 2597 1914 1882 1641 1550 966 1128 1369 1190 445 474 675
0 0 0 120 12 34 115 86 75 27 57 36 58 58 42 39 52 107 441 781 1017 1777 1292 1363 2075 2493 3563 3954 4477 4398 4515 4327 4137 4291 4215 4231 3532 2788 2086 1927 1592 1302 1147 1080 1180 840 368 352 462

GFSSGP_con_mucape_030.txt.gz
CAPE
697 612 870 689 742 526 82 9 282 164 91 125 137 72 103 133 1 63 55 78 231 255 342 568 1114 1205 909 920 1009 1533 1754 2239 2498 2620 2790 2722 2645 2671 2666 2459 2232 2229 2045 1823 1794 1746 1717 1614 1537
685 1158 1034 465 400 114 246 275 168 102 57 222 223 147 47 4 24 67 125 216 324 215 337 311 1435 1352 1262 1491 1623 1704 1570 1698 2333 2548 2671 2647 2344 2226 1939 2005 1958 1887 1697 1644 1654 1639 1632 1665 1529
658 1016 291 285 329 95 339 404 235 222 310 203 130 156 55 11 58 120 209 205 181 214 362 912 1300 1381 1627 1940 2113 2108 1881 1995 2327 2415 2161 2091 1981 1699 1904 1920 1809 1643 1558 1531 1536 1528 1456 1351 1298
1130 1078 1063 1128 68 255 361 338 267 183 267 142 117 353 386 330 201 384 305 307 389 356 385 1170 1410 1424 1639 2191 2106 2054 2137 1906 2115 2109 1990 1979 1766 1639 1889 1699 1616 1497 1584 1578 1653 1611 1485 1395 1256
1574 1441 1312 266 98 266 162 332 228 146 332 246 149 481 408 306 437 480 460 440 547 609 448 930 1848 2014 2046 2376 2294 2278 2150 1640 2147 1915 1822 1859 1718 1761 1694 1468 1388 1505 1737 1823 1932 1548 1232 1330 1292
1443 822 878 11 1 193 248 281 92 143 292 291 278 318 493 635 505 652 750 711 918 851 741 918 1886 2226 2250 2387 2455 2280 1915 1630 1803 1796 1757 1837 1706 1697 1369 1259 1341 1593 1760 1771 1695 1363 1069 1025 1124
963 877 582 1 0 32 41 299 107 15 298 303 447 401 337 646 628 635 691 881 646 941 1212 1525 1512 1947 2163 2421 2040 1818 1719 1791 1816 1693 1772 1845 1680 1578 1331 1143 1433 1360 1529 1581 1542 1372 1087 1093 1203
784 381 225 22 0 0 0 25 75 55 238 464 364 390 533 597 745 752 795 628 725 834 1323 1903 2006 1761 1832 1604 1702 1695 1773 1740 1574 1616 1689 1873 1722 1566 1372 1719 1679 1275 1231 1395 1553 1619 1467 1511 1919
523 84 96 23 0 0 0 1 246 60 37 388 365 365 583 338 706 425 574 666 1011 821 875 981 1662 2138 1669 1382 1298 1688 1648 1644 1591 1842 1983 2218 1427 1569 1785 2108 1604 1255 1822 1794 1762 2066 2344 2452 2562
213 5 32 6 12 0 0 4 9 19 3 307 440 532 318 509 354 625 958 1071 811 864 959 857 883 1075 1565 774 1776 2083 1566 1432 1729 1995 2243 1822 1256 1824 2017 2424 2507 2005 1720 2113 2198 2540 2012 1736 1706
73 11 33 56 21 0 0 10 0 7 36 43 471 473 352 406 677 1080 820 1277 1386 1534 1243 1315 1437 1450 1196 1858 1934 1878 1832 1776 1927 2670 2927 3002 2622 1939 1554 2067 1908 2395 2052 1414 2036 1212 1378 2189 1962
39 0 5 49 88 22 8 0 24 3 65 94 466 538 489 297 255 238 868 801 1440 1316 1290 1285 1805 1878 1940 1665 1555 1931 1794 1900 1861 2199 2947 3172 3130 2607 3027 2859 1592 2747 2454 1678 747 1546 2294 2176 2574
223 74 294 38 2 54 25 0 0 36 29 133 437 594 560 417 240 222 328 483 1528 1178 1237 1678 2171 2875 3435 2834 1985 1862 2317 1399 1764 2085 2535 2220 2718 1909 2288 2004 2733 2758 2280 2382 1453 1194 2837 1905 2257
7 145 86 15 19 68 87 14 0 1 17 170 357 408 437 402 321 483 584 795 1044 1146 1070 1687 1817 2700 2943 3149 3563 3916 2941 1062 1773 1136 2274 3081 2887 1633 1927 3186 2777 1433 1752 1855 2594 2801 2787 3004 2525
0 14 42 2 4 63 81 39 0 0 9 111 276 315 288 327 371 586 672 1008 1258 1293 1240 1670 1711 2299 2691 3101 3190 3226 2791 1290 2050 1683 2630 3196 3573 3493 3166 2937 3149 2006 1920 2926 1897 2193 1916 2363 2272
0 1 70 13 0 48 3 165 10 40 0 73 160 211 233 263 244 531 667 974 1182 1270 1852 2089 1055 2046 2685 3112 3458 2359 1811 2561 1713 2242 2737 1641 3096 3003 3607 3362 2881 3012 3249 1601 1724 2320 1706 1305 618
0 2 24 5 4 60 21 175 227 167 0 14 89 114 143 275 375 487 402 815 1031 1407 2190 1769 2126 1926 2619 3077 2959 2941 2771 3135 3468 1488 2751 3140 2289 3395 2917 2713 2316 2430 2169 2300 1732 1967 1301 702 197
0 0 10 36 57 47 144 2 9 205 87 6 10 107 193 133 203 527 545 626 807 1205 2003 2263 2172 3089 2948 2754 3288 3056 2535 2485 2752 3217 2631 2886 2923 2521 2395 2788 2592 2373 2519 2218 1732 1053 1218 439 589
0 0 0 20 59 41 312 167 9 149 189 34 0 46 59 134 317 523 641 823 892 1267 2052 2369 2902 3377 3505 3220 2415 2520 2766 2739 2677 2513 3755 2874 2926 2761 2678 3406 2352 1950 2434 2115 1584 1427 578 491 1103
0 1 46 54 98 66 48 432 334 117 209 126 43 23 39 88 268 585 863 844 854 1482 1883 2764 2880 3996 3303 2854 2711 2145 2248 2045 2490 2444 2853 2394 2965 2838 3312 3379 2272 1986 1489 1864 1876 1090 646 133 1018
0 0 5 13 37 33 42 70 233 465 355 145 114 129 39 70 57 636 865 885 846 1560 2143 2590 2994 3736 2946 3385 2580 3036 3573 4053 2157 2319 2112 2947 2876 3091 3065 2566 2768 2263 2181 2112 1714 1027 481 350 937
0 0 0 38 10 32 49 97 411 287 651 329 127 104 161 90 113 178 647 1121 973 1513 2305 2671 3142 3347 3427 3101 3415 3232 2366 2712 2459 2575 1955 3036 2992 2649 2970 3293 2909 2203 2454 1871 1454 1106 564 490 197
0 0 0 0 16 106 120 67 212 474 364 529 154 197 118 286 109 70 477 925 1048 1427 1955 2745 3230 3471 3509 3227 3631 3702 2999 1657 2730 2307 3420 3093 3251 2138 2905 2583 2789 3090 2015 1567 927 1086 675 663 479
0 0 0 0 5 67 119 7 88 315 392 167 210 50 573 220 341 242 298 913 1153 1244 1809 2366 3309 3535 3685 3769 3511 3897 3118 2673 2688 3070 3088 2523 2300 2194 2855 2316 2961 2791 2010 1602 673 779 511 450 672
0 0 1 1 51 10 72 117 167 140 154 64 8 80 680 743 467 507 389 626 1309 1381 1477 2328 3531 3751 3799 3994 3903 3454 3975 3723 3100 3905 3315 2148 1323 1481 2208 2975 2795 2340 1988 1789 1435 848 1094 735 603
0 0 0 4 10 36 39 75 253 354 56 2 0 23 278 637 659 766 802 655 1310 1462 1725 2049 3366 3813 4063 3915 4199 4016 3728 3920 3662 3526 3059 1978 2169 1447 2010 2354 2619 2165 1718 1706 1221 797 500 727 668
0 0 0 0 2 35 55 64 70 218 70 23 29 71 71 74 635 679 1051 1054 1065 1592 1778 2013 3482 3719 4098 4272 4206 4292 4229 3728 3325 3630 3193 3392 2530 2848 2021 2071 2398 1999 1693 1332 1370 791 661 856 1176
0 0 0 0 12 27 38 90 120 504 115 37 25 72 130 25 572 619 614 997 1012 1387 1883 2129 2663 3897 4145 4291 4310 4127 4262 4227 3696 3475 3639 2591 3657 2635 2293 2087 2052 1829 1710 1549 1620 854 1239 1125 1094
0 0 0 0 0 18 35 42 136 191 534 389 106 98 132 11 433 676 674 756 1001 1073 1530 1916 2291 3568 4062 4274 4267 4255 4198 4370 3864 3580 3270 3449 3234 2815 2164 1950 1759 1807 1705 1546 1336 1136 1113 1039 956
0 0 0 0 0 0 8 14 28 465 414 332 117 114 97 34 25 120 773 888 1009 942 1141 1616 1995 2154 3612 4105 4146 4270 4331 4312 4233 3392 3868 3857 3226 2902 2061 1928 1854 1619 1485 1407 1323 837 489 974 1050

GFSSGP_con_mucape_033.txt.gz
CAPE
813 485 656 345 226 231 69 38 120 66 156 105 143 83 27 19 0 0 16 22 62 62 176 508 1072 1119 1013 1444 1961 2190 2422 2348 2736 2936 2996 2886 2306 2502 2770 2336 1995 1906 1778 1750 1710 1699 1570 1518 1422
475 755 254 318 270 55 80 80 124 53 171 48 9 9 1 7 0 4 54 81 82 142 270 453 1290 1462 978 1230 1905 2133 1761 1854 2571 2970 2939 2660 2079 2415 2046 1939 1876 1705 1654 1603 1563 1543 1566 1483 1461
532 896 13 149 205 127 209 126 59 117 137 72 25 0 0 0 25 35 21 57 86 255 323 785 1378 1916 1306 1245 1689 1978 2092 1714 2058 2539 2530 2142 1762 1877 1890 1831 1655 1576 1553 1525 1506 1444 1334 1288 1286
567 1249 886 699 71 184 180 134 185 179 214 193 168 37 4 30 46 110 203 130 78 246 754 1550 1559 1649 1824 1632 1733 1477 1584 1660 2216 2606 2230 1802 1619 1785 1668 1618 1489 1486 1635 1649 1704 1548 1456 1390 1283
951 583 507 700 111 166 170 143 99 124 344 167 233 140 156 111 118 132 108 76 159 350 916 1217 2108 1911 2289 1857 1795 1853 1570 1506 2361 2443 1876 1784 1661 1749 1518 1385 1349 1532 1720 1844 1746 1428 1242 1384 1444
941 615 603 339 128 204 99 158 200 160 366 273 263 259 180 233 235 276 238 198 205 381 719 1083 1959 2070 2147 1900 1965 2065 1622 1609 2215 2334 2016 2228 1999 1876 1800 1263 1354 1547 1708 1654 1674 1449 1256 1283 1426
1007 373 391 259 168 188 164 94 197 209 212 316 299 294 329 331 329 323 348 414 502 418 625 1140 1508 1815 2222 2725 2127 1976 1715 1674 1881 1996 2095 2129 1790 1587 1483 1653 1520 1430 1521 1596 1610 1790 1608 1604 1950
450 297 220 92 36 207 165 12 82 182 282 357 545 531 405 460 483 564 511 620 577 713 863 1118 1458 1715 1779 1849 2075 1720 1881 1801 1642 1613 1661 1838 1728 1637 1494 1892 1979 1336 1278 1470 1717 2335 2468 1891 1899
14 56 62 41 5 39 39 16 159 329 326 275 284 544 515 479 472 645 645 690 884 903 1052 1131 1372 1485 1304 1235 1448 2093 1879 2010 1633 1593 1919 2010 1665 1311 1411 1788 1983 1518 1514 1835 1894 2246 2465 1917 1411
39 0 3 68 63 40 133 85 124 283 227 189 360 544 566 517 438 526 632 612 810 850 1074 1173 1079 992 977 1046 1180 1260 1286 1366 1302 1470 1453 1702 1387 1011 1105 1451 1755 1740 1948 1190 2558 2207 1997 1508 1155
29 31 19 36 11 1 18 35 1 234 378 260 340 376 551 604 486 481 483 552 544 632 888 1199 1302 1079 700 578 838 1149 1193 1118 1045 1165 1313 1329 1409 1521 1250 731 825 1037 1020 1283 1636 1334 896 1608 1240
34 34 10 11 13 25 13 8 0 0 247 438 360 426 523 407 388 470 593 634 376 711 586 704 636 1191 609 696 704 1199 1195 1047 962 1150 1707 1716 1614 1284 1089 1152 873 1179 1548 1162 727 1322 1163 1718 1792
0 2 7 24 36 4 0 4 39 27 445 353 269 146 445 259 508 623 714 962 678 715 828 718 539 828 1090 1082 737 1196 1271 1252 1181 1521 1627 1041 1216 929 1621 1423 1665 1234 1675 1279 971 915 1353 1721 1500
10 23 13 2 68 4 33 0 8 88 369 376 310 193 223 270 617 676 657 944 785 983 800 1012 760 1171 996 1442 1615 2099 1402 1184 1242 1430 1342 1248 1379 1042 1443 1699 1865 1327 950 1255 1377 1421 1450 1738 1262
0 8 53 26 75 55 8 11 13 88 339 451 430 367 305 187 59 180 824 751 590 468 550 1132 1117 1597 1524 1428 1806 1404 1487 869 875 994 1634 1395 1475 1261 1293 1303 1344 1641 1430 1472 1026 1143 1300 1230 945
0 0 0 3 15 44 6 13 0 16 275 349 387 389 357 279 133 137 439 775 481 474 1084 1103 1125 993 1053 1349 1962 1229 992 812 977 1255 1219 1753 1932 1590 1424 1535 1464 1893 1266 1039 892 1059 489 221 35
0 0 2 15 11 1 42 26 0 26 111 207 224 209 248 245 158 169 417 590 520 490 920 807 1155 1004 1038 1552 2101 1407 1255 1576 1470 1335 1392 1241 1983 1899 1914 1741 1518 1633 1429 1340 1085 847 419 137 0
0 0 0 0 14 31 10 21 35 95 10 48 150 97 106 96 134 240 359 465 718 532 931 926 940 1275 1283 1842 1675 1704 1456 1703 1941 1381 1041 2043 1594 2092 1488 1687 1835 1310 1349 953 875 686 333 4 4
0 0 0 2 25 29 68 14 42 28 84 0 36 42 74 55 63 160 171 482 645 850 1059 864 1196 1696 1488 1678 1757 1889 1875 1571 1549 1767 1737 1648 1500 1454 1544 1670 1700 1532 1289 739 581 192 0 0 15
0 0 0 33 56 18 21 23 0 0 47 20 8 1 25 46 26 147 166 255 481 747 1172 875 1182 2161 1541 1668 1616 1570 1532 1449 1310 1336 2003 1730 1677 1624 1498 1538 1394 1221 969 685 327 121 1 2 5
0 0 0 29 9 5 0 3 19 35 190 137 22 0 9 41 48 112 151 248 369 582 1114 1176 1483 2079 1817 2015 1671 1406 1598 1518 1615 1844 1840 1670 1623 1855 1948 1881 1181 1117 896 646 378 43 0 0 0
0 0 0 1 0 1 5 94 19 120 171 146 48 40 10 16 40 72 233 328 376 724 1166 1233 1657 2146 1906 1777 1539 1434 1131 1715 1659 1684 1688 1701 1789 1803 1640 1514 1010 1327 984 766 158 0 2 0 3
0 0 0 0 17 30 11 0 182 130 180 96 41 76 35 24 44 86 248 278 432 740 1035 1576 1469 2343 1517 1731 1800 1071 1346 1354 1574 1150 1574 1681 1753 1731 1485 1733 1336 1122 803 387 16 1 23 41 59
0 0 0 0 0 25 0 4 13 23 165 199 228 111 89 71 61 63 128 382 348 816 1233 1623 1571 1813 1922 1267 1571 2090 2097 1104 676 1475 1350 1609 1103 1533 1554 1453 1354 1010 441 365 37 56 6 44 50
0 0 0 0 0 0 1 0 10 68 4 262 291 155 55 30 51 69 148 351 459 603 1456 1643 1699 1691 2174 1863 1733 1939 2429 1628 1524 1573 1211 1024 660 734 1650 970 1331 827 394 117 50 29 17 9 31
0 0 0 0 0 0 0 6 24 20 48 143 103 132 22 93 86 79 99 210 561 586 1214 1824 1913 1849 2115 2192 1891 1786 1989 2621 1817 1776 1999 1286 1114 919 978 1404 1266 868 697 159 252 126 180 76 5
0 0 0 0 0 0 0 0 0 4 100 48 62 18 19 41 244 163 87 99 542 603 1231 1618 2121 2053 2308 2362 2262 2125 1867 2051 2808 2508 1622 1820 1262 935 646 1597 1381 972 710 510 351 123 34 101 25
0 0 0 0 0 0 0 0 0 44 65 49 31 56 9 14 44 136 163 124 598 704 872 1526 2474 2356 2487 2386 2625 2641 2516 2242 2361 2953 2405 1756 1796 1518 862 1496 1447 1166 928 542 311 244 258 238 200
0 0 0 0 0 0 0 0 0 31 156 57 81 72 31 1 36 214 309 217 587 818 939 1155 2415 2574 2686 2674 2587 2773 2893 2828 2529 2452 2650 2092 1641 1733 1375 1450 1438 1205 980 598 522 259 309 415 63
0 0 0 0 0 0 0 0 0 44 138 76 82 57 47 23 81 219 327 459 359 963 1028 1234 2572 2619 2908 2929 3017 2944 2943 3252 3158 2634 2316 2199 2166 1705 1394 1397 1421 1205 1065 812 600 423 307 166 380

GFSSGP_con_mucape_036.txt.gz
CAPE
591 501 489 162 190 114 70 56 110 104 56 57 40 31 0 1 0 0 1 4 0 38 134 446 1219 1437 1678 2098 2458 2298 2172 2444 2840 2751 2532 2231 2111 2205 2167 2052 1951 1854 1856 1832 1855 1807 1676 1635 1573
607 613 62 203 167 51 30 49 71 83 40 15 0 0 0 4 0 6 15 7 6 55 190 478 1288 1756 1479 1947 2415 2515 2035 2137 2643 2732 2444 2151 2143 2097 2021 1906 1759 1693 1683 1664 1658 1621 1638 1579 1597
695 356 6 117 141 60 72 71 143 33 1 0 0 0 0 7 0 1 0 11 58 163 327 611 1530 1727 1439 1537 2034 2329 2288 2025 2135 2122 1917 1920 2024 1984 1912 1738 1653 1629 1594 1655 1656 1525 1408 1387 1370
1021 1095 636 281 124 114 141 199 153 95 57 0 1 0 5 12 0 5 46 54 204 227 592 1347 1478 1206 1326 1408 1582 1695 1850 1863 2084 2062 1871 1713 1924 1806 1734 1626 1584 1697 1714 1859 1729 1588 1582 1482 1351
929 277 315 408 215 116 140 284 197 134 141 1 7 41 27 15 10 51 44 132 186 458 946 1190 2107 2185 1837 1471 1515 1571 1617 1866 2054 1989 1843 1702 1848 1691 1594 1492 1564 1708 1852 1936 1622 1399 1386 1436 1507
813 263 131 128 162 113 230 273 302 250 208 116 73 76 53 69 129 106 82 103 314 737 1099 1380 2098 2478 2268 1577 1782 1657 1517 1907 1934 1932 1908 1763 1829 1653 1427 1381 1451 1650 1780 1731 1728 1394 1351 1361 1530
241 0 75 41 133 186 203 387 317 363 309 232 63 61 111 117 171 172 94 136 318 732 1064 1389 1519 1706 1901 2409 1942 1804 1587 1822 1842 1854 1911 1855 1797 1698 1424 1353 1499 1539 1624 1677 1697 1776 1733 1624 1927
101 17 8 55 76 152 208 304 315 312 385 280 178 170 153 135 123 133 167 187 279 545 957 1317 1507 1631 1764 1965 2090 1848 1666 1790 1847 1830 1864 1958 1810 1710 1561 1930 1830 1565 1434 1511 1752 1940 1941 1897 1622
0 7 13 42 176 136 193 312 363 404 398 145 395 253 178 233 259 285 320 371 431 567 892 1331 1492 1634 1871 1841 1682 2011 1801 1839 1803 1603 1755 2193 1685 1398 1582 1606 1975 1902 1425 1951 1810 1988 2167 1529 785
16 2 5 10 15 101 62 247 421 448 478 502 370 424 361 344 380 404 543 485 654 628 800 1092 1426 1400 1309 1345 1260 1514 1448 1576 1393 1333 1341 1717 1399 1225 1371 1543 2159 1705 1759 729 2154 1876 1716 1806 836
14 7 0 6 7 84 218 348 394 471 441 463 478 406 432 457 543 544 641 703 704 679 900 1016 1172 1104 880 875 1145 1226 1247 1210 1017 917 999 1006 1254 1009 1396 978 1172 911 1663 1098 1545 1414 1006 1347 1195
77 37 7 11 5 11 185 442 473 346 389 499 543 451 438 462 559 537 713 700 626 822 828 935 852 893 645 640 863 768 814 861 681 560 911 1183 1274 1135 1187 722 860 991 1473 1002 489 1082 977 1407 1506
62 16 25 33 6 24 22 307 413 383 442 502 631 546 439 378 436 555 593 597 596 828 771 845 841 628 611 486 493 598 932 831 670 684 792 1267 1204 1177 1008 975 1053 1205 1172 970 854 886 1102 1430 1313
19 42 32 56 33 44 1 14 168 366 417 532 620 509 449 299 344 376 492 465 467 674 587 847 947 799 554 511 446 589 1011 1006 911 881 987 1197 946 1026 1352 1274 1231 1191 1357 982 1123 1200 1307 1296 1137
0 0 0 13 1 15 0 90 405 466 338 507 613 512 419 399 369 407 544 438 341 581 471 636 628 713 789 667 678 759 1350 1242 1189 1054 1102 1226 1299 803 1283 980 1008 1240 1139 1225 1030 958 747 201 66
0 0 4 0 8 11 2 94 449 443 339 292 486 465 463 315 308 404 480 629 404 499 673 724 564 642 802 857 1113 1081 1050 771 760 1072 1175 1111 1076 1053 950 946 954 1453 989 893 767 765 331 153 82
0 0 0 0 0 0 1 2 426 365 355 297 233 221 276 155 353 471 546 554 605 630 664 817 588 857 861 1096 1165 923 817 593 916 965 1085 1080 1474 1229 1301 1077 1145 1500 1294 1128 832 555 348 46 2
0 0 0 0 0 0 0 0 347 406 403 376 340 214 195 138 129 170 535 498 699 437 585 791 705 792 1082 859 1182 975 779 882 1654 1332 988 1150 1713 1645 1331 1259 1552 1238 1270 1147 838 735 473 0 0
0 0 0 0 0 2 0 0 18 324 382 434 387 307 263 130 138 80 549 536 509 380 706 796 788 774 503 966 1098 1224 918 914 1221 1267 924 1081 1278 1410 1393 1007 1377 1332 1094 1127 535 272 15 0 0
0 0 0 0 17 10 5 0 5 41 218 276 284 234 227 174 156 176 235 480 432 320 657 756 789 725 651 849 957 1045 1046 1174 1097 1327 1305 1276 1261 1099 1461 1077 1161 1050 1193 924 419 85 0 0 0
0 0 0 0 0 10 10 10 1 16 34 35 115 148 119 111 75 126 106 291 395 283 585 546 670 924 839 1017 1144 1092 1122 1274 1296 1109 1394 1533 1212 1270 1240 1050 1031 1095 759 615 314 143 0 0 0
0 0 0 1 0 2 0 0 0 0 0 2 28 92 80 68 34 40 105 219 332 367 509 524 697 1251 1080 1096 1128 1040 1077 1140 959 968 1313 1453 1318 1358 1411 1421 1170 821 779 660 335 90 0 0 6
0 0 0 0 0 0 9 0 0 12 0 0 8 70 93 42 40 22 67 98 258 323 565 562 598 1390 1271 1245 1093 1004 879 842 1174 1257 1395 1464 1407 1332 1413 1217 953 969 774 525 461 3 0 0 0
0 0 0 0 0 0 0 0 0 0 11 15 37 118 135 107 26 8 26 50 65 266 560 699 738 1158 1326 1369 1182 1083 1014 830 874 1265 1443 1348 1401 1399 1421 1333 1060 765 567 488 9 0 0 0 0
0 0 0 0 0 0 0 0 0 0 13 52 53 125 154 157 77 12 8 36 63 213 547 781 866 1100 1209 1392 1367 1271 950 753 705 933 1188 1036 1312 1269 1299 1409 1247 760 485 197 114 11 0 0 0
0 0 0 0 0 0 0 0 0 0 0 21 47 148 135 178 99 20 28 42 53 213 656 999 877 1056 1154 1175 1302 1356 1266 1121 876 1114 763 1088 1015 1163 1065 1162 1167 701 585 201 130 27 0 0 0
0 0 0 0 0 0 0 0 0 0 9 7 43 87 122 254 103 53 50 15 114 216 715 988 997 963 1327 1216 1003 1066 1359 1833 1844 1430 1306 1125 1026 744 905 1096 794 719 469 391 251 16 6 10 2
0 0 0 0 0 0 0 0 0 0 0 0 18 108 195 267 103 51 49 72 169 215 708 950 1066 1031 1247 1450 1325 1155 1038 1429 1895 2161 1542 1338 1338 1274 1017 848 625 697 526 610 337 62 34 12 27
0 0 0 0 0 0 0 0 0 0 0 1 30 151 261 211 90 33 51 188 159 363 521 1229 1206 1147 1224 1474 1591 1491 1219 1071 1456 1972 2319 1890 1426 1384 1235 1032 869 658 634 687 512 188 77 19 10
0 0 0 0 0 0 0 0 0 0 0 2 17 144 293 266 80 122 247 275 82 405 487 1129 1548 1430 1407 1642 1699 1771 1620 1522 1247 1449 1845 2398 2212 1469 1523 1460 1097 916 839 796 694 240 139 143 64

GFSSGP_con_mucape_039.txt.gz
CAPE
504 501 313 135 108 126 53 40 68 51 82 82 0 0 1 0 0 1 4 16 18 73 301 676 1457 1636 1793 1676 2159 2287 2229 2037 2101 2012 1873 1967 2030 1930 2035 1923 1831 1799 1785 1837 1796 1659 1645 1621 1550
586 509 76 193 139 27 37 87 101 114 24 35 15 0 0 2 0 8 17 0 45 65 296 580 1329 1805 1790 1968 2183 2509 2035 2191 2150 2170 2246 2136 2031 1955 1835 1721 1671 1646 1605 1554 1502 1544 1509 1560 1561
565 268 104 96 161 74 113 100 140 69 12 4 0 0 0 22 6 11 0 0 22 114 337 658 1378 1958 1627 1782 2002 2310 2158 2037 1881 1778 2008 2034 1929 1815 1726 1596 1589 1571 1650 1662 1513 1413 1343 1364 1370
885 671 450 123 114 151 147 153 108 36 22 57 13 26 37 13 1 0 0 9 71 250 511 827 1392 1332 1456 1631 1788 1844 1881 1943 1926 1782 1826 1946 1857 1755 1658 1639 1636 1699 1799 1863 1696 1586 1558 1468 1406
762 263 61 98 181 121 204 239 142 133 50 16 25 4 51 67 35 0 11 78 147 383 697 866 1770 1770 1526 1555 1630 1670 1705 1884 1982 1840 1722 1908 1791 1679 1630 1572 1657 1789 1928 1860 1536 1359 1423 1455 1526
213 117 1 81 120 141 267 222 213 158 77 38 0 47 70 92 62 85 95 164 279 600 911 1096 1540 1879 1621 1477 1578 1628 1689 1906 1981 1939 1797 1872 1830 1625 1529 1474 1551 1765 1802 1751 1550 1352 1329 1359 1492
72 0 0 110 160 148 249 268 243 161 67 68 30 65 121 121 103 110 181 250 466 938 1070 1349 1361 1257 1499 1670 1607 1521 1740 1837 1954 1968 1957 1884 1897 1642 1470 1450 1555 1595 1650 1711 1731 1810 1534 1504 1679
260 22 0 85 213 212 329 322 284 178 230 93 82 61 100 191 161 168 177 299 574 993 1170 1377 1577 1371 1447 1501 1837 1629 1704 1821 1875 1900 1968 1932 1784 1732 1629 1819 1704 1804 1510 1508 1794 1833 1547 1474 1663
119 2 13 107 160 291 441 354 264 257 155 115 210 53 107 283 258 215 177 233 454 762 1250 1376 1461 1495 1660 1725 1708 1933 1646 1806 1901 1748 1831 2180 1583 1461 1641 1673 2075 1999 1545 1989 1829 1844 1697 1192 1611
27 0 8 67 141 255 467 339 259 184 125 335 225 99 168 253 239 194 188 200 243 450 1068 1213 1467 1457 1511 1705 1627 1569 1344 1609 1686 1437 1379 1682 1395 1118 1355 1604 2086 1691 1719 1499 1285 2346 1805 1548 720
40 0 0 2 2 304 389 306 316 150 165 279 99 169 251 257 267 288 287 287 257 486 745 1102 1282 1451 1492 1399 1422 1411 1344 1400 1357 1098 969 928 1212 947 1000 1251 1030 1035 1468 791 1300 1301 854 1158 992
140 3 2 18 46 260 405 346 352 186 182 273 131 208 312 331 338 435 386 442 492 535 619 916 1163 1251 1273 1024 1080 1179 1162 1113 946 714 620 807 1053 1129 1110 1003 747 816 976 984 378 845 900 1136 1193
154 18 16 54 15 137 375 409 407 309 365 322 294 396 340 400 402 477 525 571 603 608 684 784 954 1026 785 637 666 837 779 770 672 476 364 992 1240 1329 1047 873 830 1057 955 1024 692 760 915 1073 1151
1 0 7 19 6 22 441 467 475 332 502 484 380 461 433 442 494 468 545 596 598 590 647 753 731 780 568 308 342 393 449 605 584 518 560 816 1216 1102 977 839 930 1118 1020 941 903 948 992 974 827
0 0 3 8 11 9 19 266 516 347 534 508 373 362 425 473 493 532 592 661 640 552 573 639 593 534 413 235 292 283 359 782 864 785 787 905 1016 1086 1101 1103 1036 1089 1007 1040 938 987 740 245 71
0 0 0 0 0 0 1 0 373 407 501 558 460 365 420 414 462 508 576 644 682 487 597 630 685 535 455 365 357 409 434 948 1134 1183 1125 933 1126 990 958 881 811 1058 938 975 846 756 548 216 48
0 0 8 0 0 0 0 0 336 403 476 603 588 408 395 316 370 413 527 494 507 405 513 473 560 491 599 582 546 592 1083 988 739 798 1030 1052 1159 991 944 900 835 1208 1128 1014 802 710 452 250 0
0 0 7 4 0 0 0 0 421 390 404 630 574 518 473 370 363 355 439 472 405 312 400 341 449 404 436 640 649 701 996 761 774 891 818 973 1064 1106 1031 1004 919 1195 1299 1066 840 596 565 28 0
0 0 0 0 2 0 0 0 370 377 393 496 540 487 457 384 459 347 360 492 467 300 331 425 465 437 459 551 684 1042 1082 743 943 1270 1097 918 1163 1440 1296 867 1241 1266 1102 1090 754 544 345 0 0
0 0 0 0 0 0 0 0 262 345 348 347 304 388 357 362 304 267 268 399 425 387 382 347 553 613 481 573 688 927 801 690 554 1181 1123 899 1050 1498 1534 1017 929 1241 1031 962 780 256 16 0 0
0 0 0 0 0 0 0 0 95 230 264 248 199 180 142 219 160 117 220 384 459 368 337 445 528 587 557 580 735 765 712 680 735 839 1177 1003 1083 1009 1137 1178 1008 970 887 996 649 200 17 0 0
0 0 0 0 0 0 0 0 0 103 199 227 267 214 159 92 75 47 71 307 386 430 326 377 438 477 463 577 556 538 616 592 781 997 911 954 1294 1241 1051 1226 965 891 866 759 496 227 51 0 0
0 0 0 0 0 0 0 0 0 0 25 117 182 161 170 140 92 61 40 103 280 309 314 316 348 488 533 622 583 625 700 651 653 898 1038 1037 1138 1231 1140 1104 1125 902 739 571 588 258 5 0 0
0 0 0 0 0 0 0 0 0 0 0 0 35 23 36 90 83 65 69 68 134 229 238 307 326 485 581 557 690 777 780 747 669 739 754 974 1062 1246 1233 1209 1294 910 719 755 524 284 0 0 0
0 0 0 0 0 0 0 0 0 0 0 0 0 12 9 45 72 52 37 29 63 201 213 283 347 518 724 730 758 810 872 826 721 630 872 1357 1402 1394 1355 1278 1212 1075 797 474 426 59 9 0 0
0 0 0 0 0 0 0 0 0 0 0 0 0 5 7 25 79 54 17 16 21 90 198 326 362 433 844 926 881 848 892 871 807 666 477 788 1203 969 1313 1386 1241 1153 936 387 280 89 45 0 0
0 0 0 0 0 0 0 0 0 0 0 0 0 0 12 42 87 117 22 7 5 15 105 290 464 449 737 954 985 906 889 883 899 810 469 560 957 983 1075 1260 1097 1313 988 570 370 26 39 0 0
0 0 0 0 0 0 0 0 0 0 0 0 0 0 0 68 93 156 97 24 14 4 18 182 448 522 644 888 1013 1012 908 883 959 822 551 586 898 836 821 1147 927 1162 1008 701 473 127 28 0 0
0 0 0 0 0 0 0 0 0 0 0 0 0 0 0 2 112 184 186 87 23 37 13 239 493 565 644 820 917 991 1046 1089 1083 1076 843 969 1243 953 898 1052 882 935 927 691 446 288 240 3 0
0 0 0 0 0 0 0 0 0 0 0 0 0 0 0 0 29 126 158 167 72 51 32 312 554 710 670 903 916 897 891 950 1170 1378 1403 1249 1332 1179 1197 1199 1162 951 842 627 473 402 380 92 0

GFSSGP_con_mucape_042.txt.gz
CAPE
334 420 195 172 84 84 75 35 71 72 45 33 14 9 23 16 8 72 8 8 39 59 213 352 1376 1835 1676 1951 2226 1994 1845 1752 1837 2004 2055 2122 1940 1942 1881 1787 1772 1774 1796 1781 1675 1673 1577 1561 1554
420 362 117 163 107 53 57 49 68 80 39 67 0 0 0 1 3 0 15 0 62 148 326 354 1711 2160 1786 1917 2231 2218 1725 1746 1812 2015 2176 2065 1994 1891 1711 1615 1562 1557 1531 1518 1591 1569 1648 1587 1482
451 325 111 54 104 55 78 72 82 11 0 37 30 0 0 17 0 11 0 7 42 193 225 519 1855 2384 1660 1754 1974 2218 2279 1905 2214 2257 2053 1995 1887 1762 1633 1587 1544 1625 1683 1601 1441 1353 1377 1420 1393
773 488 147 78 83 99 62 95 75 0 0 0 0 4 8 5 1 0 0 27 71 247 376 1141 1706 1653 1620 1857 1957 2132 1924 1790 1732 1967 1985 1858 1773 1678 1649 1671 1711 1758 1986 1702 1600 1620 1526 1377 1363
565 121 15 47 35 72 78 113 50 31 15 17 17 10 23 38 22 0 13 44 132 374 611 1031 2074 2015 1783 1772 1943 1896 1913 1872 1788 1737 1880 1821 1688 1626 1602 1629 1757 1869 1904 1648 1386 1410 1453 1498 1470
168 105 27 37 57 90 131 113 107 78 35 0 0 5 84 48 8 20 35 68 250 451 731 1061 1627 1842 1674 1665 1675 1690 1807 1886 1899 1725 1804 1860 1631 1574 1490 1485 1596 1779 1741 1667 1408 1283 1312 1426 1488
80 0 25 18 81 89 193 149 151 62 0 7 32 51 101 29 28 45 85 179 315 675 781 968 944 1198 1457 1568 1613 1640 1747 1874 1963 1933 1832 1866 1728 1510 1449 1466 1540 1537 1543 1621 1653 1695 1463 1464 1681
106 32 36 50 160 163 243 237 204 1 50 0 19 18 73 73 69 105 178 279 581 843 853 1037 1016 1063 1131 1239 1532 1517 1722 1815 1938 1906 1746 1809 1769 1645 1596 1777 1701 1869 1590 1502 1647 1586 1441 1554 1707
430 96 14 94 143 185 287 286 214 141 26 20 91 15 34 99 116 144 218 344 676 830 892 1078 1167 1055 1169 1278 1400 1772 1690 1802 1827 1716 1834 1871 1531 1309 1675 1783 2141 2077 1671 1788 1523 1752 1704 1158 1878
201 35 49 107 140 365 356 286 164 163 0 127 165 112 117 118 143 142 160 172 405 602 901 1038 1231 1186 1291 1604 1538 1468 1230 1412 1610 1518 1410 1655 1408 1021 1443 1872 2206 2365 2045 1967 1592 1654 1733 1308 933
3 25 30 70 126 298 399 348 211 109 12 128 113 153 220 182 158 144 137 144 210 446 780 1101 1213 1328 1356 1580 1589 1465 1229 1317 1452 1295 1067 926 1207 860 864 938 960 733 948 1221 1279 1135 1065 1240 1183
24 42 9 11 41 276 410 378 274 129 37 186 128 177 211 186 184 149 128 103 95 291 661 985 1126 1298 1262 1410 1380 1360 1236 1172 1136 910 621 569 670 801 936 993 723 710 802 1125 440 984 801 989 1074
71 128 36 17 16 248 367 377 307 207 294 165 146 225 211 207 207 178 164 179 93 271 408 757 940 1250 1111 1143 1043 1051 1039 938 828 622 383 519 842 960 1117 993 748 781 905 1193 852 756 756 973 1008
10 9 1 13 23 133 354 366 318 293 304 177 219 209 221 220 245 288 292 302 280 283 333 513 766 987 1043 1020 755 626 726 581 543 430 224 419 885 1030 1075 938 726 821 913 1035 756 953 973 842 717
0 0 0 4 7 7 301 338 388 376 373 294 251 255 262 244 269 393 417 395 449 379 379 466 540 738 812 643 473 224 322 364 349 375 372 518 665 956 1052 889 807 870 865 1019 836 924 618 339 69
0 0 0 1 22 29 383 255 458 444 442 345 368 345 307 317 367 373 476 469 495 438 458 445 544 480 563 439 170 96 111 143 461 776 766 669 793 936 1068 932 1030 902 899 974 825 724 678 317 145
0 0 0 0 1 2 123 11 55 455 462 372 280 344 375 353 416 436 449 508 511 486 443 371 447 413 362 322 130 76 260 310 540 875 999 1095 1047 875 1003 817 764 727 952 801 762 578 520 173 55
0 0 0 0 0 0 0 0 14 365 420 408 277 235 333 362 390 436 453 486 519 525 553 303 425 394 283 137 103 234 306 651 996 702 654 833 935 966 944 840 806 970 1070 1120 870 621 424 392 0
0 0 0 0 0 0 0 0 194 310 403 439 341 225 265 274 251 299 343 421 468 546 575 380 403 352 276 264 294 390 424 517 948 629 761 620 798 1203 1008 931 922 888 1085 1065 1022 658 401 110 0
0 0 0 0 0 0 0 0 220 246 338 450 429 394 243 197 198 140 204 264 367 346 459 385 345 350 318 261 351 461 482 500 814 668 979 1006 800 1131 1035 975 858 997 1014 796 859 581 116 12 0
0 0 0 0 0 0 0 0 126 244 231 309 394 400 351 274 241 151 120 199 345 306 271 316 258 227 305 208 240 459 632 697 896 820 827 899 820 1040 1419 1230 1188 769 908 802 743 652 139 4 0
0 0 0 0 0 0 0 0 0 114 220 173 239 355 348 303 187 126 144 154 212 332 300 182 197 224 215 338 231 382 521 681 841 764 581 949 892 814 1088 1241 1081 944 756 659 746 511 181 7 0
0 0 0 0 0 0 0 0 0 4 124 166 168 160 188 236 171 106 90 101 152 194 242 231 192 229 232 312 422 395 472 559 600 472 490 704 935 1003 1041 1052 958 1061 725 647 699 365 240 13 0
0 0 0 0 0 0 0 0 0 0 24 76 103 142 158 146 128 99 58 42 47 131 195 149 233 229 304 304 400 497 453 463 428 511 556 691 713 791 1020 1110 1036 952 818 607 539 424 285 2 0
0 0 0 0 0 0 0 0 0 0 0 0 3 33 108 168 188 151 67 36 27 101 205 212 208 275 331 364 343 387 425 480 434 569 552 490 686 820 899 1050 1064 990 1083 695 559 483 270 0 0
0 0 0 0 0 0 0 0 0 0 0 0 0 0 3 4 58 119 151 38 0 35 140 136 161 229 279 317 327 393 444 488 458 614 621 437 512 715 1065 1112 1138 1175 1131 833 678 429 232 6 0
0 0 0 0 0 0 0 0 0 0 0 0 1 0 0 0 0 2 37 67 31 8 69 115 114 161 208 405 436 459 494 510 509 638 716 656 476 920 1148 1263 1272 1277 1189 937 780 269 190 39 19
0 0 0 0 0 0 0 0 0 0 0 0 0 0 0 0 0 0 12 28 11 26 24 94 90 133 161 445 529 554 561 526 584 653 751 715 613 499 771 1006 973 1274 1293 965 881 384 346 35 25
0 0 0 0 0 0 0 0 0 0 0 0 0 0 0 0 0 0 6 33 46 9 3 31 97 160 158 539 657 714 681 632 620 667 710 759 751 602 455 763 897 1047 1204 941 993 620 507 88 30
0 0 0 0 0 0 0 0 0 0 0 0 0 0 0 0 0 0 0 4 54 68 13 2 36 199 256 338 717 801 799 713 668 671 670 722 821 752 432 693 903 844 1095 809 998 790 573 249 178

GFSSGP_con_mucape_048.txt.gz
CAPE
134 257 401 725 423 364 263 257 318 318 358 216 82 153 59 160 85 523 88 17 82 304 324 726 1652 1750 2066 2420 2612 2431 2210 2022 2159 2137 2349 2103 2010 2129 2072 1994 2018 2070 1853 1692 1728 1691 1747 1631 1596
405 289 672 470 623 347 357 315 337 423 307 204 100 95 123 49 32 40 287 16 115 277 687 1066 1547 2074 2068 2310 2452 2384 1830 2059 2233 2344 2088 2020 1887 1803 1683 1692 1585 1550 1589 1718 1825 1736 1501 1412 1318
412 416 290 277 361 331 281 378 453 385 137 94 95 165 238 91 73 158 101 68 408 464 600 1090 1921 2461 2080 1954 1972 1956 1889 2156 2228 2077 1991 1895 1827 1723 1761 1822 1775 1788 1597 1501 1520 1508 1514 1445 1380
858 823 638 727 277 343 354 413 292 206 96 88 127 240 58 94 142 291 138 258 337 484 769 1450 2358 1913 2008 1886 1853 1934 2138 2224 2066 1966 1897 1793 1791 1824 1929 1616 1636 1812 1771 1703 1679 1573 1458 1342 1291
1129 673 600 627 265 382 510 396 294 242 198 149 150 73 57 63 119 285 204 213 453 451 635 1326 2290 2395 2181 2218 2009 1882 2046 2081 2067 1916 1789 1779 1793 1825 1892 1677 1907 1875 1593 1550 1593 1500 1500 1364 1404
948 542 348 185 230 296 577 411 307 207 143 89 87 25 174 199 172 259 313 302 394 372 273 946 1990 2265 2060 2218 1878 1780 1728 1790 1927 1886 1795 1740 1707 1659 1640 1767 1806 1799 1643 1432 1334 1347 1406 1384 1398
765 320 205 224 230 398 627 443 379 115 122 125 136 212 296 214 216 200 327 352 374 372 264 712 956 1620 1927 1986 1835 1856 1816 1770 1775 1855 1854 1681 1527 1484 1535 1528 1712 1519 1523 1549 1584 1476 1380 1449 1513
572 237 199 99 126 168 687 606 475 93 149 146 170 194 353 371 240 277 296 370 519 483 362 619 879 1067 1264 1403 1714 1752 1788 1902 1917 1801 1740 1723 1567 1600 1824 1854 1778 1652 1525 1430 1483 1459 1369 1231 1620
476 456 241 155 265 368 690 584 341 133 155 123 180 270 333 304 216 259 389 341 406 539 437 401 591 925 1007 1005 1382 1656 1762 1838 1862 1886 1691 1605 1897 1983 1985 1391 1874 1710 1689 1711 1724 1648 1760 1272 1912
780 702 163 157 272 539 684 596 590 209 131 168 283 315 309 369 275 381 469 571 742 665 473 350 362 653 916 564 1266 1132 932 915 1277 1631 1747 1962 1996 2046 1762 1856 1848 1731 1800 1679 1737 1960 1845 1905 1599
583 500 104 86 167 382 783 735 668 309 109 236 280 410 369 451 521 549 546 658 830 620 365 271 380 634 637 486 928 1022 818 1019 1395 1907 1909 1743 1808 2049 1890 1716 1991 1980 1674 1999 1796 1774 1489 1440 1424
321 320 124 110 144 193 602 757 755 425 74 117 388 419 399 477 522 478 509 592 700 676 438 371 592 836 782 684 793 878 428 701 781 1122 1575 1702 1810 1933 2133 1830 1866 2162 1944 1619 1802 1995 1741 1491 1544
175 271 267 219 166 133 277 624 790 601 256 221 429 432 440 459 478 481 467 449 583 663 586 689 885 1153 1103 1135 754 834 582 384 349 853 1179 1229 1573 1996 2099 2468 1866 1792 1826 1449 1645 1430 1468 1313 1427
12 83 214 167 57 111 601 712 822 820 579 469 450 484 496 459 482 456 347 350 506 519 563 737 946 1190 1294 1339 1448 1416 1104 394 511 493 788 1155 1472 1807 1893 1643 1720 1548 1797 2095 1919 1617 1695 1451 1448
1 27 45 1 14 238 525 768 841 980 808 634 606 561 510 511 531 520 346 348 385 355 385 605 876 1109 1547 1570 1706 1518 737 455 271 226 653 1038 1484 1969 2691 1943 1852 1530 1943 1395 1380 1309 1192 825 116
0 0 0 2 19 96 361 264 691 995 965 857 701 561 536 528 533 524 372 332 285 283 429 610 639 907 1557 1640 1601 1062 583 327 147 194 660 1157 1484 2015 2537 2080 1819 2028 2097 1384 1026 1049 1305 428 91
0 0 0 23 40 99 232 224 425 915 1007 1056 851 720 526 536 496 520 389 321 298 338 439 665 825 773 1204 1559 1490 1182 775 571 164 441 834 1349 1898 2220 2671 2054 1880 2593 1719 1800 1667 1663 1112 677 229
0 0 1 52 24 63 171 180 94 608 802 982 955 870 638 475 465 461 456 373 386 394 484 738 781 982 1321 1216 1502 972 556 363 202 639 1023 1708 2394 2608 2859 2377 2375 2568 1624 1409 1657 1313 1146 679 399
0 0 0 0 3 1 35 57 29 46 628 784 1019 1006 841 478 378 368 443 414 413 503 713 897 1014 1982 1551 1336 1016 716 384 432 463 1067 1681 2291 2623 2763 3116 2369 2457 2327 1743 1312 1509 1224 1279 846 339
0 0 0 0 0 0 2 4 0 0 461 672 992 1083 1046 767 395 389 473 444 482 690 924 1302 1464 1832 1994 1337 1194 653 538 294 664 1267 1791 2444 2394 2778 2819 2772 2058 2387 1776 1503 1452 1387 1018 529 13
0 0 0 0 0 0 0 0 0 0 92 458 768 1021 1025 977 618 495 520 583 499 636 904 1262 2066 2171 2045 1873 1169 874 541 803 911 1345 1709 2319 2480 2490 2772 2437 2365 2406 2016 1571 1705 1704 1534 435 148
0 0 0 0 0 0 0 2 8 0 72 306 582 884 1004 1009 888 423 430 662 449 578 846 1403 2004 2310 2297 1858 1524 2154 559 468 577 1437 1361 1470 2065 2166 2272 2373 2395 2901 1956 1714 1831 1726 1518 1352 54
0 0 0 0 0 0 0 0 0 0 0 251 491 788 876 976 940 672 390 412 587 753 1005 1292 2146 2676 2702 2582 2383 1662 1612 288 749 1303 2595 3271 2898 2393 2081 2231 2094 2560 2710 2247 2498 1995 2096 971 325
0 0 0 0 0 0 0 0 0 0 3 26 246 556 833 814 847 961 435 327 618 820 1073 1303 2323 3530 3003 2515 2231 3038 2752 1784 1358 2112 1831 1891 1862 1840 2495 2212 2554 2834 2761 2573 2689 2431 2056 1628 826
0 0 0 0 0 0 0 0 0 0 0 0 11 180 652 917 847 921 959 518 520 711 1018 1459 2754 3524 3142 2515 2476 2696 2883 3013 3030 2711 2036 2557 1409 1332 2273 2524 2496 2685 3053 2667 2806 2719 1951 1967 1345
0 0 0 0 0 0 0 0 0 0 0 0 0 1 543 771 964 931 1076 1010 818 762 1757 2044 2829 3269 2625 2565 3310 3453 3643 1945 1845 2506 1737 1639 1535 1246 1637 2010 2396 2751 2560 2949 2926 2613 2171 1732 1670
0 0 0 0 0 0 0 0 0 0 0 0 0 0 0 237 824 1040 1037 1140 1195 1201 1844 2522 3020 3455 3331 2620 3615 3608 3384 3267 2229 3138 3234 2047 2801 1535 1650 1858 2359 2411 2643 2919 3017 2631 2401 1746 1840
0 0 0 0 0 0 0 0 0 0 0 0 0 0 0 0 322 853 1099 1145 1390 1328 1556 2230 2959 3462 3412 3046 3080 2769 3198 3385 3410 3557 3535 3421 3307 2958 2022 2129 2101 2434 2642 2945 3145 2748 2583 2232 1623
0 0 0 0 0 0 0 0 0 0 0 0 0 0 0 0 141 836 1001 1074 1272 1372 1347 1685 2292 2927 2835 2933 3084 3264 3139 2788 3189 2976 3599 3705 3763 3824 3255 2983 2433 2222 2688 3187 3314 3216 2556 2424 1986
0 0 0 0 0 0 0 0 0 0 0 0 0 0 0 0 3 364 650 935 1046 1213 1308 1406 1614 1856 2077 2674 3259 3331 3424 3332 3080 3317 3440 3649 3719 4009 4022 3452 3142 2733 2586 3320 3272 3074 2476 2491 2153

GFSSGP_con_mucape_051.txt.gz
CAPE
71 89 176 264 1273 826 274 241 148 232 213 262 180 185 498 417 418 400 32 36 15 142 245 803 1699 2067 2257 2803 2809 2650 2352 1995 2130 2253 2157 2012 2187 2159 2069 2028 2203 1878 1797 1857 1825 1867 1730 1634 1524
67 302 489 720 1019 334 371 180 186 296 354 400 284 152 234 78 129 110 63 58 185 152 490 1124 1981 2397 2404 2412 2470 2391 1947 1990 2117 2126 1986 1876 1767 1648 1583 1494 1493 1666 1866 1965 1821 1624 1488 1396 1449
501 507 685 854 788 367 144 170 219 281 274 240 263 238 337 216 261 252 7 285 173 680 944 1623 1943 2595 2044 1956 2168 2338 2403 2320 2104 2024 1881 1780 1687 1777 1873 1776 1826 1655 1523 1532 1592 1592 1478 1385 1333
788 860 729 556 221 250 107 180 168 231 180 218 242 262 358 171 490 376 64 224 382 811 1029 1565 2201 1902 2047 1798 1898 1876 2128 2204 2009 1948 1803 1790 1789 1712 1675 1804 1935 1807 1709 1711 1581 1443 1286 1245 1269
893 1207 927 508 158 258 133 131 152 175 235 232 264 320 151 143 345 81 210 342 538 724 763 1394 2395 2437 2203 1908 2122 2243 2238 2031 2004 1834 1803 1841 1831 1840 1818 2016 1895 1668 1601 1615 1577 1486 1471 1499 1461
965 970 734 82 117 268 122 114 135 106 198 227 405 408 399 182 32 66 269 300 512 520 465 924 2225 2419 2530 1849 1914 1939 2033 2030 1867 1757 1763 1701 1670 1648 1732 1836 1879 1728 1523 1400 1361 1377 1417 1386 1672
751 952 354 361 77 311 80 123 180 91 201 398 201 435 467 422 207 217 268 399 355 95 277 813 1218 1719 2265 1829 1727 1664 1707 1803 1816 1717 1669 1535 1490 1526 1529 1664 1643 1542 1575 1568 1500 1385 1383 1519 1701
708 639 279 87 65 93 103 241 6 59 318 316 667 664 573 504 286 263 291 231 157 102 311 631 854 1072 1447 1559 1770 1777 1849 1766 1728 1679 1623 1544 1519 1643 1604 1714 1725 1540 1435 1471 1423 1380 1410 1587 1801
620 730 455 17 94 40 98 51 118 65 225 284 371 645 683 439 274 292 263 242 428 149 213 336 606 873 887 855 1402 1728 1808 1825 1763 1676 1639 1764 2064 2176 1936 2126 1788 1677 1750 1694 1745 1806 1636 1538 1968
631 706 143 44 52 58 132 29 11 61 119 185 491 773 588 500 287 265 305 305 420 225 170 167 296 556 742 469 1024 803 855 1046 1821 1874 1938 1941 2277 2029 1541 1811 1910 1787 1854 1637 1805 1952 2004 1812 1836
232 292 387 11 37 135 48 58 26 36 108 163 554 839 592 595 365 433 343 451 658 392 168 112 316 645 589 1042 676 709 725 918 1549 1957 1940 2166 2140 2196 1905 1862 1595 2046 1786 1892 2151 1109 1346 1838 1286
85 326 214 140 185 213 197 84 80 62 34 87 481 717 698 683 690 770 646 746 712 521 254 161 397 1059 733 724 639 491 490 785 1086 1760 2113 2025 1891 1646 1949 1899 2206 2652 2373 2010 2331 1177 1689 1521 1464
65 210 218 233 254 193 194 209 188 121 39 56 436 697 789 764 807 803 736 789 749 599 318 267 483 1163 964 926 611 499 417 442 474 1299 1670 1395 1448 2217 1661 2076 1831 1740 2034 1873 1702 2168 1713 1925 1751
36 107 328 298 243 177 145 304 690 458 277 257 425 680 759 822 888 781 683 674 751 559 392 371 612 1070 1160 1435 1183 853 731 379 378 538 1172 1483 1521 2026 2552 1840 2456 2206 1983 1509 1787 1859 1496 1709 1239
65 109 273 346 249 190 228 262 303 592 505 631 376 636 667 749 775 742 684 584 574 600 521 601 784 1018 1305 1353 1465 1374 849 513 321 326 833 1159 1481 1775 2216 1968 2371 2519 2647 1875 2200 1539 2346 608 323
25 129 217 271 178 133 147 378 281 1018 759 783 569 416 582 664 701 712 635 535 548 551 651 733 615 839 1290 1625 1575 1193 615 329 239 144 556 1278 1652 2157 2598 2566 2404 3158 2152 1356 1022 1079 479 490 85
0 2 3 106 108 138 164 66 35 946 909 964 879 449 460 577 606 678 560 470 462 539 566 712 739 626 1172 1874 1673 1380 1674 576 222 100 485 1873 1743 1889 2573 2401 1774 2521 1645 2445 1534 1221 1726 766 51
0 0 11 53 121 132 130 131 159 644 758 1020 1004 813 505 486 513 580 563 433 407 461 592 1018 795 1905 2677 1800 2155 1084 566 530 254 168 595 1758 2000 2269 2768 2307 2078 2161 1879 1861 1590 1620 930 605 61
3 0 1 72 98 153 144 182 244 464 596 799 1124 1115 775 533 387 442 454 355 332 394 629 1358 1721 2780 1921 1275 1184 981 519 632 243 235 1187 1515 2053 2482 2191 2148 2284 1831 2201 1608 1484 1283 1329 1255 179
0 4 7 47 87 133 135 137 184 167 322 435 812 1106 1102 734 486 353 418 324 301 468 1246 1988 2373 3249 2581 1532 1793 945 1059 245 262 350 1972 1881 2220 2597 2896 2828 2048 1264 1512 1952 1331 1244 1409 92 12
0 0 0 18 49 113 53 68 89 102 40 346 516 1003 1090 1054 663 320 385 326 281 678 1374 1893 2748 3037 2880 2458 2023 1794 1246 1152 422 578 1137 1820 2191 2336 2857 2684 1816 2233 2301 2255 1959 1560 1498 990 20
0 0 0 0 35 104 28 69 49 70 26 131 494 832 1057 1142 987 495 259 350 341 556 839 2111 3126 3408 3148 3409 1915 2079 795 406 309 615 866 1579 2539 2343 2287 2677 2151 2236 2138 2882 2314 1541 1585 1428 144
0 0 0 0 1 9 25 54 67 53 63 83 264 478 749 1057 1068 801 320 311 327 346 474 1488 3182 3599 3548 3546 2880 1749 1653 311 349 479 2249 2652 3642 3210 1956 2805 2875 2584 1860 2825 1835 2237 2066 1558 790
0 0 0 0 0 0 0 10 13 51 121 125 162 244 536 880 943 965 539 245 336 298 391 931 2862 3917 4146 4159 3575 3584 2555 1796 358 982 1132 1499 1613 1963 3305 2393 3552 3725 3047 3070 2849 2652 2343 2423 968
0 0 0 0 0 0 0 0 0 4 21 47 140 224 437 695 906 984 817 394 325 531 604 945 2794 3954 4250 4189 3859 3301 3673 3273 2750 2919 1542 2282 1226 1179 2775 3839 4123 2798 4098 3268 3694 3881 3051 2407 1911
0 0 0 0 0 0 0 0 0 0 0 3 26 120 242 644 795 948 1074 615 578 835 1300 1695 2783 3851 4179 4111 4178 4191 3891 2248 1959 2236 1866 1602 1352 1251 3258 4245 3274 3368 3613 3446 4103 2850 2595 3063 2163
0 0 0 0 0 0 0 0 0 0 0 0 0 5 115 366 636 861 1012 1015 649 1122 1816 2243 2905 3799 4175 3997 4190 4303 4150 3693 2466 2538 3252 1886 3021 1360 2139 2640 3178 3419 3611 4006 4322 2662 3558 2975 2711
0 0 0 0 0 0 0 0 0 0 0 0 0 0 13 314 625 709 870 1163 1407 1010 1729 2320 2804 3851 3976 3993 4076 4143 4206 4142 3632 3450 3619 3179 2983 3684 2976 3131 2956 3309 3822 4043 4491 3355 3616 3826 2467
0 0 0 0 0 0 0 0 0 0 0 0 0 0 0 78 501 651 589 1010 1530 1306 1178 2021 2842 3405 3958 4050 4050 4165 4109 4078 4204 3753 3888 3854 4379 4385 3915 4176 3516 3498 3708 4139 4523 4215 3820 4029 3665
0 0 0 0 0 0 0 0 0 0 0 0 0 0 0 0 42 164 501 946 1155 1631 1427 1597 1916 2412 3660 3726 3955 4029 4100 4107 4033 4129 3821 4196 4146 4498 4581 4078 4321 3726 3615 4104 4431 4036 2922 3857 3707

GFSSGP_con_mucape_054.txt.gz
CAPE
20 6 47 289 505 517 279 187 215 224 226 334 159 474 313 386 396 93 1 0 0 25 395 1084 2318 2660 2769 2601 2489 2526 2535 2335 2180 2212 2200 1956 2066 2492 2354 2302 1961 1989 1962 1985 1958 1680 1612 1508 1441
8 57 401 565 447 6 218 186 185 170 176 181 254 106 210 157 2 13 8 0 0 29 204 987 2016 2399 2294 2750 2775 2695 2119 2152 2376 2576 2432 2146 2093 2038 1499 1524 1781 1977 1880 1854 1644 1599 1509 1491 1450
89 372 463 687 659 137 110 248 213 162 216 216 308 367 306 192 5 10 0 0 35 146 995 1712 1937 2294 2657 2656 2658 2589 2377 2221 2510 2352 2026 1964 1973 1934 1847 1782 1583 1522 1603 1672 1645 1550 1470 1393 1371
845 693 729 489 61 92 44 118 115 162 221 243 242 280 229 56 46 0 0 177 116 575 888 1594 1980 2183 2380 2516 2569 2538 2067 2511 2461 2133 1735 1805 1829 1764 1850 1939 1855 1732 1696 1574 1464 1380 1317 1304 1376
723 1053 775 402 67 63 111 184 171 127 270 415 398 208 213 170 0 31 58 37 242 503 979 1614 2347 2433 2446 2468 2535 2284 2454 2337 2327 1966 1824 1826 1872 1836 2063 1871 1738 1698 1679 1630 1542 1534 1517 1480 1342
1005 1136 129 0 42 121 75 158 76 195 394 493 336 234 311 604 0 117 92 209 470 663 827 1325 2045 2571 2531 2516 2222 2537 2284 1952 2044 1833 1769 1702 1701 1796 1894 1907 1771 1554 1444 1404 1419 1461 1462 1581 1634
523 714 463 108 128 179 80 116 31 37 197 546 368 283 261 240 58 173 295 515 418 169 802 1230 1054 1867 2313 2455 2028 2115 1931 1789 1718 1688 1631 1595 1575 1599 1712 1700 1653 1585 1547 1490 1412 1389 1477 1562 1757
95 208 434 140 119 99 93 27 12 269 263 445 460 342 124 91 80 365 385 369 261 136 472 1178 1279 2024 1619 1474 1911 1658 1698 1734 1660 1615 1541 1475 1494 1536 1510 2216 1952 1463 1425 1493 1461 1408 1583 1518 1892
98 220 329 240 163 139 114 54 65 45 624 720 685 455 123 62 249 230 398 182 215 281 391 515 729 1749 1420 1546 1549 1792 1692 1676 1580 1542 1546 1775 1953 1926 1908 2287 2281 1686 1600 1551 1686 1643 1324 1676 1875
76 193 437 411 14 33 40 67 33 16 90 540 703 570 256 243 393 167 285 153 100 204 309 394 412 774 1111 357 1568 1797 1384 1404 1747 1741 1299 1607 2255 2249 1575 1765 2659 2246 2139 1746 1690 1770 1534 1735 1680
147 196 133 181 6 52 19 20 16 23 43 866 768 580 310 363 313 268 194 351 384 60 117 205 651 1030 725 972 1241 1240 1140 1529 1898 2420 1066 1734 1432 2070 1960 1855 1732 2030 2099 2004 1152 923 1005 1880 1865
130 52 16 65 68 61 33 24 27 13 66 565 670 546 439 470 351 284 272 308 516 159 174 257 1125 1596 1670 1492 870 1065 975 1278 1790 2390 2613 3222 2788 1987 941 1451 1683 1315 1765 1300 969 869 1269 1406 1189
56 98 255 209 258 275 78 33 24 30 39 376 673 539 539 505 458 392 365 416 816 437 280 534 1408 2102 2530 2332 1281 889 1583 1155 1338 2335 2585 2402 1250 1369 2131 1605 1008 1888 1097 1024 925 2114 1615 799 920
62 79 190 192 220 333 300 134 19 5 0 264 605 575 614 508 671 726 680 785 752 757 507 717 1416 1887 2177 2504 3589 2328 2313 1189 1728 1789 2186 2066 2277 2183 854 2270 1704 1851 1691 1314 1738 2646 2385 2615 2074
30 39 58 183 196 222 144 153 182 16 24 56 442 560 635 792 661 912 1012 947 870 923 637 809 1006 1511 2194 2422 2552 2270 2189 970 1162 1855 2655 1989 2490 3086 3010 1855 1976 2427 2529 2784 2502 2603 1242 357 1204
10 26 62 41 298 323 186 182 97 134 271 169 250 425 563 716 608 1206 1059 977 1060 429 765 1077 303 1147 1772 2131 2498 2170 1697 1328 1617 1300 1630 2334 2478 2950 3108 1868 1818 2010 1988 1105 2322 1137 1791 1455 619
30 28 60 117 105 160 91 136 117 140 345 471 278 292 424 691 804 848 543 735 718 721 1069 1068 1013 1128 1631 2383 2310 2031 2132 2255 1813 1418 1795 2517 2751 2965 2809 1428 730 954 1293 1789 1928 853 2407 1314 978
19 3 49 71 95 184 93 188 57 140 83 291 368 324 466 472 522 743 522 500 534 947 1417 1181 1297 2154 1979 2048 2475 1939 1813 1691 1535 1746 1609 2794 2978 3024 2762 2061 1186 2182 2204 1632 2078 1932 1917 1549 781
5 0 0 17 7 109 76 244 82 75 52 228 498 380 234 342 542 652 558 597 697 889 1380 1353 2016 2443 2036 2005 1836 1830 1171 1581 1722 1737 2056 3144 3345 3492 3189 2711 2384 2629 2260 2774 2661 2443 2225 357 488
0 0 0 0 53 45 71 364 108 75 109 323 383 456 465 335 365 665 681 590 582 872 1203 1562 1853 2318 2470 1878 1902 1574 1830 1272 1059 1387 2230 2919 2931 3590 3587 3010 2406 3221 1660 2205 2735 2232 1143 1717 842
0 0 0 1 78 20 87 90 202 304 806 794 571 737 702 640 478 568 674 622 556 887 1305 1600 1824 2823 2439 2126 2234 2671 2321 2398 1470 1186 1417 2348 2955 3531 3311 3249 2749 2893 3205 2540 2621 2501 2203 421 494
0 0 0 11 99 73 76 107 385 166 224 363 573 703 715 840 764 361 504 572 582 820 1171 1708 1959 2359 2381 2548 1823 2067 1100 904 713 1276 1332 2168 2755 3043 3686 3441 3382 3279 2712 2453 2426 2885 2708 2574 1212
0 0 0 2 1 11 76 84 33 82 113 63 242 645 556 933 830 587 362 477 514 701 1160 1472 2093 2191 2572 1936 2474 1752 1584 905 1445 1245 1758 2751 3189 3122 3091 3552 3546 3775 3000 2758 2133 2753 2749 3173 1662
0 0 0 0 0 1 0 9 88 47 147 128 79 328 753 605 994 899 536 487 456 606 1011 1436 2211 2316 2543 2698 2177 3014 1743 1685 703 1431 1570 2315 2404 2881 3270 3410 3537 3378 3125 3260 2922 2887 3047 2959 2806
0 0 0 0 0 0 0 0 1 60 104 79 124 282 500 952 1091 1117 845 508 565 639 806 1168 2328 2694 2705 2875 2694 2167 3209 1812 2006 2473 1544 1728 2016 2054 2523 2985 3875 3411 3491 3662 3425 3532 3706 3344 3081
0 0 0 0 0 0 0 0 0 0 28 116 226 219 275 562 1165 1259 1177 693 611 601 863 1123 2107 2639 2961 2709 3290 2828 2665 2989 1489 1720 1707 1290 2113 1792 3217 2790 2857 3407 3543 3209 3874 3956 3317 3398 3126
0 0 0 0 0 0 0 0 0 0 0 3 0 236 359 411 918 1172 1376 873 663 689 911 965 1815 2464 2838 3027 3305 3499 2683 2433 2738 1691 2118 2696 2291 1876 4660 3126 3076 3350 3657 3643 3283 3416 3478 3530 3085
0 0 0 0 0 0 0 0 0 0 2 0 0 0 185 424 713 1051 1242 1147 813 703 921 985 1688 2313 2889 3162 3232 3322 3539 2572 2177 2923 1934 1747 2692 4180 4304 3503 3392 3302 3226 3591 3502 3366 3543 3246 3079
0 0 0 0 0 0 0 4 18 45 0 2 0 0 1 358 586 870 1122 1391 1091 818 871 1089 1246 2490 2964 3288 3451 3400 3391 3541 2873 2184 2688 2278 2700 2809 3459 4057 3337 3158 3233 3253 3694 3475 3274 3351 3223
0 0 0 0 0 0 0 1 0 10 5 0 0 10 0 47 532 878 1177 1354 1467 1265 1078 1271 1477 1797 2924 3391 3513 3478 3565 3632 3521 2873 2720 2814 3059 3919 3355 3722 3893 3182 3016 3145 3469 3331 2752 3511 3376

GFSSGP_con_mucape_057.txt.gz
CAPE
13 3 26 178 131 178 134 137 182 224 179 309 180 243 265 149 109 2 0 0 0 197 757 1428 2076 2146 1728 2250 2415 2131 1957 2069 2416 2026 2217 2160 2077 2215 2047 2073 2132 2032 2070 1973 1523 1571 1556 1510 1546
8 36 284 454 539 3 36 159 245 275 278 129 119 173 119 10 83 6 0 0 28 182 1132 1588 2452 2380 1960 2194 2465 2452 2009 1937 2361 2436 2255 1807 1562 1591 1810 2037 2052 1912 1769 1696 1678 1613 1544 1509 1312
36 107 299 311 162 10 64 125 161 194 285 309 266 114 107 8 1 0 0 0 13 274 1021 1524 2471 2718 2342 2411 2410 2640 2233 1991 1995 1974 1862 1946 1880 1847 1588 1441 1601 1814 1833 1721 1589 1514 1507 1469 1482
129 384 301 343 64 107 78 117 227 361 362 232 143 93 0 0 0 0 0 0 113 873 1173 1936 2101 2416 2436 2452 2378 2098 2069 2084 2090 2024 1934 1950 1881 1882 1965 2050 1648 1616 1587 1542 1517 1459 1405 1467 1470
510 274 152 76 38 75 120 210 271 284 352 261 208 38 0 0 0 0 0 20 510 858 1253 1520 2546 2764 2462 2506 2062 2179 2044 1945 2017 2149 1922 1914 1884 2098 1831 1767 1749 1757 1702 1573 1486 1469 1458 1431 1737
572 52 43 72 6 72 93 154 326 404 405 393 116 73 61 0 0 7 41 172 545 834 1253 1256 2045 2492 2635 2199 1859 2338 2070 1765 2035 2249 1828 1878 1960 2187 2573 1740 1625 1575 1587 1612 1637 1598 1720 1842 1658
523 311 64 8 56 85 130 89 397 506 371 203 223 255 96 0 0 0 35 120 535 871 1022 1191 1340 1278 2008 2410 2095 2082 1800 1728 1779 1802 1724 1644 1654 1775 1883 1909 1856 1641 1604 1492 1490 1623 2080 2049 1790
405 293 96 162 169 183 77 40 424 534 410 226 170 225 174 11 0 8 80 267 340 751 863 1023 1196 1361 1776 1793 1971 1889 1778 1728 1704 1653 1582 1539 1497 1516 1691 2261 2163 1515 1567 1562 1514 1620 1941 1942 1984
447 257 20 184 179 140 26 102 191 432 494 496 401 309 153 8 12 111 183 188 331 424 455 722 1433 1088 1076 1135 1319 1806 1722 1845 1740 1617 1612 1785 1237 1258 1347 1780 2390 1654 1634 1610 1653 1893 1818 1906 1877
401 34 184 217 186 96 47 28 304 488 633 615 545 179 31 61 142 201 280 125 96 178 482 417 1213 922 787 962 1238 1247 1355 1415 1308 1238 1025 1059 1235 1313 1622 1973 2606 2167 1808 1835 1982 1867 1813 1545 1352
34 30 98 4 50 113 11 39 42 535 579 491 140 122 175 222 147 168 217 51 0 59 282 152 864 701 657 694 971 1144 1131 1155 1189 384 639 850 1403 1410 1432 1306 1574 1396 1080 26 688 548 395 1429 1467
16 68 56 41 95 27 26 33 29 299 682 586 135 93 267 202 155 230 59 1 0 7 57 39 332 556 362 204 531 861 787 838 1312 1018 843 879 977 1158 883 1097 1523 1108 741 503 830 618 873 920 1244
12 44 30 82 98 87 114 35 35 857 750 557 291 279 304 251 153 197 108 45 20 0 3 5 97 538 353 171 308 625 556 555 1155 1453 1260 1337 843 753 1132 949 927 836 771 817 845 1047 1069 954 642
0 20 75 57 18 186 272 111 57 824 658 524 418 348 328 275 291 132 152 81 6 0 0 148 67 975 868 710 1032 1198 450 573 1324 1324 1198 1099 697 920 1150 1339 1000 1192 902 386 1036 1150 905 1090 663
2 5 107 108 86 142 212 211 118 180 556 487 470 401 330 326 343 232 195 113 360 94 244 147 294 814 499 710 874 1048 807 227 765 1363 1189 1052 1259 1279 1208 746 1426 1255 1184 1036 1129 1587 986 424 457
0 1 4 35 99 142 148 151 25 75 300 465 544 494 460 346 330 261 200 209 353 278 507 369 285 615 742 692 808 1336 804 563 27 979 845 750 990 1706 1060 966 1036 1007 1311 1299 1368 1112 539 204 322
0 0 0 3 49 136 124 45 18 30 165 368 490 589 478 430 414 362 226 289 184 207 278 551 434 420 882 837 1185 889 951 1080 607 434 701 730 1042 1800 1436 920 749 833 992 635 919 589 779 1104 939
0 0 2 0 13 89 113 35 102 62 216 344 367 426 522 489 417 435 514 487 127 237 144 97 513 446 646 857 1306 756 740 1103 243 497 780 1195 1348 1746 1525 1095 606 699 1380 983 1383 649 986 650 4
0 0 3 5 30 56 105 53 83 157 175 304 212 173 322 505 494 480 624 570 378 287 276 134 539 672 570 1028 862 1281 738 774 116 178 1312 1560 1550 1542 1645 1426 1074 1093 1155 1160 1064 733 798 184 0
0 0 0 3 43 79 192 154 91 50 59 61 146 254 182 261 293 443 433 467 395 410 96 540 385 835 630 1075 646 1090 975 534 322 219 333 1653 1844 2087 1807 1575 1243 1371 1162 1432 1169 1251 578 481 74
0 0 0 0 1 88 180 131 62 11 26 49 215 295 244 150 192 294 159 152 103 440 300 161 658 1268 826 1035 931 783 918 448 455 258 84 1506 1288 1844 1908 1520 1351 1203 1128 1209 935 1006 542 319 0
0 0 0 0 13 70 37 81 97 93 96 45 208 290 166 137 145 243 153 176 213 359 534 201 920 1268 1045 1191 1051 763 442 529 736 136 274 913 1783 2195 2012 1725 1489 1369 1393 1290 1020 1158 816 423 185
0 0 0 0 7 19 59 56 98 88 1 127 207 351 273 213 131 187 171 194 180 278 486 472 510 1390 1310 1078 889 959 712 643 204 401 213 610 1316 1401 2529 1895 1544 1672 1527 1426 1078 1349 1484 1021 337
0 0 0 0 1 0 0 35 40 54 51 129 338 484 375 344 253 169 250 179 192 363 571 705 583 969 1099 1214 1117 648 763 564 395 187 274 679 1850 1718 1866 2221 1784 2077 1709 1406 1341 1316 1127 834 1512
0 0 0 0 0 0 0 8 0 35 60 184 488 622 542 463 459 388 379 191 243 364 536 817 781 783 1390 973 730 1279 793 642 219 183 316 954 2035 1760 1881 2110 2108 1916 1676 1777 1718 1547 1450 1249 1002
0 0 0 0 0 0 0 0 0 0 10 27 489 482 609 548 544 552 504 455 215 242 510 788 944 853 1023 1503 1035 550 1121 1198 544 821 301 350 1251 1810 1526 1876 2355 1958 1801 1766 1976 1551 1991 1675 1273
0 0 0 0 0 0 0 0 0 0 0 0 24 537 605 583 622 625 582 602 396 245 425 688 1017 1002 1110 1206 1452 1286 644 1357 1558 388 849 1345 609 1270 1663 1702 1720 2416 1941 1651 1561 2493 2014 2271 1808
0 0 0 0 0 0 0 0 0 0 2 0 6 11 225 512 730 676 634 650 539 398 343 482 1089 1209 1336 1319 1457 1586 1540 813 1519 1629 533 537 935 1414 1133 1856 1663 2204 2448 2124 1820 2102 2611 1997 2200
0 0 0 0 0 0 0 0 0 0 0 13 0 1 80 260 754 764 686 678 625 494 432 464 692 1412 1609 1739 1428 1834 2085 1768 1063 1608 1865 752 708 1113 2862 2329 2146 2074 2097 2557 2323 1792 2382 2612 2327
0 0 0 0 0 0 0 0 0 0 0 0 0 0 32 126 863 877 817 709 665 566 545 515 753 1263 1595 1745 1925 1619 1983 2459 2059 1156 1312 1932 956 1327 1528 2747 2607 2365 2215 2083 2418 2413 2287 2234 2493

GFSSGP_con_mucape_060.txt.gz
CAPE
20 0 22 287 12 48 72 86 194 314 165 36 18 21 54 20 2 0 0 0 41 327 830 1351 2181 1941 1647 1837 1979 2027 1924 2076 1945 2060 2029 2050 2098 2102 2167 2104 2045 2165 1624 1406 1556 1675 1646 1625 590
0 24 96 317 260 2 18 168 261 201 227 90 187 151 41 2 0 0 0 0 223 744 1082 1307 2180 2153 1664 1728 1916 1935 1890 1962 2179 2079 1911 1825 1992 2056 2089 2160 2063 2020 2009 1758 1755 1648 1603 1457 1046
12 83 154 184 36 0 24 50 208 344 197 260 143 104 67 5 1 0 0 46 394 1035 1328 1503 2216 2248 1459 1587 2041 1979 1903 2010 1727 1738 1650 1600 1514 1419 1655 2005 2107 1980 1823 1756 1673 1630 1608 1629 1540
51 403 395 275 100 68 108 149 207 251 364 347 119 13 0 9 0 0 10 62 723 1149 1508 2324 2144 1382 1703 1800 2092 2066 1897 1796 1737 2053 2180 1971 1897 1851 1893 1654 1672 1697 1732 1688 1588 1502 1500 1564 1598
267 338 96 4 37 107 207 222 216 262 289 177 81 4 0 0 0 0 9 258 717 1102 1520 1818 2355 2353 2255 1830 2135 1850 2054 1863 1841 2018 2001 2042 2195 1907 1866 1817 1798 1782 1694 1555 1455 1411 1408 1439 1504
535 28 15 11 29 89 80 113 269 355 301 121 49 20 3 1 0 0 73 536 882 1158 1426 1694 2380 2633 2439 1935 2054 1962 1854 1826 1988 1974 2083 2131 2310 2052 1884 1855 1874 1881 1812 1790 1747 1651 1589 1431 1390
266 217 7 16 44 64 115 130 256 396 317 177 129 14 0 0 0 14 312 683 844 1134 1324 1539 1512 1359 1962 1897 1983 1957 1756 1830 1964 1846 1840 1905 1968 2038 2009 1819 1733 1675 1594 1587 1660 1710 1640 1637 1587
396 144 13 5 15 90 93 198 443 431 352 197 30 0 0 0 8 95 542 621 853 942 994 1271 1033 1072 1827 1812 1883 1792 1741 1779 1836 1752 1702 1640 1671 1773 1732 2047 2191 1778 1757 1697 1588 1625 1694 1736 1500
348 595 62 30 130 102 175 245 438 334 286 308 234 137 0 35 56 127 409 707 700 851 998 951 1036 1650 1664 1720 1632 1936 1763 1751 1775 1598 1606 1841 1244 1306 1402 1771 1816 1689 1677 1667 1607 1580 1648 1664 1530
325 435 342 113 86 100 76 266 454 326 363 348 332 56 0 21 71 97 340 584 562 602 733 959 1171 1297 1208 1264 1309 1368 1347 1496 1516 1423 1344 978 1039 1100 1305 1533 1815 1841 1825 1919 2079 1804 1711 1647 988
238 374 251 97 98 134 58 175 515 389 466 324 302 29 35 79 129 129 326 501 378 339 466 1072 914 696 791 880 1130 1083 1129 1226 1212 973 696 737 1086 1356 1719 1232 1410 1131 1027 159 479 455 432 803 1108
57 152 99 95 54 92 41 37 560 564 420 358 118 56 90 112 177 231 261 279 192 268 309 980 917 620 719 658 984 849 862 946 925 904 576 814 933 1195 1174 863 1039 1001 858 314 621 550 526 653 867
11 39 46 105 76 68 55 80 587 558 340 262 136 140 102 101 140 232 286 85 88 208 148 436 782 577 582 448 310 566 636 679 877 1075 771 869 768 811 764 794 906 510 685 560 718 799 792 863 824
0 7 15 32 5 75 129 332 701 361 432 162 125 117 136 144 187 229 209 59 25 81 98 21 580 463 402 268 12 421 480 423 696 1131 964 947 263 522 860 753 608 716 715 616 883 994 924 723 619
0 0 6 33 29 111 99 443 654 393 307 114 110 128 167 156 255 254 161 62 12 0 21 8 241 356 296 279 71 371 574 319 620 1153 1255 770 571 804 906 741 769 998 828 494 765 1028 772 975 364
0 0 0 18 39 74 135 48 518 497 326 122 105 194 208 161 217 250 127 81 57 0 0 0 66 442 459 410 437 884 615 326 779 1171 1104 874 1064 1136 693 977 1240 1081 1150 1078 1076 1150 717 168 245
0 0 0 1 31 87 107 84 60 546 463 292 221 210 189 206 243 209 185 191 52 0 0 10 38 554 492 507 409 669 696 644 305 981 720 863 1425 1177 846 769 823 816 1082 867 1134 479 444 744 784
0 0 0 0 23 108 102 48 49 455 537 407 325 256 159 151 298 210 115 149 100 251 54 7 14 461 295 335 391 515 460 540 753 629 471 417 1036 1374 998 771 665 635 930 605 996 469 870 511 61
0 0 0 0 51 146 71 65 18 21 293 431 434 367 279 150 149 191 117 58 31 159 226 64 43 135 260 349 541 426 335 348 532 207 435 481 865 1462 1143 812 782 477 906 862 941 559 437 170 2
0 0 0 0 4 61 154 122 103 48 17 183 496 481 385 335 218 146 75 74 21 93 185 122 113 57 172 170 237 496 319 206 383 291 449 640 889 1336 1270 1231 934 870 939 964 1000 839 646 202 2
0 0 0 0 22 64 85 61 56 27 11 108 351 486 442 384 340 302 204 282 242 65 81 134 210 178 179 323 228 614 650 358 327 304 12 846 1043 1342 1452 1450 1207 1156 1204 989 984 829 708 264 11
0 0 0 0 44 2 83 20 6 42 41 69 143 170 240 219 337 352 353 250 388 220 64 99 286 297 246 573 305 361 611 765 401 226 45 276 1174 1510 1626 1280 1104 1139 1134 1032 1046 779 494 287 0
0 0 0 32 1 0 19 30 80 55 13 15 40 120 138 109 191 347 395 323 350 454 129 107 410 393 355 636 455 360 358 700 706 258 146 28 911 1178 1617 1481 1391 1139 1065 1076 956 849 851 571 65
0 0 0 12 0 0 0 16 0 1 12 0 0 61 88 122 94 212 224 301 419 478 346 183 329 634 521 655 623 474 332 245 396 402 343 83 304 1074 1718 1669 1501 1092 1100 1324 1172 962 1005 1088 742
0 0 0 0 0 0 0 9 0 0 3 4 20 26 88 190 100 144 83 170 207 235 275 202 272 558 724 641 671 573 474 402 261 321 139 206 534 1046 956 1792 1682 1526 1229 1311 990 987 1152 1079 983
0 0 0 0 0 0 0 0 0 0 49 21 7 9 84 183 209 148 87 104 163 125 243 215 110 356 669 757 623 611 613 564 492 340 251 24 465 1062 1120 1333 1842 1715 1590 1447 1202 1255 1126 1087 847
0 0 0 0 0 0 0 0 0 0 0 0 0 0 118 199 336 278 172 218 288 158 243 334 243 188 623 629 735 698 649 504 353 415 243 52 157 1135 1342 1328 1593 1892 1834 1614 1451 1411 1351 1500 1340
0 0 0 0 0 0 0 0 0 0 0 0 0 23 136 307 460 401 355 318 411 350 259 389 399 272 281 749 586 439 561 898 1052 453 359 449 235 495 1255 1341 1366 1660 1774 1755 1536 1733 1590 1579 1695
0 0 0 0 0 0 0 0 0 0 15 24 3 160 309 466 497 511 475 476 441 486 283 442 550 448 420 515 804 760 582 332 564 1483 1207 337 404 842 925 1152 1390 1437 1830 1844 1689 1392 1677 2050 1837
0 0 0 0 0 0 0 0 0 0 0 0 0 71 418 529 508 601 612 581 522 587 469 407 592 698 564 639 638 865 939 877 462 412 1323 1563 870 237 393 1816 1845 1464 1570 1948 1819 1617 1482 1998 2186

GFSSGP_con_mucape_063.txt.gz
CAPE
70 64 24 237 71 87 55 105 236 437 395 7 3 5 30 40 13 0 0 0 26 332 917 1756 1969 1772 1797 1761 1979 1927 1932 2009 2152 2123 2238 2189 2225 2306 2242 2263 2165 1422 1435 1867 1859 1786 1087 679 1145
45 30 95 219 140 12 43 75 177 299 274 38 54 101 26 28 1 0 0 0 181 650 1080 1491 2084 2058 1710 1945 2052 2065 1983 2263 2359 2139 2204 2398 2166 2176 2193 2206 2196 2080 1824 1908 1817 1711 1352 816 1040
48 137 285 264 62 14 6 55 137 322 196 204 146 101 24 12 0 0 0 101 612 938 1171 1464 2109 2067 1660 1967 1986 1871 2041 1826 1690 1533 1465 1516 1764 2172 2206 2119 1961 1945 1946 1854 1767 1730 1591 1441 1051
64 136 382 231 115 28 77 171 288 330 246 204 129 118 43 0 1 0 46 500 904 1105 1314 2077 1875 1579 1545 1950 1990 1954 1758 1701 2103 2087 2024 2023 1701 1604 1756 1892 1993 1962 1858 1769 1693 1642 1621 1570 1243
150 212 84 0 6 71 201 133 321 264 236 141 58 27 0 6 0 0 191 751 964 1256 1308 1364 2150 1766 1676 2040 2037 1877 1778 1750 2157 2063 2276 2040 2250 2177 1834 1870 1857 1822 1717 1619 1562 1564 1556 1535 1449
500 37 1 4 8 128 94 225 201 334 322 101 39 8 0 0 0 32 327 788 1079 1468 1411 1283 1780 1982 1913 2139 1920 2091 1770 1985 2033 2080 2015 2240 1970 2001 2015 2041 2028 1952 1871 1845 1793 1770 1696 1467 1467
512 77 15 45 52 78 121 159 161 353 254 95 77 17 0 0 1 143 533 756 1114 1403 1464 1325 1445 1774 1933 2093 1988 2056 1808 2042 2021 2059 2091 2122 2101 1966 1881 1850 1831 1803 1786 1756 1759 1753 1834 1539 1513
427 225 0 0 5 65 97 142 145 292 268 134 86 39 0 0 23 448 664 821 1135 1267 1454 1469 1571 1439 1672 1785 1931 1910 1808 1970 1867 1783 1780 1830 1881 1959 1896 2046 2124 1845 1806 1726 1710 1740 1821 1756 1437
359 360 37 0 170 132 141 170 308 283 174 210 33 40 9 2 102 510 566 737 909 1098 1326 1359 1080 1525 1585 1652 1579 1848 1801 1854 1795 1601 1616 1642 1235 1401 1465 1632 1822 1734 1696 1652 1678 1670 1633 1798 1401
302 289 197 102 135 114 265 458 402 228 216 118 145 94 9 24 109 433 465 484 692 783 1123 959 946 1399 1583 1547 1576 1463 1454 1516 1518 1425 1466 1065 976 1031 1169 1475 1976 1833 1760 1770 1890 1684 1830 1347 789
208 275 292 157 113 40 149 201 408 313 287 105 69 36 20 50 228 340 427 303 473 603 861 804 1127 1309 1427 1273 1342 1300 1257 1318 1299 1165 857 925 1036 1160 1386 1377 1547 1211 1343 162 747 358 502 1097 943
5 40 242 204 63 126 93 247 512 446 350 257 249 27 35 68 169 244 456 379 424 451 594 861 1007 999 814 761 978 940 919 967 967 819 563 724 917 1051 1218 1288 711 913 667 452 367 414 375 565 778
5 41 60 34 24 70 104 47 478 468 411 349 201 29 22 52 109 179 363 357 284 266 312 785 669 480 414 442 770 721 698 771 654 814 549 731 874 1021 1044 793 756 706 652 593 578 696 769 801 839
25 48 47 10 8 36 208 575 519 487 366 188 23 21 18 67 119 178 267 328 176 137 99 565 651 377 312 332 440 375 409 537 656 845 735 674 677 666 767 750 744 480 524 542 717 692 798 627 617
0 36 25 22 10 208 424 471 562 333 296 116 53 49 73 110 171 249 299 258 198 61 0 204 546 367 301 311 243 94 264 338 419 779 1050 866 518 452 763 667 628 711 626 547 456 631 725 630 356
0 6 17 17 0 57 69 15 397 298 260 102 95 81 75 97 136 217 290 187 121 13 0 0 184 262 273 247 180 32 238 402 378 776 920 1038 549 702 826 673 755 798 871 525 697 731 682 307 146
0 0 8 6 6 90 137 66 488 317 228 137 135 88 91 74 116 142 233 233 62 11 0 0 8 167 213 122 140 56 611 526 544 521 877 1047 842 982 635 676 990 886 903 921 810 605 543 314 619
0 0 0 0 0 58 87 53 433 345 241 171 125 115 135 104 143 171 227 171 41 0 0 0 0 74 174 218 106 162 594 494 406 536 953 895 1067 1068 759 653 746 637 864 721 776 667 621 490 40
0 0 0 1 0 36 69 72 125 419 298 291 130 124 130 123 88 186 214 181 35 6 11 0 0 41 141 287 242 317 313 452 588 416 845 548 1197 1234 874 654 637 465 643 585 740 604 364 48 0
0 0 0 17 26 43 83 69 84 347 467 457 289 148 162 129 79 43 161 108 97 68 0 0 0 13 124 276 326 157 91 184 326 417 223 439 466 1282 1086 777 741 366 671 848 789 695 420 74 1
0 0 0 18 71 178 92 99 16 7 329 386 386 266 160 108 88 95 55 93 55 102 43 0 0 0 67 274 181 178 123 83 194 319 258 446 497 1063 1202 1004 759 692 757 932 796 797 628 174 4
0 0 0 28 13 3 79 5 18 1 47 35 290 379 318 240 119 4 113 107 35 45 35 126 135 66 8 115 90 97 20 47 26 123 272 97 656 870 1196 1197 1220 1036 1059 1142 913 845 606 455 16
0 0 0 34 30 30 27 6 0 0 0 3 39 165 409 335 301 146 1 44 26 3 0 62 124 112 43 54 29 31 14 1 37 47 143 100 659 853 1217 1305 1341 1006 1050 1013 970 984 641 360 2
0 0 0 25 41 29 9 2 0 0 11 4 29 37 141 330 382 345 209 65 28 102 108 8 42 97 63 105 101 51 20 91 305 327 152 105 11 806 1046 1416 1432 1254 1020 1071 910 885 868 558 626
0 0 0 0 17 0 0 0 0 0 0 0 8 43 94 166 261 320 296 219 218 165 216 276 85 66 131 150 182 109 42 49 177 359 355 136 63 206 847 1242 1383 1421 1291 952 1041 994 912 815 963
0 0 0 0 0 0 0 0 0 0 0 0 16 37 72 113 160 164 174 263 251 290 263 257 327 166 147 188 248 197 128 88 74 82 254 276 200 168 427 841 1558 1591 1464 1387 1130 1143 809 1037 1070
0 0 0 0 0 0 0 0 0 0 0 0 0 0 3 15 38 120 170 132 227 270 297 293 335 382 203 193 247 274 230 178 127 113 126 66 147 154 392 653 1008 1337 1423 1525 1446 1349 932 1087 989
0 0 0 0 0 0 0 0 0 0 0 0 15 11 4 22 43 68 90 127 144 201 297 303 363 382 320 285 253 261 271 267 236 215 236 131 204 140 505 781 967 1356 1431 1564 1631 1595 1328 1102 1159
0 0 0 0 0 0 0 0 0 0 0 0 48 60 48 47 51 78 94 209 131 244 187 285 297 272 246 324 341 290 298 335 325 348 337 349 275 203 52 697 1032 1219 1444 1500 1571 1623 1565 1312 1343
0 0 0 0 0 0 0 0 0 0 0 0 21 0 0 30 66 91 92 160 290 273 254 212 231 196 164 191 276 319 338 397 540 634 348 307 234 264 304 190 887 1201 1273 1448 1473 1445 1502 1514 1514

GFSSGP_con_mucape_066.txt.gz
CAPE
58 62 42 134 81 61 63 165 112 387 77 0 5 15 20 37 22 3 0 0 50 431 824 1313 1977 1624 1591 2103 1965 2085 2080 2165 2184 2278 2300 2127 2061 1875 2021 1982 1655 1473 2030 1750 1659 879 866 1077 1246
43 60 61 219 105 8 29 45 275 205 151 5 51 32 33 4 0 0 0 9 150 696 1273 1248 2127 1887 1843 1976 2135 1927 2143 2218 2259 2229 2232 2035 2279 2251 2263 2269 1607 1866 1967 1889 1613 1260 854 1014 1155
33 59 239 301 95 5 42 33 120 148 105 7 53 50 14 0 0 0 0 119 416 945 1374 1205 1884 1941 1994 2042 1957 2278 2238 2141 1915 1942 2122 2233 2133 2237 2290 2135 2193 2085 1950 1898 1756 1563 1471 1292 1437
44 104 250 145 105 58 96 201 344 229 197 92 70 81 13 6 0 0 35 418 688 997 1311 1728 1542 1557 1625 1588 2005 1802 1608 1750 1568 1666 1544 1613 2133 2070 2189 2193 2125 2060 1918 1879 1795 1660 1232 1266 1108
53 334 70 1 17 92 110 231 361 343 208 145 54 45 41 0 0 19 345 565 762 1013 1319 1282 2066 1533 1959 1699 1809 1638 1793 2062 2165 2060 1976 1963 1928 1853 1934 2016 1995 1906 1714 1779 1717 1625 1522 1197 1176
393 70 7 0 57 71 103 134 317 303 270 128 69 28 0 3 4 163 594 709 944 1114 1455 1313 1575 1549 1988 1972 1761 1699 1806 1992 2084 2191 2126 2057 2045 2003 2068 2078 2034 1936 1933 1850 1736 1658 1608 1497 1246
664 75 27 27 60 67 143 199 284 409 233 130 38 31 0 4 3 408 668 980 1191 1140 1173 1160 1058 1330 1823 1846 2116 1708 1949 2148 2162 2316 2304 2114 2033 2076 2093 2060 2015 1979 1739 1828 1696 1565 1597 1562 1488
439 235 2 8 18 46 148 178 153 389 234 157 86 31 0 11 50 516 714 995 1241 1242 1151 1015 1072 1395 1651 1567 2148 1716 1991 1892 1870 1937 2014 2082 2036 1983 1983 1934 2007 1667 1805 1751 1724 1766 1484 1968 1904
345 312 37 6 110 96 75 266 225 325 232 159 64 21 0 2 330 484 546 849 1057 1159 1082 1096 1373 1329 1557 1509 1699 1670 1929 1898 1787 1630 1755 1719 1447 1460 1432 1632 1743 1733 1739 1603 1688 1725 1614 1746 1636
258 238 92 8 108 46 214 433 284 309 197 110 36 18 0 10 270 152 313 312 645 835 926 1210 1189 1410 1448 1445 1445 1335 1513 1540 1455 1343 1425 1088 930 974 1293 1665 1721 1617 1636 1638 1762 1602 1674 1076 1217
203 248 181 130 207 79 366 449 366 305 242 87 9 13 6 42 137 129 139 107 361 614 813 1055 933 1295 1381 1396 1417 1211 1339 1337 1311 1184 1019 795 959 1076 1207 1306 1300 1194 875 176 699 270 886 1006 1142
0 40 182 228 148 52 67 311 415 348 274 250 24 98 7 60 68 90 59 126 274 473 717 851 735 1034 1263 1174 1216 974 961 1021 971 856 723 766 831 995 1087 1137 563 819 703 459 582 616 541 682 954
0 0 5 38 55 76 88 339 464 372 367 301 101 119 16 51 115 184 144 188 353 424 604 667 685 924 1028 762 760 667 625 727 674 675 533 534 690 784 984 920 526 628 625 528 497 600 1008 903 893
0 1 5 10 31 32 20 201 301 382 444 306 153 52 15 78 177 249 259 238 297 280 406 494 611 719 605 320 374 439 392 444 461 580 585 658 740 706 710 744 540 448 409 447 488 516 830 673 707
0 0 0 0 25 53 331 472 462 301 414 291 24 1 17 65 141 176 291 208 154 166 202 298 419 368 171 101 85 211 150 255 405 597 782 796 625 417 617 609 640 582 606 450 270 557 648 403 208
0 0 5 9 1 83 213 39 428 350 405 240 0 22 43 55 89 113 228 158 85 55 53 52 374 241 90 39 54 43 85 180 245 371 668 885 887 494 605 584 493 576 751 383 316 561 426 239 143
0 0 0 11 0 90 67 37 245 255 282 207 5 9 40 60 90 128 95 145 95 16 0 0 196 263 94 71 64 50 79 135 394 494 431 660 901 573 746 509 642 820 786 670 566 485 311 234 502
0 0 0 13 0 59 89 66 256 228 252 160 16 17 32 60 109 150 117 107 93 7 0 0 3 126 43 61 45 83 31 420 401 358 360 497 878 846 848 576 738 639 763 537 611 408 547 240 51
0 0 0 50 54 20 42 53 317 198 202 115 65 71 54 31 55 112 146 125 118 33 3 0 0 0 22 55 46 37 42 445 232 376 471 615 799 941 856 512 579 576 568 491 585 532 347 47 16
0 0 0 8 40 0 0 45 172 191 208 168 93 89 68 39 8 70 80 74 88 80 0 0 0 0 0 40 80 65 38 323 443 258 377 765 637 1058 957 695 439 301 523 520 582 457 214 74 25
0 0 0 0 59 35 107 42 12 182 151 115 77 86 53 69 36 39 68 26 45 68 1 0 0 0 0 10 64 149 118 201 266 339 187 491 442 933 1073 897 637 635 364 586 601 660 359 182 0
0 0 0 0 55 22 72 0 0 39 226 231 133 98 117 72 56 0 8 88 74 80 55 0 0 0 0 0 8 143 186 155 36 160 223 71 307 544 1033 1027 876 751 762 700 609 661 652 460 174
0 0 0 0 57 26 10 0 0 2 0 133 283 290 245 147 78 43 0 0 103 92 55 0 0 0 0 0 1 51 181 82 0 0 65 143 230 477 902 1058 1010 1168 987 946 825 796 796 511 248
0 0 0 0 59 22 2 0 0 0 10 2 15 147 292 281 209 106 0 0 0 56 25 3 17 0 0 0 0 0 46 55 0 0 0 30 89 379 624 1071 959 1192 1161 916 996 889 898 565 272
0 0 0 0 16 0 1 0 0 0 8 2 11 16 33 238 256 231 117 1 0 0 13 14 9 22 20 26 5 3 0 0 0 0 0 0 9 33 377 825 1028 1085 1269 1166 895 808 830 946 566
0 0 0 0 0 0 0 0 0 0 0 0 0 2 11 65 292 235 177 161 18 0 20 38 1 14 7 28 66 22 5 0 0 0 0 0 0 4 57 432 1032 1124 1259 1230 1197 920 965 853 795
0 0 0 0 0 0 0 0 0 0 0 0 0 0 0 13 89 236 252 235 234 15 2 25 13 46 5 0 12 34 13 0 0 1 0 0 39 29 29 250 743 1077 1004 1156 1331 1297 1057 1094 781
0 0 0 0 0 0 0 0 0 0 0 0 7 0 0 12 32 66 111 213 275 306 115 36 49 131 176 151 9 38 46 0 13 14 12 16 12 50 118 321 498 871 1068 1144 1183 1268 1394 1355 1235
0 0 0 0 0 0 0 0 0 0 0 11 40 0 6 3 31 60 56 77 111 198 227 187 183 189 203 233 247 133 119 84 42 37 41 30 28 30 0 282 522 729 1077 1146 1070 1266 1310 1517 1560
0 0 0 0 0 0 0 0 0 0 0 2 29 20 37 65 21 36 62 75 72 49 125 182 200 276 308 267 267 320 244 170 104 101 95 83 51 75 12 71 433 689 965 1254 1228 1255 1375 1374 1533

GFSSGP_con_mucape_069.txt.gz
CAPE
5 33 76 173 199 56 129 186 200 224 52 3 9 13 40 43 31 27 8 27 280 380 859 1151 2100 1956 2104 1969 2312 2381 2289 2295 2378 2507 2351 2133 2386 2262 2314 1877 1438 2013 1799 1589 947 1100 1240 1519 1277
35 68 81 275 165 94 145 82 279 225 46 1 43 52 72 63 1 1 46 189 304 453 1019 1152 2007 2324 1855 2044 2037 2026 2145 2247 2257 2181 2180 2092 2035 2005 1854 1528 1821 1948 1966 1411 1097 901 1103 1233 1736
36 85 297 211 312 109 46 79 163 64 13 18 57 41 45 14 0 2 19 292 367 703 1011 1518 2168 2478 2068 2008 2008 2082 2066 2103 1944 1968 2075 2232 2009 1806 1965 1883 2094 2084 1927 1681 1620 1445 1165 1369 1651
106 157 221 365 218 182 159 308 501 124 62 87 85 28 40 3 0 0 82 349 497 643 906 1746 1753 2085 2175 1925 1919 1896 1627 1510 1514 1665 1920 2063 2078 2002 2112 2124 2117 1914 1843 1695 1550 1378 1385 1245 1280
100 292 241 42 55 119 115 308 457 279 325 101 34 62 77 0 0 21 167 344 564 435 749 1291 2166 2173 1816 2132 1597 1648 2049 1832 1908 1928 1695 1842 1977 1990 2127 2147 2029 1854 1562 1776 1666 1357 1174 1278 1453
489 175 48 41 47 68 179 204 444 514 195 91 48 50 0 18 11 153 192 268 540 599 600 931 1741 2217 2295 1588 1559 1816 1973 1964 1891 2117 1976 2124 2003 2101 2105 2008 1911 1834 1776 1697 1721 1584 1482 1317 1409
615 122 100 68 77 96 129 252 460 588 230 181 107 88 4 7 81 310 332 398 507 800 765 947 923 1746 2107 1796 1573 1708 1934 2046 1987 2039 2059 2132 1803 2017 2073 2154 1960 1890 1752 1642 1582 1565 1566 1500 1578
707 511 79 66 35 71 255 187 244 527 237 177 93 6 0 23 166 307 523 651 669 989 1099 1104 1109 1249 1971 1830 1550 1826 2055 2006 1890 1985 1773 1907 2059 1937 1974 1774 1906 1856 1762 1707 1631 1547 1623 1672 1899
545 452 158 22 122 146 180 403 353 356 215 157 89 12 0 13 241 381 586 816 1175 1164 827 653 953 1345 1738 1815 1518 1776 1764 1727 1741 1772 2060 1793 1962 1960 1627 1742 1772 1866 1713 1572 1705 1644 1414 1658 1725
385 224 224 7 142 65 230 475 492 390 169 132 93 10 0 55 235 145 347 431 611 619 551 412 895 1113 1427 1245 1686 1691 1537 1422 1635 1750 1867 1446 1664 1767 1448 1536 1517 1639 1621 1719 1732 1699 1676 1493 1435
129 258 259 211 247 70 443 648 505 514 440 148 68 26 2 61 166 45 137 228 125 178 169 456 1317 1313 1350 1160 1535 1415 1459 1456 1620 1888 1918 1749 1789 1907 1591 1652 1871 1977 693 828 1053 1065 1240 1270 1526
58 137 357 275 234 130 260 542 566 569 463 310 49 15 2 46 94 35 79 178 245 415 321 891 1327 1461 1538 1347 1309 1156 1186 1306 1359 1562 1604 1738 1774 2121 2172 2513 1510 1984 1698 1314 1298 1196 1541 1612 1829
0 0 0 79 93 49 57 334 423 572 393 308 134 27 34 15 47 20 70 144 369 377 439 919 1195 1289 1535 1634 1316 964 1031 1065 1189 1411 1389 1346 1648 1891 1971 2300 1392 1683 1630 1494 1710 1728 1469 1585 1591
0 0 0 43 46 96 62 96 505 369 340 337 229 33 49 31 32 62 78 85 252 507 538 802 1000 949 1340 1262 1368 1013 951 1033 1179 1341 1222 1182 1737 1827 1781 2133 1559 1481 1487 1563 1623 1947 1833 1670 1592
0 0 0 47 34 61 52 284 397 210 355 322 197 67 8 63 35 64 92 141 385 482 530 729 731 731 1224 1119 831 783 708 658 891 1122 1639 1581 1564 1568 1878 2088 2441 1687 1634 1792 1596 1891 1784 1091 799
0 0 0 24 36 44 159 223 681 340 293 292 200 20 28 81 117 243 165 201 415 363 539 630 215 347 903 702 550 417 503 606 937 1250 1486 1799 1864 1713 1476 1735 1913 1812 1929 1435 1572 1950 1347 936 1030
0 0 0 0 44 24 358 217 643 318 342 254 163 39 43 83 174 233 304 287 302 358 452 469 282 159 418 461 332 420 522 612 847 1008 1163 1377 1838 1661 1634 1724 1811 2093 2007 1862 1663 1519 1257 1249 1426
0 0 0 0 50 24 200 232 603 165 214 260 188 93 70 86 139 218 315 353 310 287 358 366 309 313 624 345 537 427 468 566 832 1141 1348 1561 1697 1879 1875 1568 1827 2320 2454 1736 1604 1624 1409 697 120
0 0 0 0 35 5 12 165 569 482 136 207 219 157 137 96 121 182 279 357 351 345 287 298 295 505 667 373 306 516 651 906 1361 1002 1409 1595 1742 2005 2122 1568 1774 1607 1829 1699 2028 1401 1314 147 59
0 0 0 0 79 7 0 0 184 573 507 273 161 118 147 142 159 263 318 318 322 409 341 289 256 339 672 372 550 656 840 860 1313 1125 1397 1669 1884 2121 2085 1829 1533 1576 1817 1942 1801 1643 1154 786 39
0 0 0 0 36 57 29 1 80 489 550 447 305 165 98 133 172 262 345 325 281 357 405 419 473 507 566 763 615 752 770 770 1024 1121 1166 1553 1782 1895 2242 2119 1821 1625 1653 2340 2103 1865 1551 675 64
0 0 0 0 0 19 11 9 111 301 535 474 476 380 325 212 174 186 252 335 325 349 382 449 627 643 505 735 741 1197 863 712 730 1150 1149 1349 1589 1596 1797 2139 2026 1972 1425 2162 1922 1750 1559 1437 749
0 0 0 0 0 1 3 14 0 119 395 565 506 466 432 388 284 221 262 287 279 271 266 303 500 855 927 953 1144 939 1374 918 830 835 1312 1290 1505 1561 1499 1950 2212 2301 2287 1974 2046 2190 1855 1447 996
0 0 0 0 0 0 0 0 0 0 22 261 557 530 435 392 379 342 295 306 284 215 142 167 547 905 1026 943 1014 1360 1650 1130 743 771 742 903 990 1339 1687 1786 2198 2291 2489 2306 2124 2423 2155 1961 1352
0 0 0 0 0 0 0 1 0 0 0 1 198 585 590 452 437 431 377 278 371 389 267 400 719 829 924 954 1071 1168 1524 1620 1367 1353 761 973 580 769 1375 1954 2189 2104 2494 2337 2283 2299 2196 2034 1871
0 0 0 0 0 0 0 0 0 0 0 1 87 197 370 653 569 550 517 553 565 653 793 680 834 891 808 867 1091 1334 1492 671 735 1099 718 524 413 438 1050 1587 1780 2152 2302 2476 2537 2264 2139 2190 2203
0 0 0 0 0 0 0 0 0 0 0 0 0 28 117 226 658 647 591 545 647 795 829 733 971 1064 957 817 1051 1243 1275 1207 934 1469 1207 644 987 324 742 1131 1387 1670 1979 2401 2584 2326 2431 2271 2345
0 0 0 0 0 0 0 0 0 0 0 0 0 1 9 82 166 565 640 707 799 667 798 781 825 1040 1091 982 1023 1106 1222 1313 1289 1206 1313 1360 1009 810 604 1062 1183 1391 1668 1969 2361 2161 2464 2612 2434
0 0 0 0 0 0 0 0 0 0 0 0 0 0 29 120 145 297 772 917 845 628 580 741 703 920 992 1048 1111 1227 1282 1034 1099 1016 1017 1409 1201 1072 1139 1309 1403 1521 1624 1862 2165 2274 2177 2465 2658
0 0 0 0 0 0 0 0 0 0 0 0 0 0 2 101 188 304 577 769 749 955 641 761 704 511 848 967 1169 1222 1355 1422 984 1220 984 941 1224 1109 1126 1164 1320 1386 1505 1732 1994 1982 1873 2368 2545

GFSSGP_con_mucape_072.txt.gz
CAPE
53 43 218 515 603 131 379 339 318 457 74 53 9 18 62 244 295 644 407 566 572 629 923 1339 2268 2165 1954 2150 2277 2245 2374 2498 2205 2008 2008 2256 2395 2288 2102 1655 1753 1996 1638 1039 1216 1395 1587 1366 1457
84 227 212 274 800 397 263 192 365 353 67 33 62 80 62 258 82 228 396 615 792 875 1042 1030 2419 2443 2077 2321 2300 2420 2412 2498 2378 2359 2103 2325 2239 2226 1745 1614 2097 2081 1516 1213 1063 1230 1473 1899 1555
233 146 437 602 617 492 325 450 596 417 48 25 317 259 359 332 132 266 482 584 858 746 837 1336 2367 2397 2094 1997 2091 2259 2305 2291 2171 2162 1980 2028 1796 1835 1619 1958 1642 1978 1757 1769 1476 1206 1464 1742 1842
396 540 710 668 462 403 216 612 212 157 96 64 274 429 133 51 192 244 541 602 925 810 697 1584 2222 2116 1918 2286 2162 2136 2163 2108 2107 1907 2085 1912 1812 1896 2045 2125 1938 1903 1730 1663 1567 1572 1464 1333 1239
371 634 580 565 235 308 360 733 783 149 314 402 343 278 80 24 71 390 627 603 652 473 759 1207 2517 2282 2067 2036 1649 1506 1447 1622 1616 1892 2030 1996 1971 1927 2066 2110 1929 1582 1796 1701 1452 1375 1483 1538 1508
609 690 477 243 47 414 721 782 1102 911 719 403 378 274 28 26 128 411 564 525 81 358 369 914 1923 2280 2153 1512 1808 1948 2128 2130 1983 2055 1975 1967 2007 2123 1986 1961 1823 1546 1591 1714 1603 1471 1462 1496 1597
659 677 471 302 179 431 611 731 981 968 783 590 518 601 108 25 141 316 406 177 41 122 352 778 1382 1705 1606 1542 1814 1805 1913 2055 1984 1935 1983 2045 1982 2101 2132 2030 1881 1755 1718 1720 1655 1507 1267 1511 1543
774 950 447 242 172 620 592 538 820 1111 863 531 375 457 97 163 63 194 129 74 63 118 416 564 1189 1613 1207 1248 1791 1950 1918 1867 2121 2024 1819 2103 2077 2005 1879 2072 1969 1829 1640 1568 1616 1577 1576 1720 1849
579 983 489 407 251 663 415 480 422 870 587 321 183 159 185 102 178 199 95 54 121 185 316 412 743 1609 1193 1087 1835 1756 1963 1903 1998 1912 1956 2292 1672 1677 1692 1699 1776 1736 1580 1584 1496 1417 1486 1791 1910
215 610 498 353 533 572 572 913 1014 752 505 363 182 82 215 311 191 278 117 90 152 246 211 177 486 1192 1036 909 1274 1423 1272 1277 1516 1710 1810 1515 1691 1714 1473 1490 1520 1596 1647 1565 1555 1562 1459 1780 1362
9 142 419 475 508 151 796 973 974 888 815 592 293 176 320 401 400 302 223 201 253 251 111 89 591 978 791 1315 1091 1244 1186 1305 1695 1822 1748 1566 1603 1599 1380 1484 1279 1332 1327 1355 1366 1399 1361 1377 1388
0 2 550 560 474 175 735 910 852 902 964 799 346 199 301 428 414 333 326 319 284 208 51 159 751 1052 925 1108 918 923 966 1021 1059 1532 1952 1942 1581 1789 1457 1314 1400 1803 1581 1357 1416 1464 1819 1676 1584
0 0 30 287 485 191 228 604 712 792 867 631 339 174 269 364 258 221 180 222 127 45 42 365 823 1143 1184 1259 881 761 971 1057 1074 1471 1678 1612 1806 1773 1470 1637 1678 1661 1617 1577 1592 1609 1578 1618 1531
0 0 0 1 45 85 188 406 603 855 712 626 378 241 276 310 218 184 163 200 116 92 75 455 741 1056 1171 1137 1323 1105 1299 1424 1279 1438 1633 2021 2005 2368 1523 1620 1740 1669 1572 1436 1690 1404 1650 1394 1342
0 0 0 0 0 27 81 181 653 907 703 667 469 322 256 254 247 178 153 230 184 204 154 424 621 741 1196 1071 1268 1011 1238 1262 1391 1577 2067 1769 2011 2328 1608 1490 1612 1570 1694 2045 1649 1452 1729 846 1037
0 0 0 0 0 8 220 474 794 782 758 747 562 369 318 291 266 197 195 173 136 122 236 408 241 209 940 924 833 864 1003 1013 1137 1308 1637 2094 2047 2035 1595 1297 1550 2418 1797 1348 1270 1188 1101 568 1008
0 0 0 3 4 73 323 527 1216 774 829 818 671 463 385 365 285 267 211 174 105 212 400 388 280 46 627 851 593 708 921 1056 1219 1310 1428 2001 2173 2115 2010 1436 1236 1587 1469 869 654 837 961 657 427
0 0 0 0 0 127 471 595 998 845 832 859 740 554 439 421 362 379 319 211 94 273 413 368 266 132 536 439 512 513 760 972 1136 1218 1250 1928 2053 2211 2090 1882 1422 1366 838 953 1004 880 1038 596 216
0 0 0 0 21 87 178 576 984 777 819 863 849 675 454 485 475 505 454 291 65 236 383 396 281 343 429 259 229 542 780 946 1252 1483 1742 2197 2176 2315 2360 1786 1465 1326 1338 1403 1196 1497 1268 315 567
0 0 0 0 0 0 118 200 470 1028 763 912 940 855 471 487 524 523 521 478 164 229 389 432 386 494 680 132 226 411 752 946 1196 1345 1821 1996 2191 2425 2068 2006 1911 1801 1155 1344 1246 1558 894 488 314
0 0 0 0 0 0 58 150 83 327 790 599 828 919 617 463 522 522 587 565 453 242 460 517 731 659 676 520 247 924 1165 1302 1490 1457 1525 1746 2054 2253 2198 1756 1644 2006 1886 1149 1519 1511 1489 453 450
0 0 0 0 0 1 0 78 100 62 625 684 752 833 764 538 486 583 538 609 603 395 446 608 671 815 602 1012 1221 1996 1037 877 534 973 944 1126 1824 1919 2049 1999 1616 1916 2123 1430 1335 1277 1429 1649 246
0 0 0 0 0 0 70 103 84 159 410 650 783 778 722 669 534 475 662 706 679 674 473 622 787 1212 1255 1384 1561 1262 1389 320 490 601 1307 1864 1934 1983 1767 2154 2259 2418 1842 1606 1585 1311 1593 1504 1041
0 0 0 0 0 0 0 9 22 171 359 661 716 773 829 777 694 635 570 704 784 677 523 501 1044 1613 1353 1220 866 1652 2186 1462 908 1100 859 968 1090 1383 1836 1862 2358 2188 1609 1904 1894 2159 1703 1936 1493
0 0 0 0 0 0 0 0 0 29 180 247 535 790 871 907 937 852 717 625 732 810 722 581 1710 2219 1587 1001 943 1370 1822 1937 1737 1620 1169 1309 622 657 1068 2141 2285 2155 2568 2070 2036 2201 2096 1690 1935
0 0 0 0 0 0 0 0 0 0 0 4 40 172 517 764 914 972 936 813 729 827 855 941 1847 2297 1746 1421 1950 2220 2357 1172 1305 1514 1019 931 670 487 686 1603 1902 2070 1974 2357 2487 2482 1951 2220 1946
1 0 0 0 0 0 0 0 0 0 0 0 0 6 128 561 748 852 927 957 914 861 1245 1372 2092 2524 2254 1267 2436 2443 2484 2167 1318 2585 1668 1185 1301 786 910 1055 1510 1547 1808 2123 2461 2229 2484 2478 2745
0 0 2 3 0 0 0 0 0 0 0 0 0 0 7 45 425 668 799 971 1005 974 971 1002 1681 2266 1789 1602 1812 1503 1703 1991 2054 1576 1910 1877 1386 1365 1085 1124 970 1218 1724 1987 2412 1920 2263 2785 2558
0 0 11 10 2 0 0 0 0 0 0 0 0 0 0 0 10 375 721 928 1094 1064 1080 1112 1134 1361 1456 1674 2029 2303 1799 1611 1659 1278 1521 1834 1855 1722 1880 1453 1340 1058 1507 1988 2448 2316 1901 2307 2897
0 16 11 41 24 7 6 1 0 0 0 0 0 0 0 0 18 117 562 1024 1121 1222 1149 1189 1165 1138 1330 1925 2499 2157 2147 2405 1427 1665 1560 1718 1937 2059 2073 1955 1831 1490 1379 1916 2352 2372 1695 2310 2726

GFSSGP_con_mucape_075.txt.gz
CAPE
7 1 141 615 734 973 804 696 562 216 210 130 61 63 358 389 781 1048 648 431 669 588 630 955 2408 2039 1933 2083 2288 2220 1867 1988 2070 2092 2061 2177 2142 2383 1916 1662 2253 1863 1136 1243 1495 1587 1506 1594 1732
73 130 575 592 1140 655 483 562 456 215 149 128 81 189 344 588 531 499 547 510 572 600 797 990 2502 2439 2219 2532 2256 2335 2445 2414 2246 2180 2049 2189 2324 2028 1439 2145 2166 1634 1307 1083 1250 1676 1821 1556 2043
292 341 728 1064 1053 559 611 621 608 292 173 379 484 228 560 448 392 630 510 530 699 819 1060 1665 2397 2520 2291 2104 2459 2464 2471 2347 2189 2041 1961 1963 2144 1514 1983 1733 1945 1888 1936 1287 1166 1439 1810 1817 1942
403 647 863 1074 570 369 563 758 547 235 85 349 338 619 426 566 448 405 679 581 476 709 733 2144 2245 2129 2030 2207 2259 2197 2246 2006 2017 1882 1836 1978 1908 1847 2027 1998 2025 1812 1828 1685 1619 1568 1406 1294 1239
307 879 812 934 552 432 724 457 528 316 235 301 549 755 443 170 360 410 748 684 740 457 605 1347 2333 2427 2260 2195 1980 1868 1746 1917 1963 2030 1949 2031 1995 1991 2083 1941 1736 1818 1787 1589 1528 1560 1473 1498 1537
954 809 688 418 477 471 729 879 570 418 540 456 687 678 462 224 332 343 735 780 340 276 330 1246 1707 2285 1870 1570 1578 1559 1849 1715 2014 2002 1951 1942 1930 1751 1984 1794 1551 1587 1746 1662 1546 1484 1533 1558 1662
763 949 703 384 354 559 888 980 637 858 697 613 701 942 555 231 282 307 581 283 308 24 376 996 1324 1979 1528 1991 1842 1986 2060 2096 2075 2025 1908 1962 1960 2093 2078 1975 1852 1738 1672 1598 1483 1299 1382 1489 1713
700 837 426 188 447 450 463 1054 770 551 620 737 987 930 475 429 373 361 422 55 64 169 414 897 1013 932 981 1793 1725 1941 1999 2014 2098 2019 2007 1965 1922 1909 1963 2385 1908 1668 1664 1514 1417 1316 1481 1602 1780
13 406 757 310 530 465 569 516 644 449 885 798 758 885 533 380 374 274 138 42 44 128 376 692 920 730 1145 1365 1904 1895 2018 2087 2207 1957 2080 2083 1431 1873 1949 1975 1797 1663 1558 1458 1368 1401 1610 1693 1836
18 39 386 173 300 256 528 455 604 713 677 709 543 588 351 276 299 227 66 25 22 143 275 365 887 899 1129 1041 1877 1793 1643 1638 1844 1650 2234 2233 2435 1939 1357 1619 1669 1594 1607 1473 1374 1301 1198 1070 929
0 18 369 568 424 623 716 557 956 380 357 579 576 625 289 318 313 152 34 15 19 117 204 185 686 481 1057 1047 1460 854 1691 1384 1766 1667 2014 1207 1178 1459 1453 1403 1437 1505 1736 1292 1301 1205 1274 1325 1165
0 90 10 360 432 122 764 689 547 845 261 583 545 508 358 345 351 135 24 14 44 129 148 170 632 785 1240 719 820 855 863 1239 1154 1397 2136 1527 2363 2268 1829 1654 1554 1819 2086 1654 2266 1462 1420 1475 1243
0 43 2 652 661 496 597 686 390 753 640 546 560 556 436 385 430 210 89 56 67 154 161 330 610 1001 1241 1195 902 730 781 721 1224 1351 1585 1385 1983 1709 2036 2424 1993 2041 2007 1600 1813 1527 1829 1452 1051
0 0 0 128 387 472 235 540 454 807 770 696 573 623 498 461 497 360 246 194 122 124 138 420 645 1019 1156 1340 1095 1004 774 1900 759 1163 1612 2060 2535 1759 2471 1936 2128 1601 1559 1377 2074 1757 796 1114 1157
0 0 0 0 31 155 293 404 576 898 803 823 628 635 548 501 481 486 312 324 133 14 72 495 637 827 1208 1386 1198 1117 1868 697 1549 2214 2012 1978 2149 2131 1792 2253 2144 2007 1914 1834 1818 1487 1657 1726 708
0 0 0 0 0 3 148 372 514 1046 884 918 780 571 597 537 482 457 318 338 83 2 80 508 310 593 1050 1193 1222 1069 965 1358 1723 1912 1930 2106 1778 1922 1997 1851 1890 1630 1998 1408 1772 1151 514 1242 444
0 0 0 0 0 3 68 369 868 853 937 1075 901 566 653 549 492 426 345 350 91 24 159 421 317 277 873 1257 1092 1220 1435 1717 1499 2028 1693 1949 2674 1736 1955 1592 1780 2052 1463 2034 1014 818 512 1052 788
0 0 0 0 1 7 140 402 847 1063 899 1119 957 685 672 639 621 448 337 341 101 22 203 384 332 1044 1715 1235 1277 1128 1128 1110 1657 1369 2216 1939 2124 2027 2179 1647 1904 1797 1830 1553 1740 2366 780 155 559
0 0 0 0 23 25 85 340 809 753 853 1024 1004 890 618 762 670 565 439 335 116 39 288 409 978 2082 1171 857 662 989 737 1188 931 902 1611 1943 1895 1930 1866 1818 2008 1491 1104 1060 1191 1289 934 109 155
0 0 0 0 0 65 107 121 749 797 804 887 936 1024 675 785 630 691 529 389 223 117 370 1010 1420 2091 1347 719 1095 1033 1369 727 885 993 1794 1874 1825 2216 1769 2317 1762 1367 1528 1585 1303 1673 1549 689 541
0 0 0 0 0 3 76 127 530 921 1029 892 918 1064 762 605 796 728 659 548 359 195 438 1072 1762 2016 1598 1269 1077 1211 1415 1556 945 1675 1455 1789 1766 1964 2045 2075 1425 1807 1844 1640 1810 1634 1767 900 50
0 0 0 0 0 0 25 93 131 1010 786 737 776 1083 867 358 811 794 800 683 489 237 358 1272 1410 2083 1609 1998 890 1951 1080 774 720 1134 920 1685 1592 1705 1987 1770 2013 2242 1144 1684 1833 1869 2565 1910 419
0 0 0 0 0 0 10 15 35 153 407 670 679 816 975 628 578 788 824 773 682 386 280 494 1700 2068 1864 1836 1609 1317 1689 693 620 490 2930 3088 3026 1694 1394 1976 1961 2128 1875 2045 1817 1936 2233 1147 1194
0 0 0 0 0 0 0 12 16 54 117 509 681 718 822 918 625 719 819 838 799 683 372 452 1815 2260 2190 2193 1841 2571 2087 1835 368 861 1345 1180 1429 1684 1908 1706 2153 2697 2222 2070 2091 2017 2079 2553 2263
0 0 0 0 0 0 0 0 62 73 119 191 630 746 809 846 881 750 805 799 951 936 903 870 1905 2558 2340 2175 1746 2227 3021 2889 2702 2455 736 1100 567 640 3082 2978 2960 2513 2514 2286 2606 2728 2178 2149 1869
0 0 0 0 0 0 0 0 0 9 88 71 398 677 794 923 940 910 874 896 994 1169 1736 1632 2074 2630 2546 2070 1937 1946 2703 1016 772 2197 1001 531 492 615 3700 2454 2102 2017 2355 1857 2797 2330 2008 3115 2126
0 0 0 0 0 0 0 0 0 0 5 9 100 504 749 976 998 1025 992 956 937 1340 2038 2063 2316 2668 2683 2059 2235 2420 2343 2019 1146 2600 3065 1469 2159 709 842 1072 2149 2102 1978 2591 3712 2084 2326 2452 2543
10 9 0 1 0 0 7 0 0 0 0 14 1 199 336 777 792 901 1130 1097 1027 956 1373 2120 2334 2764 2825 2085 2531 2367 2351 2488 2621 3122 3505 2760 2679 2437 1306 1533 1327 1725 2301 2604 3631 2671 3396 2938 2232
10 0 14 29 7 5 11 18 4 0 0 1 8 2 90 170 525 616 766 1015 1174 1106 1021 1267 1972 2564 2702 2474 2332 2376 2397 2169 2538 2402 3030 2885 3047 3138 2998 2304 1969 1722 2028 2624 3737 3704 2863 3564 3757
7 45 8 69 48 17 36 48 12 2 0 1 5 44 46 57 180 301 591 807 1083 1246 1228 1277 1271 1318 2012 2302 2545 2467 2844 2652 2636 2527 2406 2947 3264 3652 3565 3363 2950 2422 2038 2962 3193 2417 2255 2272 2380

GFSSGP_con_mucape_078.txt.gz
CAPE
0 0 30 602 744 735 580 381 486 168 100 52 67 235 189 398 488 693 223 525 549 600 840 1078 1950 1778 1995 2148 2242 2532 2301 2456 2143 1932 1893 2086 2225 1976 1776 2118 1888 1098 1361 1467 1549 1700 1542 1751 2234
0 11 493 834 579 283 202 565 178 94 52 136 184 279 430 529 312 265 535 594 474 496 629 1005 2237 2460 2187 2310 2694 2529 2033 1913 1883 2277 2430 2312 2104 1517 2100 2136 1630 1257 1181 1308 1892 1719 1700 1900 2034
252 288 344 685 792 84 365 312 116 170 242 121 553 593 391 273 344 344 356 385 482 661 1088 1661 2694 2748 2390 2251 2507 2582 2355 2276 2092 2008 2071 2179 1515 2020 1886 2038 1954 1991 1229 1221 1635 1893 1781 1818 1914
392 575 788 716 519 471 490 644 186 202 382 390 333 478 265 384 258 327 317 360 482 847 1097 1968 2780 2492 2451 2203 2362 2309 2024 2018 2128 1856 1882 1899 1705 2179 2060 2072 1837 1857 1749 1651 1633 1486 1379 1287 1622
245 781 604 942 423 692 488 537 194 96 311 491 549 413 211 293 337 318 455 363 457 476 908 1534 2639 2663 2537 2457 2254 2173 2002 1940 2265 2155 1989 1978 2013 2009 1927 1859 1814 1785 1635 1661 1416 1541 1518 1534 1509
512 808 749 661 512 267 306 344 281 260 465 584 527 263 213 353 392 403 355 368 354 273 364 1114 2218 2381 2206 1536 1508 1677 1868 1912 2145 2221 1933 2156 1931 1953 1805 1531 1555 1694 1651 1593 1515 1568 1544 1458 1608
39 684 556 445 496 545 815 592 398 588 480 682 580 502 310 440 499 338 252 270 27 40 788 1315 1531 1707 1885 1950 2061 2057 1819 1959 2099 1756 1701 1874 1761 1906 1884 1814 1631 1560 1518 1477 1388 1366 1465 1444 1601
2 154 188 417 310 208 664 640 702 408 341 552 774 563 300 342 438 454 401 133 7 289 782 1405 1840 1188 1727 1589 1865 1874 1842 1916 1836 1773 1893 1890 1991 1994 1729 2380 2016 1629 1457 1396 1281 1392 1712 1868 1664
28 24 88 347 268 277 598 820 443 321 442 639 654 603 311 139 273 594 603 25 224 127 532 324 709 1147 1733 1802 1701 1852 1828 1916 1997 1893 2016 2085 1602 1848 1687 2219 1764 1481 1450 1389 1330 1423 1502 1621 1744
11 39 297 179 86 25 195 492 30 399 791 654 716 704 331 233 255 432 47 21 14 324 532 414 283 591 1405 999 1827 2005 1569 1534 1935 2098 1867 1049 1339 2401 1181 1698 1873 1491 1448 1357 1310 1061 740 1449 1272
11 0 2 27 29 130 304 234 844 575 701 460 695 418 384 293 276 257 25 30 114 175 370 437 944 1211 860 1535 1891 2053 1399 2094 2204 2327 1778 2208 1997 1241 1315 1706 1453 1570 1586 1105 1358 700 630 1043 1336
4 3 41 20 152 390 507 406 271 286 510 521 527 366 379 231 221 51 17 15 197 253 338 355 997 1104 1613 1601 1904 908 1456 1871 1278 2036 2911 1178 2299 580 585 1197 1986 1524 1377 1270 1024 816 1063 1562 1053
0 0 2 30 196 545 269 210 134 236 501 442 438 273 303 264 159 42 21 18 127 303 279 831 1262 580 373 2997 1354 914 1184 1144 1581 1653 1235 540 1319 1649 1773 2037 786 992 962 725 492 1081 1136 977 1257
0 0 2 6 260 537 483 226 270 465 588 658 497 236 279 164 181 108 29 35 104 201 374 846 991 1932 2154 2303 2307 1954 2058 1260 1713 1645 1645 1350 1488 2446 2685 2069 1092 579 1092 989 691 423 1016 1597 1722
0 0 4 6 20 259 316 247 368 531 438 560 493 319 320 350 147 174 160 121 152 269 470 737 806 1268 2092 2008 2097 2536 217 1178 1921 2517 2314 1221 848 2608 2270 2241 2232 1129 931 1927 1969 857 1081 1014 270
0 0 0 0 0 19 175 387 444 389 238 510 574 418 420 287 298 326 325 180 143 149 608 715 247 890 1612 2744 2152 2187 710 2366 1515 1552 1935 1115 1369 3290 2518 2568 2492 2720 1048 1809 1936 1131 948 1407 342
0 0 0 0 0 0 16 335 1244 400 495 640 498 502 446 366 502 562 321 318 168 299 583 728 934 848 1318 2440 1842 2196 1538 1758 2659 1118 795 2863 2910 2363 3161 1895 2763 2951 2246 2235 2111 322 242 1786 1177
0 0 0 0 0 0 0 332 649 148 262 402 629 512 507 418 449 704 360 349 50 240 589 1052 1046 1518 1904 1821 2488 2089 2240 1370 1036 1550 1721 2761 3078 2577 2883 2782 2714 2953 1991 1968 1251 1317 1454 348 858
0 0 0 0 0 0 0 190 228 82 0 184 510 537 523 443 521 540 485 412 115 81 559 1341 1426 1780 1529 1462 1420 1811 1738 2403 1481 1605 2824 3083 2714 2848 2468 2498 2817 2879 480 1014 2475 2829 2483 1973 299
0 0 0 0 0 0 47 316 172 72 20 21 481 587 463 608 406 713 621 493 242 145 660 1001 1443 1757 1319 1705 1607 2031 2224 1865 2723 2783 2969 2569 2958 3271 2444 1324 2563 2566 2407 3053 1886 1331 1489 1942 1194
0 0 0 0 0 0 31 476 354 129 64 438 508 682 502 777 558 699 577 544 343 296 815 829 1751 1818 1470 1850 1540 2306 2265 2464 2317 2562 2475 2795 2866 3138 1936 2781 2680 2775 2949 2303 2808 2727 1991 2016 1136
0 0 0 0 0 0 0 0 588 348 480 642 681 384 378 423 778 574 446 689 428 403 836 1021 1620 1896 1329 2153 1346 1955 1583 1818 1991 642 2224 2585 3075 3042 3096 3293 3183 3633 2565 2100 2149 2561 919 1369 1841
0 0 0 0 0 0 0 1 19 937 610 168 15 389 321 75 716 695 716 658 551 522 698 1095 1242 1953 1135 1304 1936 1795 1904 1373 2502 1976 2572 2642 3674 3483 2336 2937 3289 3737 2795 2346 2777 2479 2292 1491 2152
0 0 0 0 0 0 0 0 2 604 258 94 33 511 471 192 340 714 883 762 761 583 541 1035 1158 1601 1464 1257 1598 2107 1536 2508 2006 2400 2094 2368 2305 2960 3388 3044 3595 3456 2368 3073 3113 3234 2680 3298 3315
0 0 0 0 0 0 0 0 0 94 704 133 136 619 761 459 426 717 767 888 829 682 510 829 1165 1229 1366 1331 1046 2295 1497 1872 3067 2566 2233 1424 1880 1769 2641 3941 3769 3320 3297 3024 3598 3461 3666 3398 3382
0 0 0 0 0 0 0 0 0 0 0 734 1000 585 889 953 456 767 987 994 995 1035 721 694 1345 1336 1325 1549 880 1252 2395 1390 1757 2724 1141 2118 1286 1558 2452 2798 3329 3548 3272 3266 3454 3261 3297 3370 3295
0 5 0 0 0 0 0 0 0 0 0 18 96 252 463 334 866 848 1099 1105 1262 1178 1179 866 1472 1576 1560 1239 1477 939 2202 2362 1140 2652 3357 1404 2270 2393 2649 2816 3219 3219 3349 3162 3637 2922 3196 3307 3390
0 0 3 3 0 0 0 2 0 0 0 81 145 70 149 116 390 944 884 1122 1235 1274 1480 1323 1552 1755 1792 1322 1461 1158 975 1770 1888 1005 3131 2614 3495 3245 2962 3006 2945 3067 3583 3556 3661 2866 3368 3507 3024
34 4 5 13 6 3 0 0 12 2 0 0 224 129 9 79 241 772 1120 1058 1241 1397 1419 1658 1549 1920 2085 1967 1392 1297 1178 1143 1125 1810 1961 2478 2511 3586 3619 3545 3135 3083 2970 3506 3689 3245 3151 3177 3415
14 8 8 47 29 14 28 13 89 30 0 0 0 205 134 97 162 123 805 1208 1284 1411 1449 1768 1713 1988 2120 2102 1803 1418 1420 1183 1117 757 2435 2481 3436 4014 4355 3443 3909 2967 2786 2985 3291 3080 2065 3114 3354

GFSSGP_con_mucape_081.txt.gz
CAPE
5 0 61 280 565 188 164 141 263 56 60 21 9 271 436 528 313 108 0 190 380 602 1164 1398 2174 1762 1809 2287 2679 2553 2399 2330 2000 1923 2198 2384 2002 2244 2200 1580 1150 1618 1506 1423 2003 1554 1910 2210 2345
0 12 136 238 286 27 0 203 428 104 45 42 217 385 192 202 209 1 101 175 490 565 822 1086 2189 2221 1945 2274 2464 2444 2331 2241 2053 2260 2406 2236 1785 2116 2207 1675 1116 1326 1579 1824 1490 1875 2021 2190 2181
1 46 123 292 203 53 143 200 90 85 128 185 271 93 159 50 60 152 114 302 279 388 713 1195 2293 2664 2249 2375 2535 2473 2219 1992 2147 2167 2264 1690 2180 2083 2152 2078 1629 1145 1469 1805 1766 1751 1868 1794 1675
48 342 211 262 183 53 248 192 266 293 238 259 113 94 39 51 119 140 115 163 290 943 1145 2221 2578 2153 2319 2424 2370 2315 2150 2008 1962 2032 2214 1762 2211 2071 2231 1927 1917 1737 1651 1686 1570 1365 1255 1481 1601
259 236 218 275 475 341 375 262 256 199 364 289 208 184 96 38 71 44 118 265 641 610 1219 1994 2577 2732 2373 2190 2111 1945 1911 1939 2140 2144 1985 2167 2073 1976 1980 1894 1777 1779 1528 1501 1606 1467 1442 1444 1382
187 186 125 151 350 334 482 177 151 414 514 291 188 119 90 11 66 49 112 465 500 512 1485 1402 2450 2563 2575 2116 1868 1931 1890 1953 1914 2384 2135 2116 2195 2054 1651 1713 1816 1727 1601 1520 1584 1505 1438 1431 1579
53 121 144 42 208 333 221 144 101 423 270 127 75 100 80 28 68 7 114 216 207 509 870 1530 1648 1607 1365 1682 1481 1707 2014 1977 2067 2097 2071 1909 1980 1938 1761 1590 1527 1578 1577 1518 1412 1403 1380 1469 1544
34 48 57 65 148 8 234 283 277 400 403 172 124 115 82 48 48 27 105 114 149 623 693 1321 1082 1306 1501 1743 1997 1807 1918 2011 1853 1778 1877 1959 1964 1903 1781 2231 1952 1402 1389 1331 1402 1443 1695 1564 1726
8 8 30 83 84 0 31 291 533 390 449 393 488 187 104 93 31 32 169 59 389 545 830 901 669 1115 1191 1402 1627 1986 2009 1956 1837 1859 1947 2214 1350 1256 1371 1790 2063 1401 1357 1304 1452 1606 1653 1611 1289
12 2 41 205 137 0 243 322 208 361 397 553 449 194 142 202 56 70 51 11 178 391 561 749 328 961 1025 1196 1427 1419 1636 1533 1464 1380 764 459 893 1188 1211 1613 2028 1403 1348 1413 1780 1192 1289 51 285
0 0 79 71 53 0 52 45 28 268 226 500 266 193 80 84 128 26 14 0 27 158 120 278 310 863 812 776 1238 1247 1399 1188 1148 852 455 713 911 928 1126 1314 1403 1186 1528 1005 944 500 210 375 551
0 0 17 38 15 84 111 149 348 382 434 391 286 226 49 67 187 29 7 0 0 80 43 119 298 634 475 745 1160 1102 1013 1257 1209 1102 1034 1032 644 12 292 641 790 810 670 438 223 423 648 765 1238
0 0 19 35 59 235 195 312 123 223 370 261 266 192 56 86 117 14 1 0 0 68 128 376 561 581 859 1163 1088 1219 948 1361 905 1233 481 528 745 560 563 668 523 560 313 469 541 683 917 1200 964
0 0 3 34 42 247 267 351 157 97 276 362 273 164 123 53 64 10 0 0 0 112 288 424 375 281 347 1329 1070 708 791 1007 771 744 535 574 807 1113 725 805 670 387 12 214 641 639 1022 1074 947
0 0 0 2 0 438 410 130 75 42 299 405 291 233 79 72 109 7 0 0 0 215 392 378 549 623 822 1049 981 650 1199 1660 1290 1072 945 508 667 1182 1174 599 602 378 112 393 758 361 630 707 797
0 0 0 4 6 65 371 190 452 274 331 483 292 368 154 20 59 8 0 0 0 174 130 295 621 743 437 945 839 473 908 1431 1456 1388 941 292 747 1392 1832 1307 871 962 767 600 804 661 631 463 533
0 0 0 0 0 0 77 433 542 594 635 569 295 260 254 85 46 11 0 0 0 91 52 74 336 592 381 976 587 914 987 710 1187 1185 991 855 1203 1740 1782 1533 1339 1384 801 1252 642 291 530 881 570
0 0 0 0 0 0 0 668 648 485 468 492 333 363 292 162 42 12 0 0 0 129 35 95 370 397 372 512 445 965 544 991 733 797 676 1745 1538 1486 1735 1432 1480 949 962 999 1103 365 544 457 530
0 0 0 0 0 0 0 783 756 416 364 402 361 382 239 176 218 80 12 0 0 94 29 179 308 283 859 560 652 831 1004 626 651 1073 1169 1644 1844 1316 1443 1652 1485 1454 400 906 1240 1452 1295 1197 246
0 0 0 0 0 0 189 454 680 389 223 314 217 187 288 198 214 320 88 41 12 4 170 158 409 436 717 461 624 605 550 1014 584 983 1698 1620 1782 1394 1276 1194 1540 993 721 1082 826 880 857 988 308
0 0 0 0 0 0 109 162 398 293 109 59 134 75 309 242 181 351 245 53 20 0 156 369 539 414 725 282 474 727 1063 536 1339 906 1653 1258 1915 1605 1223 1319 1408 1563 1608 1078 1493 1085 1043 727 705
0 0 0 0 0 0 0 67 163 129 126 80 118 101 271 261 220 310 309 72 29 0 4 606 582 424 806 328 253 511 832 800 1156 1318 1093 1719 1511 1482 1378 1351 1437 1747 1288 956 1047 1443 904 661 830
0 0 0 0 0 0 0 0 127 160 120 96 136 5 0 246 230 206 145 152 94 51 0 478 797 466 271 795 104 346 410 492 913 825 1050 1360 1434 1828 1621 1376 1447 1693 1514 1243 1441 1614 1321 1212 1428
0 0 0 0 0 0 0 0 44 89 155 100 321 140 209 368 355 340 260 163 74 73 31 77 830 308 299 314 778 293 293 596 1037 565 989 1420 1699 2020 1278 1350 1985 1976 1588 1369 1306 1491 1350 1820 1838
0 0 0 0 0 0 0 0 0 276 339 281 386 623 257 335 490 379 386 210 130 61 196 45 604 542 146 140 254 1093 241 313 1017 1325 1390 1128 1322 1391 1595 1520 1782 1767 1166 1274 1630 1933 2090 2015 1785
0 0 0 0 0 0 0 0 0 3 639 454 385 574 33 402 511 472 401 293 224 120 228 288 197 733 295 44 51 339 876 257 592 1387 1308 941 953 896 1118 2095 1801 1624 1628 1541 2001 1483 1906 2018 1866
0 0 0 0 0 0 0 0 0 0 0 181 104 106 138 503 229 493 399 344 288 214 137 385 252 283 466 250 0 155 1105 304 433 642 1123 978 1050 996 926 1705 2036 1866 1797 1630 1926 1527 1749 1866 1845
0 0 0 0 0 0 0 0 0 0 0 158 277 252 577 452 303 275 400 422 385 313 321 268 411 247 532 384 145 36 280 1178 609 451 1265 1162 344 867 1281 1321 2150 1789 1887 1503 1931 1674 1700 1659 1497
0 0 7 0 0 0 0 0 0 52 0 179 389 467 591 350 195 463 378 464 458 431 450 407 579 396 480 296 468 42 22 986 1151 742 262 1287 1124 2129 1914 1705 1889 2048 1857 1989 1900 1674 1529 2021 1718
1 0 1 14 0 0 2 0 0 28 87 0 219 235 329 225 508 473 278 604 535 502 569 494 743 598 532 433 438 423 10 228 760 762 725 985 1147 1164 2008 1863 1831 1683 1577 1724 1964 1954 1805 1710 1861

GFSSGP_con_mucape_084.txt.gz
CAPE
93 10 21 148 539 66 0 145 210 63 43 0 0 22 97 364 267 0 0 64 115 9 1059 1749 2275 1846 2106 2586 2475 2245 2385 2004 1878 2240 2384 1909 2263 2043 1213 1402 1678 1432 1815 1967 1854 2035 2296 2443 2571
15 8 80 266 204 0 26 95 125 47 8 35 216 299 216 207 228 0 108 252 240 646 1110 1494 2223 2282 2220 2420 2367 2310 2163 2005 2050 2307 2228 1972 2043 2059 1404 1207 1226 1799 1559 1780 1630 2043 2234 2366 2281
0 26 120 296 38 0 44 103 49 62 338 223 152 200 96 108 48 1 131 385 444 744 874 1167 2187 2430 1654 1935 2255 2306 2124 1938 2251 2273 1768 2122 2015 2048 1680 1113 1397 1843 1720 1848 1980 1961 1814 1877 1906
86 204 178 117 3 7 58 275 117 238 161 239 109 44 34 40 37 41 274 327 348 565 779 1831 1945 1923 2233 2275 2154 2155 2151 2284 2254 2238 1649 2100 2056 2118 1937 1809 1359 1637 1784 1570 1436 1772 1623 1406 1443
168 205 189 138 173 214 94 228 277 330 256 143 114 77 87 103 61 166 267 310 588 747 1378 1948 2731 2620 2448 2361 2319 2146 2055 2079 2147 1973 1987 2179 2023 1930 1894 1781 1732 1536 1523 1585 1447 1412 1492 1278 1532
301 151 144 37 18 164 216 154 363 197 271 128 56 52 77 82 111 152 361 492 603 1026 1524 1778 2521 2521 2347 2038 2040 1993 2032 2116 2152 2189 2218 2128 1990 1738 1951 1799 1823 1643 1610 1618 1523 1583 1514 1467 1581
128 84 128 24 1 6 51 95 273 259 180 106 110 56 50 33 78 290 351 319 472 1357 1321 1540 1651 1933 2054 1916 2046 1996 2029 2091 2275 2197 2117 2033 1843 1664 1594 1730 1699 1624 1588 1539 1440 1442 1515 1661 1709
104 100 23 18 1 0 40 164 399 135 222 141 122 36 28 75 74 279 307 227 867 929 1272 1363 1390 1081 1020 1166 1850 2094 2055 2210 2201 2167 1945 2046 1966 1894 1734 2138 2012 1579 1420 1485 1538 1483 1666 1844 2191
11 22 0 9 15 4 48 62 291 442 182 142 259 110 42 106 128 209 225 205 455 651 1158 1111 893 1030 1437 1578 1463 1976 2152 2032 1927 1862 1939 1853 1462 1270 1378 1774 1718 1522 1399 1448 1625 1732 1688 1709 2007
9 3 0 160 154 37 6 23 83 196 280 180 308 65 69 65 116 136 85 218 231 666 817 625 867 994 1217 1452 1527 1563 1699 1579 1547 1501 1115 901 1197 1207 1332 1576 1527 1518 1464 1596 1303 1389 1096 190 447
17 0 299 204 21 3 0 141 146 220 290 208 230 85 73 78 114 119 118 164 280 499 540 307 616 813 918 1202 1341 1437 1509 1396 1226 764 227 644 977 1295 1027 1196 1374 1263 1458 1209 452 446 176 474 587
0 0 42 230 120 22 77 151 74 387 290 202 199 78 106 73 144 113 76 82 266 325 508 226 577 712 789 720 952 1171 1008 1008 917 586 633 757 472 425 435 637 762 756 963 599 35 133 615 671 833
0 0 0 81 69 149 96 368 458 140 206 341 196 164 156 113 84 59 44 37 162 157 265 179 496 615 528 689 935 919 881 972 945 804 788 366 367 279 336 491 379 557 493 413 457 560 694 887 966
0 0 0 105 197 200 280 364 358 47 298 241 166 134 61 100 34 0 42 0 89 28 119 156 358 506 467 739 899 923 849 1183 923 723 413 483 314 330 151 470 402 481 276 164 618 619 812 953 974
0 0 0 53 262 391 465 342 50 204 254 249 205 61 15 153 163 84 0 21 93 87 125 153 272 433 507 742 939 1064 879 966 784 463 371 511 796 336 150 385 443 236 170 266 447 543 860 868 823
0 0 0 0 191 365 252 172 390 225 707 273 216 65 69 131 159 46 0 0 94 143 144 135 188 420 599 839 955 904 627 896 678 742 588 212 687 697 523 448 218 246 83 337 571 601 597 383 525
0 0 0 0 210 472 346 230 175 567 669 347 193 135 110 117 98 3 0 66 175 178 212 286 471 397 601 565 467 960 1031 1025 980 869 484 475 942 1425 951 825 477 519 213 283 553 628 436 380 380
0 0 0 0 0 350 354 476 189 357 635 498 277 218 116 78 120 79 5 58 183 144 251 582 511 230 738 351 496 842 911 1146 1142 811 772 1000 1495 1332 1398 1002 953 1012 756 866 514 259 543 395 411
0 0 0 0 0 0 139 522 335 156 495 525 314 265 186 98 89 133 5 4 147 142 177 249 249 180 679 304 213 783 578 903 934 609 1137 1444 1266 1442 1218 1115 1103 644 823 922 895 508 343 808 180
0 0 0 0 0 0 260 534 579 321 586 259 80 278 254 145 65 43 43 42 60 91 59 127 113 57 463 446 120 470 500 677 471 733 906 1224 1411 1151 1291 1218 690 536 608 744 684 539 528 770 298
0 0 0 0 0 153 361 428 557 486 512 383 166 349 298 143 115 70 124 52 40 46 32 84 120 60 275 443 179 497 743 581 395 815 1186 1519 1497 1076 945 1184 1135 978 871 876 670 805 730 423 493
0 0 0 0 0 0 23 21 299 522 320 313 454 363 312 170 133 113 137 41 47 41 38 132 174 180 249 339 170 516 742 291 819 564 1009 1376 1452 1030 841 1069 1140 1222 1140 809 1004 1104 781 380 616
0 0 0 0 0 0 0 0 0 257 229 305 497 361 81 199 173 178 287 185 98 210 64 305 174 250 288 180 45 317 423 384 790 817 942 961 1473 1161 1036 1033 1080 1119 1025 784 1006 1408 1035 924 1197
0 0 0 0 0 0 0 0 16 132 299 102 144 110 172 337 237 222 283 305 295 148 169 362 219 201 356 200 79 73 191 322 665 888 1126 1145 1115 1320 1018 1081 1069 1161 1146 970 963 1325 1103 1575 1542
0 0 0 0 0 0 0 0 0 50 86 75 126 92 105 451 305 309 295 286 323 201 149 448 259 166 297 384 128 0 105 147 618 873 787 781 1303 1393 1341 1244 1403 1450 1175 1129 1009 1443 1369 1407 1380
0 0 0 0 0 0 0 0 0 0 178 125 101 85 67 75 252 346 330 301 295 242 186 346 375 172 117 497 423 132 14 63 316 653 488 822 1030 1232 1386 939 1381 1360 980 912 1147 1550 1352 1522 1733
0 0 0 0 0 0 0 0 0 0 0 60 105 141 114 343 312 422 372 260 250 309 285 156 447 204 109 34 86 321 499 153 35 855 1058 797 724 776 1094 1160 1238 1180 939 864 1299 1279 1081 1521 1735
0 0 0 0 0 0 0 0 0 0 78 38 83 166 361 374 487 499 424 427 324 354 304 141 189 374 186 64 19 0 157 665 282 215 802 1068 678 585 589 1089 1525 1306 1081 1308 1258 1244 1138 1321 1085
0 0 0 0 0 0 0 0 8 9 90 75 21 49 331 395 435 473 530 398 407 346 324 274 183 191 363 216 102 10 0 192 785 173 245 865 903 802 910 830 1470 1484 1366 1274 1209 1483 1284 1160 1262
0 0 0 0 0 0 0 0 0 80 181 134 162 112 81 383 379 502 497 426 356 331 329 342 343 334 312 317 235 73 0 1 636 817 112 196 966 1122 926 1016 1237 1399 1306 1241 1215 1161 1252 1244 1546

GFSSGP_con_mucape_087.txt.gz
CAPE
129 30 2 60 263 111 0 50 98 99 5 0 0 1 72 272 249 1 0 0 0 9 973 1697 2477 2054 2199 2404 2090 2359 2034 1867 2217 2235 1957 2145 2042 1488 1548 1527 1790 2203 2147 2131 2197 2322 2511 2483 2117
73 15 59 192 207 0 13 71 164 65 33 0 4 190 277 209 305 0 89 2 0 240 1359 1743 2491 2366 2424 2456 2245 2326 2049 1935 2183 2265 2021 2157 2058 1389 1556 1602 1506 1509 2053 1615 1921 2208 2504 2177 1797
33 49 95 223 1 0 42 146 169 57 12 12 267 221 151 149 15 0 133 13 224 1042 1415 1575 2017 2566 2336 2286 2290 2219 1941 2030 2060 2028 2032 2068 1925 1443 1192 1432 2065 1771 1520 1840 2047 2138 2004 1735 1736
3 148 151 153 1 0 48 213 158 157 220 237 200 132 64 116 0 136 196 265 589 1011 1078 1922 1756 1639 2005 2311 2443 2188 1877 2052 2092 1707 1979 1871 1985 1818 1137 1461 1942 1745 1849 1944 1847 1729 1768 1908 1593
119 154 84 109 103 51 72 137 276 253 370 137 105 101 49 63 198 246 246 333 563 677 1147 1462 2349 2175 2071 2014 2053 2080 2099 2046 1909 1908 2004 1868 1876 1757 1754 1488 1657 1663 1502 1338 1355 1489 1451 1566 1837
287 149 102 11 92 5 146 495 192 292 261 119 96 60 60 126 136 158 251 389 498 1098 1428 1933 2252 2110 2368 2151 2147 2086 2038 2142 1757 2099 1969 1842 1897 1718 1605 1663 1583 1692 1689 1528 1510 1410 1352 1601 1901
145 114 135 25 45 10 38 161 152 198 188 97 59 34 74 64 81 283 403 519 902 1234 1707 1867 1833 1909 2024 1990 2052 2111 2103 2205 2224 1822 1816 1847 1636 1840 1778 1780 1676 1658 1595 1490 1381 1437 1626 1697 2032
105 148 59 42 108 15 0 54 154 244 158 59 70 12 41 54 220 287 282 451 1110 1251 1467 1580 1794 1720 1683 1791 2103 2025 2078 2284 2156 2035 2000 1780 1691 1543 1692 2132 2057 1668 1575 1519 1397 1572 1400 1777 2433
59 90 34 12 90 44 60 61 167 286 148 193 295 58 35 101 188 207 204 602 866 1121 1242 1311 1343 1186 1048 1448 1768 2013 2236 2197 2141 1768 1927 1899 1519 1399 1278 1589 1796 1640 1624 1656 1609 1565 1671 2142 1921
16 42 20 102 113 118 76 67 103 210 181 184 130 68 60 153 141 165 189 251 665 890 1104 1075 664 849 1311 1432 1762 1788 1714 1688 1585 1545 1275 1204 1228 1327 1414 1561 1680 1606 1669 1850 1459 1495 302 631 620
14 30 65 214 54 50 19 31 150 390 183 81 86 67 93 108 130 154 139 207 304 680 876 757 689 1075 1313 1398 1418 1539 1651 1534 1405 1069 843 882 1126 1403 1516 1518 1477 1346 1479 682 83 345 194 364 775
0 6 68 134 123 31 38 104 116 228 351 275 122 101 68 87 140 176 87 90 211 523 556 458 618 823 966 1211 1248 1396 1378 1281 1152 298 430 819 987 977 1000 1102 1104 1264 858 425 20 187 438 631 717
0 0 7 111 95 89 217 99 62 418 464 504 150 101 76 67 136 160 109 97 250 324 428 209 491 650 724 893 1009 1131 1009 1014 795 572 676 724 249 313 471 484 550 692 715 414 203 453 573 782 965
0 0 0 60 85 137 198 217 186 271 534 379 189 115 42 23 66 148 127 100 207 227 389 168 440 603 620 482 701 798 806 912 882 603 646 532 270 238 348 338 223 534 487 368 512 584 663 840 1011
0 0 0 30 173 69 357 157 235 354 458 660 326 110 76 28 61 121 102 82 120 108 221 170 403 579 594 332 644 757 839 1007 958 892 754 421 318 246 218 424 341 413 132 282 463 546 778 795 805
0 0 0 32 434 375 362 142 341 353 493 305 272 168 162 92 57 88 106 1 81 46 118 141 304 535 481 451 600 874 866 893 1033 834 360 525 703 365 285 375 411 297 193 268 438 464 459 641 490
0 0 0 2 427 367 298 147 217 354 368 184 189 182 159 125 125 10 71 0 90 97 80 128 261 406 584 665 769 827 969 816 830 636 545 433 678 669 555 395 291 224 109 266 467 510 354 369 488
0 0 0 0 186 366 247 238 206 226 591 308 159 84 95 145 251 173 98 0 52 105 73 125 219 344 566 515 723 798 777 815 688 806 530 699 869 1107 995 743 487 412 252 353 499 464 447 469 304
0 0 0 0 0 0 281 208 296 97 588 494 252 45 81 111 212 128 199 0 30 84 91 143 193 331 543 495 667 848 942 959 827 815 665 701 1205 1174 1155 792 793 930 617 759 483 540 315 576 288
0 0 0 0 0 0 4 202 354 193 597 359 312 121 96 116 164 89 108 62 76 70 63 174 202 217 506 336 458 705 854 846 843 781 856 1249 1167 1123 939 927 731 880 690 836 783 708 521 673 199
0 0 0 0 0 373 145 235 276 132 359 592 361 218 180 129 100 137 149 144 81 64 25 186 257 226 369 281 157 444 578 606 686 664 792 965 1337 1097 1152 950 602 514 727 600 621 622 529 130 179
0 0 0 0 0 0 35 6 109 239 174 375 580 350 310 225 101 95 149 77 88 101 77 68 203 161 147 242 74 265 656 504 633 560 806 1037 1363 1080 928 1051 957 420 693 760 610 802 445 238 102
0 0 0 0 0 0 0 0 0 265 429 312 339 359 326 343 193 131 143 122 135 106 108 41 0 25 46 221 168 58 438 662 602 452 797 1200 1325 1295 698 1058 984 1109 942 625 947 1081 762 978 655
0 0 0 0 0 0 0 0 0 203 320 233 333 318 292 331 316 188 208 178 125 149 152 83 52 9 22 57 192 2 346 600 417 710 532 865 1258 1270 1086 910 905 904 990 828 928 1234 934 1020 1353
0 0 0 0 0 0 0 0 0 1 27 91 129 206 237 374 334 331 282 218 158 136 139 115 244 74 62 27 73 37 76 425 381 480 839 771 900 1365 1172 897 1009 1082 1057 884 904 1193 1100 1067 1259
0 0 0 0 0 0 0 0 0 0 0 0 2 33 70 344 369 194 175 246 192 170 185 179 286 213 113 68 2 11 0 185 210 362 643 860 951 1006 1288 1122 1071 1193 1139 1041 944 1337 1299 1430 1288
0 0 0 0 0 0 0 0 0 2 1 0 0 0 1 49 395 235 236 245 247 265 285 303 351 260 132 142 54 22 0 0 0 168 569 897 793 1052 1087 1312 1203 1331 1283 977 991 1200 1363 1243 1376
0 0 0 0 0 0 0 0 0 90 75 29 29 29 9 18 19 94 349 318 265 247 267 295 346 259 156 145 149 97 34 0 0 37 642 931 776 698 903 1148 1267 1073 1219 756 1031 1147 1158 1040 1146
0 0 0 0 0 0 0 0 0 24 132 103 99 35 16 41 64 77 278 295 303 265 249 289 337 310 259 180 134 85 66 161 143 27 58 412 1076 972 777 667 1147 1253 1192 1137 935 1019 1146 1152 1199
0 0 0 0 0 0 0 0 0 0 88 170 201 141 151 121 134 286 247 209 204 225 244 297 342 308 307 268 179 144 12 0 178 225 256 172 355 812 939 652 626 1174 1415 1380 1136 1134 1249 1306 1019

GFSSGP_con_mucape_090.txt.gz
CAPE
138 28 10 77 138 93 0 23 65 45 0 0 0 0 2 81 104 0 0 0 0 117 1028 1768 2302 1939 2179 2140 2256 2026 1817 1960 2423 1911 1857 1720 1557 1505 1562 2297 2360 2280 2286 2161 2222 2204 2333 2117 2166
43 15 64 287 67 0 16 77 134 59 3 0 0 135 249 132 197 0 0 0 0 467 1281 1808 2574 2276 2319 2228 2227 2003 1817 2237 2125 2010 2014 2075 1380 1553 1819 1495 2019 2125 1970 2060 2167 2293 1999 1855 1917
14 33 46 34 5 0 13 119 185 84 3 31 195 135 154 74 0 0 0 0 159 1022 1377 1618 2222 2530 2382 2117 2223 2003 1814 2213 2088 1968 1974 1982 1450 1331 1284 1806 1742 1818 1900 2178 2158 2072 1919 1910 1806
14 42 79 213 7 0 25 33 73 73 22 122 110 104 65 26 0 27 0 114 632 1063 1315 1900 2164 2262 2192 2142 2243 1990 1977 2024 1971 1951 1923 1897 1723 1188 1656 1595 1853 1933 1870 1993 1929 1923 1748 1739 1762
52 113 72 83 22 4 59 213 111 97 278 120 134 69 28 29 18 0 68 327 647 939 1205 1368 1975 1912 2178 2248 2105 1743 1958 2042 1705 2039 1848 1681 1810 1676 1398 1631 1788 1431 1560 1767 1777 1717 1680 1898 1954
242 144 99 48 98 4 26 180 240 258 131 82 88 107 67 79 25 35 138 350 580 838 1236 1400 1843 2027 1924 1849 1896 1796 2010 1980 1733 1895 1827 1820 1869 1807 1647 1574 1543 1583 1384 1523 1582 1502 1833 2013 2209
163 118 105 46 27 33 1 34 356 289 136 63 90 107 148 64 26 106 176 363 737 1075 1314 1696 1549 1651 1884 1705 1939 1980 2021 1804 2001 1795 1872 1865 1889 1786 1812 1735 1721 1710 1568 1413 1343 1705 1939 2192 2320
143 143 35 22 83 35 0 52 160 295 124 66 80 43 80 71 113 215 332 609 863 1270 1476 1516 1409 1550 1431 1629 1777 2068 2033 2099 2052 1826 1914 1716 1710 1721 1666 2019 2036 1553 1454 1330 1581 1581 1789 2071 2290
119 32 13 4 45 26 59 168 94 194 96 264 287 120 22 139 134 131 349 529 748 1193 1321 1471 1501 1452 1441 1562 1704 1918 2097 2089 2157 1832 1920 1883 1542 1350 1444 1851 1792 1754 1570 1408 1334 1281 1918 2048 2094
82 19 2 72 51 16 50 29 110 204 190 100 133 37 120 136 97 116 125 131 273 888 1004 1200 1102 798 1100 1429 1609 1698 1845 1801 1649 1548 1566 1415 1355 1389 1458 1797 1767 1736 1895 1487 1580 1117 1508 818 983
47 30 12 239 129 36 58 46 154 221 231 85 27 72 120 117 67 94 14 0 124 341 772 839 725 641 1013 1349 1537 1466 1509 1498 1363 1360 940 1189 1204 1457 1586 1587 1553 1716 971 541 726 335 491 952 1065
1 5 26 137 237 74 22 80 1 96 269 112 41 113 98 91 77 76 52 74 203 345 651 652 334 832 1146 1172 1161 1329 1393 1295 1204 905 763 1013 1079 1231 1418 1469 1292 1312 578 16 162 482 565 762 925
4 0 3 125 42 43 92 214 229 242 513 179 54 96 59 61 62 60 8 41 169 306 517 452 355 694 854 984 1009 1149 1166 1095 980 353 456 810 829 639 824 871 1028 952 615 140 331 569 768 900 1130
0 0 0 88 63 182 181 102 166 482 529 272 85 43 46 61 60 48 13 0 62 158 264 222 243 393 553 670 790 878 867 821 768 524 475 659 121 222 410 406 321 517 486 249 613 608 688 967 973
0 0 0 25 111 194 259 185 205 417 458 207 119 38 46 88 69 70 37 0 4 79 171 104 143 349 402 375 478 518 623 646 811 698 689 657 389 187 289 400 344 449 457 417 526 618 733 738 497
0 0 0 86 174 265 242 87 235 547 708 320 150 97 32 85 76 76 52 0 34 8 114 52 132 302 368 217 275 407 555 680 812 705 650 483 493 268 144 389 417 386 167 395 394 586 541 612 363
0 0 0 85 322 366 419 126 427 466 523 648 250 146 78 53 39 38 114 2 12 0 31 19 127 272 392 298 240 399 592 671 701 707 639 405 536 571 208 304 394 292 181 330 667 567 391 389 413
0 0 0 0 175 341 436 237 328 534 549 589 326 205 126 78 67 61 106 3 0 0 0 0 98 231 326 330 473 547 612 728 681 717 588 451 398 896 571 423 291 268 172 333 557 537 374 348 335
0 0 0 0 0 303 271 188 205 402 444 404 433 258 168 126 102 67 43 105 0 3 0 0 46 170 335 445 474 643 714 668 649 626 701 386 556 911 824 572 499 545 371 421 503 570 394 426 246
0 0 0 0 0 0 0 13 228 235 629 556 364 330 243 168 120 102 86 44 0 0 3 0 36 122 278 481 562 647 644 690 723 605 664 825 1035 975 826 648 699 767 602 718 641 634 450 591 189
0 0 0 0 0 300 71 80 201 212 472 638 611 346 235 174 135 136 172 136 26 0 77 0 24 104 279 457 450 518 664 590 666 707 500 863 1031 972 950 768 695 722 669 784 732 546 459 228 259
0 0 0 0 0 0 19 0 54 294 273 636 531 518 303 143 133 128 174 74 179 23 38 80 48 70 235 439 354 481 585 537 503 554 601 671 1097 1036 988 874 629 527 661 563 508 569 447 181 232
0 0 0 0 0 0 0 0 0 181 328 257 619 579 424 258 206 130 171 106 119 35 47 90 75 48 186 356 262 295 465 429 444 515 466 636 905 1132 906 800 783 726 512 658 889 762 696 593 587
0 0 0 0 0 0 0 0 0 0 18 108 89 286 451 335 297 230 129 109 146 104 5 55 97 88 115 194 211 114 251 467 427 496 491 535 838 1104 1009 673 765 891 865 662 648 1110 877 772 1238
0 0 0 0 0 0 0 0 0 0 0 0 0 5 75 233 329 326 238 140 129 163 150 137 104 125 102 96 97 12 22 323 527 428 373 460 600 1031 1144 980 865 853 826 902 773 1066 1039 1078 1258
0 0 0 0 0 0 0 0 0 0 0 0 0 0 0 56 257 199 357 249 174 175 200 175 143 102 193 92 1 45 0 74 467 418 252 529 595 713 946 1119 837 924 926 912 839 1014 1125 1187 1033
0 0 0 0 0 0 0 0 0 0 0 1 17 1 0 0 140 228 235 399 292 244 279 227 151 83 155 236 68 0 0 0 223 364 233 289 537 715 860 1021 949 1000 1050 1034 962 951 1158 1248 1284
0 0 0 0 0 0 0 0 0 0 0 13 60 61 9 9 26 217 265 299 361 336 289 322 226 171 183 294 198 72 0 0 0 106 125 242 452 726 794 909 993 1068 1152 1189 909 926 1013 1199 1044
0 0 0 0 0 0 0 0 0 1 3 0 77 144 68 51 76 76 171 265 290 194 117 190 290 279 210 362 301 132 42 0 0 0 10 293 465 677 716 660 872 1034 1070 1087 1095 887 996 1042 1022
0 0 0 0 0 0 0 0 0 9 14 2 247 228 260 226 258 116 110 239 233 217 185 142 213 292 298 244 320 254 134 38 0 0 0 3 244 431 797 915 719 1088 1041 1045 1074 1084 1251 1082 1106

GFSSGP_con_mucape_093.txt.gz
CAPE
87 1 0 66 103 114 9 70 73 27 0 0 0 0 0 0 55 43 0 0 1 266 880 868 1804 1849 2005 2055 1918 1806 1726 2211 1993 1732 1720 1638 1595 1804 2334 2263 2296 2474 2350 2451 2444 2294 2211 2314 2470
36 0 6 256 33 69 50 124 181 26 0 0 0 0 241 224 74 0 0 0 39 356 886 1086 2213 2217 1980 2118 1903 1680 1868 2235 2040 2073 2084 1527 1601 1700 1647 2007 2008 2000 2226 2314 2405 2099 2035 2141 2236
4 4 246 215 27 73 117 110 146 13 0 4 188 169 271 194 0 0 0 17 195 722 1087 1497 1911 2228 1990 2078 1993 1750 2034 1962 1943 1968 1932 1459 1418 1556 1485 1571 1853 1768 2061 2315 2249 2144 2064 1993 1884
10 50 258 312 128 9 19 177 43 17 11 238 207 113 57 0 0 0 0 82 412 887 1096 1848 2165 2164 2018 2079 2031 1732 2128 2000 1765 1843 1772 1769 1165 1695 1486 1595 1742 1863 2024 2120 1994 2026 1957 1922 1994
85 345 189 170 18 21 99 368 33 4 13 203 176 31 10 72 0 0 14 139 386 656 1154 1693 2477 2365 2046 1890 2025 1820 1941 1886 1717 1818 1687 1724 1353 1621 1599 1789 1735 1769 1908 1894 1901 1891 2028 1917 2021
420 325 139 228 40 24 133 138 266 184 124 76 71 50 19 108 0 0 34 177 334 668 962 1120 1823 1955 2110 2073 1689 1695 1915 1643 1969 1853 1868 1786 1736 1731 1662 1571 1527 1450 1596 1808 1773 2069 2189 2222 2121
211 259 170 81 101 39 47 101 381 386 102 81 50 58 76 12 0 15 158 366 462 766 1019 1180 1396 1742 1801 1727 1771 1687 1949 1732 1866 1801 1897 1763 1722 1741 1822 1668 1785 1517 1573 1440 1821 2066 2169 2364 2363
242 219 56 43 129 117 8 141 155 433 80 62 49 45 19 25 39 89 294 511 597 671 979 1571 1761 1778 1630 1836 1743 1734 1834 1839 1855 1815 1754 1823 1807 1823 1569 1665 1760 1515 1435 1711 1752 1895 2095 2198 2477
24 57 21 3 84 107 61 131 132 213 147 317 113 115 5 26 60 135 363 530 661 766 949 1195 1510 1588 1631 1477 1677 1709 1855 1883 1902 1692 1807 1989 1856 1785 1627 1800 1782 1567 1438 1548 1425 1822 2165 2206 2343
54 62 13 56 49 46 79 70 239 259 184 130 143 82 7 47 57 124 260 397 448 753 1138 1300 1424 1454 1618 1571 1808 1917 1944 1934 2040 1989 2100 2214 2099 1825 1677 1844 1873 1829 1407 1509 1650 1926 1404 1347 1801
50 78 12 146 95 65 61 117 168 257 223 143 103 42 1 25 42 98 167 254 485 771 1070 1195 1296 1183 1359 1516 1741 1807 1782 1809 2201 2025 1847 2002 1972 2002 1956 2183 1942 1730 1146 1389 785 869 1226 1649 1712
1 0 17 136 136 78 17 121 97 120 274 148 105 0 0 16 57 98 121 124 236 630 835 861 1029 901 1373 1851 1481 1513 1432 1511 1412 1504 1319 1971 1724 1941 2200 2022 2174 2022 792 879 1121 949 1560 1683 1907
7 0 0 60 190 63 88 153 23 170 260 95 52 0 0 24 82 82 54 50 85 202 505 715 655 1043 1346 1639 1452 1408 1283 1315 1450 971 1061 1460 1466 1753 1900 2057 1734 1699 1263 830 1254 1449 1625 1813 1885
1 0 0 112 205 68 141 185 219 289 338 137 40 1 40 140 154 135 67 48 104 249 457 692 379 1116 1345 1384 1536 1465 1282 1356 1166 883 1349 1203 1205 1307 1291 1535 1431 1516 1361 1212 1605 1698 1764 1934 1792
0 0 0 0 80 216 180 75 133 367 377 210 155 104 107 136 142 175 144 110 75 218 477 550 341 745 1148 1230 1333 1231 1156 1194 1394 1559 1430 1550 1218 1128 1399 1062 1008 1292 1190 1036 1564 1665 1750 1594 1226
1 0 0 120 76 121 296 124 261 586 629 293 232 178 161 182 182 181 183 59 20 0 407 395 163 538 913 1028 1132 1060 1213 1434 1603 1730 1519 1535 1443 1332 1129 1401 1188 1204 847 1328 1355 1520 1322 1303 1238
0 0 0 130 195 349 347 191 619 625 577 375 168 198 170 186 204 245 251 130 0 26 323 299 342 689 840 1044 831 1064 1410 1485 1676 1666 1511 1116 1391 1305 756 1098 1421 981 994 1276 1407 1481 1248 1335 1198
0 0 0 0 280 472 300 263 550 690 650 441 338 198 179 152 184 258 275 262 92 56 254 328 402 808 1084 1004 960 1082 1470 1542 1625 1677 1623 1196 1460 1521 1191 999 1384 1148 826 1143 1462 1576 1368 1338 1135
0 0 0 0 18 386 60 81 320 672 665 810 451 350 227 150 140 215 293 271 205 97 163 426 579 966 1058 1012 926 1121 1393 1601 1983 1666 1619 1356 1100 1765 1818 1395 1284 1246 1091 1133 1707 1399 1457 1282 1202
0 0 0 0 0 20 5 1 220 502 823 853 710 425 329 241 156 166 240 208 226 187 146 469 619 988 1108 1086 1283 1433 1651 1662 1727 1674 1677 1240 1484 2128 2155 1663 1627 1570 1325 2019 1759 1725 1299 1540 1047
0 0 0 0 0 129 149 126 415 446 741 836 770 621 457 396 287 190 217 150 221 271 263 429 710 843 1068 1096 1287 1386 1526 1571 1621 1685 1582 1943 1324 1766 2080 1735 1751 2031 1729 1631 2053 1815 1712 1109 1122
0 0 0 0 0 0 24 26 177 398 507 714 767 640 506 466 381 279 209 146 146 286 336 482 695 822 924 1155 1258 1568 1369 2076 1404 1691 1662 1697 2108 1943 1759 1948 1680 1747 1571 1790 1773 1616 1536 1196 880
0 0 0 0 0 0 0 0 0 542 256 155 386 762 620 329 374 382 222 223 193 227 306 419 692 815 868 1040 1343 1537 1552 1396 1418 1505 1916 1919 2346 2211 1553 2176 1853 1701 1508 1990 1878 2087 1916 1536 1253
0 0 0 0 0 0 0 0 0 0 1 76 140 137 521 531 251 351 311 210 224 243 302 330 659 1107 911 1005 1101 1433 1636 1477 1431 1469 1552 1622 2494 2184 2310 1921 2114 2191 1811 1965 1949 2376 2237 2032 2376
0 0 0 0 0 0 0 0 4 7 5 10 17 35 95 207 542 420 330 208 197 275 329 352 679 1143 993 886 1023 1058 1343 1699 1822 1947 1563 1585 1666 1870 2456 2229 2253 2205 2403 2192 1998 2370 2457 2298 2348
0 0 0 0 0 0 0 0 7 2 4 5 16 30 15 44 138 619 422 342 169 370 436 371 781 1123 831 849 1164 1331 1131 1001 1214 1716 1349 1409 1464 1703 2384 2519 2347 2160 2147 2085 2173 2086 2168 2323 2254
0 0 0 0 0 0 0 0 0 0 0 3 24 117 138 248 48 346 613 383 265 377 589 572 869 1097 889 835 1293 1056 1185 1012 1112 1572 1795 1463 1788 1690 2133 2354 2403 2154 2345 2262 2402 2004 2504 2530 2680
0 0 0 0 0 0 0 0 3 4 7 0 35 132 127 208 214 111 575 473 301 387 492 531 682 993 1196 840 1081 855 794 834 878 1268 1578 1562 1709 1862 1944 2187 2233 2288 2354 2485 2502 2222 2296 2441 2339
0 0 0 0 0 0 0 2 16 9 1 0 44 175 477 109 92 242 503 646 257 261 431 478 523 661 772 766 1055 1115 810 660 768 716 1215 1553 1781 1983 2125 2301 2323 2362 2424 2547 2573 2364 2148 2331 2444
0 0 0 0 0 0 0 1 9 8 3 5 28 117 205 377 148 133 212 284 307 310 306 432 383 503 593 893 1146 877 936 807 669 655 640 1072 1549 1945 2129 2146 2164 2180 2297 2515 2464 2215 1912 2145 2155

GFSSGP_con_mucape_096.txt.gz
CAPE
1 1 5 180 334 103 44 237 85 93 74 2 0 0 0 17 267 549 0 26 268 476 736 1178 2309 2150 1940 1942 1868 1727 2179 2017 1775 1719 1689 1633 1877 2341 2301 2171 2124 2443 2528 2500 2309 2316 2446 2617 2350
12 0 255 483 140 76 441 305 137 100 22 0 0 0 88 486 47 0 10 77 288 473 721 851 2264 2252 2240 2027 1737 1667 2212 2097 2117 2203 1622 1641 1563 1949 2173 1980 2135 2367 2515 2480 2199 2217 2347 2464 2588
4 42 539 810 68 512 506 445 162 13 0 41 0 387 404 574 0 0 22 124 315 663 932 1468 1892 2184 2175 2044 1832 1876 2140 2064 2207 2072 1589 1647 1973 1546 1780 2089 1934 2234 2394 2354 2300 2167 2039 1983 2039
214 458 732 659 178 224 297 449 18 0 0 308 186 304 75 69 0 0 30 126 446 754 941 1542 1930 2129 2073 2165 1865 2002 2012 1963 1912 1865 1778 1243 1752 1724 2115 1893 1937 2169 2140 2085 2188 2099 2038 2115 1999
276 833 610 278 296 100 423 61 0 1 160 312 216 50 23 0 1 1 45 155 476 617 1083 1427 2341 1924 1888 1989 1828 1836 2029 1781 1737 1736 1797 1285 1821 1705 1883 1935 1982 2089 1979 2023 1981 2012 2027 2108 2280
653 730 477 205 402 362 492 487 0 6 411 188 103 8 160 29 0 0 70 231 415 627 1042 1482 1967 2034 1990 1969 1853 1815 1911 1681 1882 1861 1729 1806 1827 1710 1795 1616 1754 1794 1988 1984 2088 2110 2342 2210 2371
543 750 380 294 423 302 91 533 456 430 181 156 121 89 91 0 0 17 89 193 381 606 1029 1269 1430 1897 2004 1821 1828 1851 1688 1894 1905 1808 1814 1715 1790 1839 1728 1694 1661 1780 1753 1991 2091 2194 2347 2298 2541
582 673 275 194 263 282 32 203 312 487 296 128 159 81 46 0 3 18 108 213 392 745 1096 1103 1131 1402 1648 1673 1649 1841 1784 1868 1870 1973 1778 1853 1966 1775 1691 1951 1932 1740 1893 1930 2069 2162 2207 2504 2413
242 529 166 174 246 221 128 204 360 636 221 293 192 130 0 0 7 60 147 249 542 767 799 926 1423 1501 1411 1522 1804 1844 1836 1895 1685 1781 1807 1560 1702 1422 1546 2022 1587 1653 1775 1649 1973 2100 2263 2412 2317
414 299 149 135 207 254 196 238 367 578 487 393 254 0 0 0 13 52 135 398 564 645 480 952 899 1207 1317 1276 1733 1730 1537 1717 1680 1846 1751 1699 1740 1919 1444 1892 1748 1597 1574 1864 1939 1586 1583 2117 1489
278 306 115 270 154 122 80 131 154 339 434 240 384 95 3 6 1 37 295 453 469 367 491 703 1183 1182 1281 1993 1646 1557 1397 1392 1805 1766 1442 1493 1416 1526 1657 1762 1191 1264 1862 1291 1459 1503 1621 1833 1517
155 52 53 251 186 54 62 58 73 241 413 265 376 48 0 5 17 114 289 404 524 386 539 784 865 1264 1242 1448 1095 999 1291 1260 1243 1636 1643 1485 1401 1512 1226 1087 1254 890 967 1497 1369 1487 2023 2075 2081
19 0 2 31 229 113 94 109 115 343 301 231 131 0 0 0 26 140 216 306 378 545 522 622 714 772 1714 1426 979 991 1211 1335 1461 1443 1683 1315 1085 1430 1254 1445 1211 1099 995 1295 1335 1705 1977 1913 1677
65 3 0 8 64 188 127 69 161 628 200 183 16 8 0 0 52 178 198 159 64 147 404 563 397 858 1158 1355 1353 1230 1192 1623 1354 1300 1759 1698 1155 1213 1382 1436 1367 1346 1166 1316 1565 2060 1984 1888 1415
8 0 0 3 48 85 245 222 163 870 384 158 20 0 0 48 163 183 132 76 20 127 359 528 276 991 1227 1425 1453 1380 1436 1312 1378 2170 1778 1778 1448 1588 1359 1291 1253 1305 1422 1696 1874 1992 1934 1301 1191
18 0 2 0 17 158 248 148 202 320 449 335 20 0 35 178 217 180 45 4 0 79 384 416 172 804 1168 1209 1235 1163 1353 1549 1466 2339 1415 1867 2091 1907 1863 1682 1319 1504 1216 1519 1506 1508 1465 965 721
5 59 1 17 12 288 466 190 341 937 690 839 262 48 121 261 219 145 32 31 0 72 318 376 375 523 972 1451 1417 1430 1773 1359 1198 1960 1589 1869 2080 1906 1253 1476 1907 1581 1391 1436 1393 1447 1438 1057 813
47 32 0 15 153 498 322 275 733 823 954 739 880 474 299 247 217 108 298 179 0 23 210 362 535 824 1140 1315 1395 1363 1754 2390 1559 1310 1778 1871 1996 2049 1409 1454 1789 1301 1327 1377 1466 1590 1164 968 1044
29 9 0 0 296 422 245 133 695 946 884 802 716 704 503 339 124 212 504 461 143 0 213 354 683 1348 1329 1274 1133 1405 1542 2703 1482 1463 1634 1999 1680 1984 2019 1385 1762 1400 1214 1443 1940 1533 1465 979 1163
0 0 0 0 86 163 27 2 25 688 593 955 881 554 477 417 174 241 604 615 394 123 309 524 847 1618 1689 1506 1638 1421 1548 1598 1521 1830 2033 1587 1618 1709 1489 1568 1340 1372 1412 2185 1916 1735 770 874 1203
2 6 0 0 0 7 63 165 436 289 588 987 893 711 690 445 349 150 399 715 563 279 306 650 943 1544 1765 1544 1976 2370 2108 2369 2122 2334 1517 1563 1602 1440 1401 1493 1512 1993 1970 1303 2005 1900 2028 795 1052
0 1 0 0 0 19 17 2 117 501 706 881 967 961 814 724 426 323 462 667 678 572 403 493 1149 1500 1724 2003 1762 1977 1127 1036 1255 1721 1736 1374 1263 1586 1363 1394 1660 1775 1603 1686 1899 1708 1568 1966 878
18 0 0 0 0 0 0 0 189 372 268 283 967 985 961 1086 723 561 445 628 623 711 613 607 1086 1439 1473 1886 1917 2111 1702 749 930 1495 2940 1936 1592 1500 1451 1519 1721 2263 1904 2017 1969 2377 2172 1121 1118
0 0 0 0 0 0 6 0 66 99 140 235 302 353 924 726 765 640 624 599 660 661 728 684 1155 1614 1744 1787 2101 2160 1659 1403 1309 1449 3385 2527 1645 1530 1721 2140 2257 2547 2028 2374 2250 2514 2519 2167 1839
0 0 0 0 0 0 0 17 86 43 91 127 201 234 268 452 724 660 889 672 694 754 845 905 1124 1791 1914 1773 1802 2007 2154 2156 1884 2074 894 1731 1470 1459 2629 2278 2332 2083 2403 2569 2259 2545 2149 2482 2145
0 0 0 0 0 0 0 15 16 15 63 103 64 70 186 312 330 577 564 904 768 801 1033 1102 1299 1749 1932 1903 1922 2059 2197 1918 1703 1616 865 1341 1264 1489 2596 1730 2146 2012 1812 2352 2593 2332 1770 2088 2291
0 0 0 0 3 1 0 27 13 16 39 56 361 208 122 405 391 372 1093 1009 909 862 1013 1246 1453 1842 2012 1791 2017 2131 2254 2074 1396 1249 1457 1317 1526 1363 2395 2129 1385 1557 1800 2177 2502 2059 2324 2283 2459
0 0 0 0 1 0 0 7 106 14 14 13 70 185 127 222 525 509 648 985 1015 1003 966 1215 1757 1972 2039 1732 1727 1931 2110 2126 1938 1507 1641 1577 1530 1862 1914 2506 2226 1808 1678 2048 2189 2018 2360 2590 2145
0 0 0 0 0 1 19 42 11 23 21 7 57 251 192 145 236 512 595 666 1127 1000 831 1068 1386 1505 1632 1635 1651 1819 1967 1887 1898 1487 1509 1710 2122 2098 2209 2590 2480 2247 2150 2378 2688 2207 1743 2414 2129
0 0 0 2 0 0 25 73 26 0 4 16 147 259 227 320 161 177 331 401 464 635 915 1022 1110 1190 1302 1470 1501 1656 1705 2154 1625 1612 1394 1409 1884 2320 2206 2177 2749 2643 2583 2656 2437 1704 1669 2206 2170

GFSSGP_con_mucape_099.txt.gz
CAPE
1 0 17 237 643 341 482 301 310 120 65 37 29 61 292 518 476 357 113 371 510 404 727 1422 2330 1797 1913 1869 1745 1847 1880 1768 1729 1650 1636 2061 2315 2261 2188 2281 2589 2599 2575 2334 2432 2300 2550 2508 2315
1 0 188 896 694 467 644 444 168 185 31 6 11 30 331 521 82 40 143 377 372 317 482 1276 2576 2308 2052 1844 1679 2124 1954 2016 1983 1670 1627 1473 2148 2152 2083 2295 2473 2583 2576 2338 2418 2415 2510 2560 2530
556 7 652 1192 746 645 663 274 153 24 0 4 104 282 770 45 4 90 229 335 396 525 658 1908 2335 2357 2069 1817 1852 2070 2049 1963 1990 1635 1778 2167 1645 2054 2159 2101 2350 2432 2439 2535 2237 2187 2168 2425 2037
77 398 756 1139 408 619 663 147 16 6 82 9 234 299 275 6 3 149 234 398 566 754 969 1827 2153 1957 2073 1911 1790 1918 1965 1965 1979 1674 1408 1680 1975 2113 2008 2028 2238 2300 2246 2357 2243 2160 2063 2228 2179
354 1042 1009 465 457 659 441 49 0 60 224 165 273 285 6 3 8 139 270 397 498 805 895 1303 2563 2014 1962 1906 2007 1928 1853 1801 1875 1855 1445 1941 1789 1912 1902 2021 2184 2128 2171 2196 2107 2056 2114 2307 2312
812 1109 581 415 513 663 414 36 3 313 410 298 316 174 153 83 8 138 225 377 410 622 961 1282 1979 1967 2011 1767 1633 1952 1878 1961 1973 1894 1831 2044 1886 1822 1891 1961 1982 2084 2160 2151 2325 2318 2377 2396 2467
805 1205 470 312 571 678 778 155 25 325 422 334 259 309 160 2 45 93 284 440 416 870 859 1169 1534 1883 1966 1834 1834 1940 2006 1954 2039 1961 1894 1908 1799 1886 1761 1688 1951 1990 2151 2167 2336 2296 2393 2566 2342
835 669 365 401 536 649 438 758 737 541 402 230 364 146 55 45 62 148 265 335 397 577 680 998 944 1366 1654 1738 1851 1924 1890 1962 2004 1956 1865 2038 1902 1798 1766 2319 1998 2074 2065 2151 2153 2260 2452 2344 1973
694 651 267 207 228 601 265 402 627 853 350 346 577 84 20 36 90 175 224 322 409 450 489 771 1312 1436 1865 1583 1877 1863 1944 1915 1990 1721 1649 1696 1715 1622 1464 1989 1883 1899 1845 2038 2092 2136 2372 2433 2206
498 289 356 275 264 496 412 512 724 594 540 532 422 17 0 59 122 170 169 277 305 465 623 1000 1174 1269 1535 1130 1751 1892 1465 1777 1803 1674 2081 1694 2254 1803 984 1602 1814 1750 1948 1899 1761 1877 2304 2604 1892
483 213 353 335 228 200 369 505 226 586 637 493 110 22 0 81 154 121 156 189 404 346 719 1037 1407 1713 1544 1629 1516 1504 1851 1430 1873 1567 1996 2263 1193 1547 933 1395 1422 1483 1859 1443 1532 1533 1648 1704 806
215 305 249 240 123 251 191 126 115 439 376 373 174 37 4 81 78 111 175 236 320 343 682 1087 1440 1973 1639 1160 1287 1497 1430 1504 1340 1083 1287 1548 2125 2177 2703 1074 906 1278 1927 1486 1895 1614 1833 1233 987
226 113 51 335 246 193 52 9 126 389 325 522 518 34 2 17 53 105 135 236 254 440 498 528 1019 1726 1284 1651 1068 1034 1207 1586 1043 1334 1685 1873 1403 1306 1348 1287 1032 1087 1268 1472 1765 2116 1886 1720 1159
149 85 32 158 307 208 119 55 163 546 432 581 311 27 4 7 31 98 140 239 269 369 369 549 573 1529 1467 1352 1353 1391 1595 1370 1797 1503 1483 1218 1212 1352 1135 1362 1023 1043 1091 1619 2265 2367 2142 1454 1126
206 197 1 84 249 216 202 136 217 516 371 227 125 44 11 14 47 88 136 173 169 269 355 483 532 844 1311 1191 1227 1930 1186 1508 2214 1625 1826 1640 1367 1365 1327 1817 2094 1109 1654 1725 1789 2352 2012 2299 658
141 114 60 19 27 230 277 209 769 486 516 168 109 53 18 19 49 63 80 75 97 178 369 375 363 806 1053 1340 1388 1677 2131 1620 1625 1317 1531 1821 1878 1749 2142 1434 1102 1543 1382 1276 1757 2571 1565 622 543
174 157 79 33 104 243 136 179 358 236 633 179 80 57 54 89 116 59 8 1 65 238 385 336 478 795 1006 1279 1231 1225 2013 1335 1416 1889 2031 2027 2018 1838 2381 2086 2229 1811 1451 1781 1776 1844 1589 958 616
163 122 132 144 79 380 242 87 502 303 616 291 102 67 106 218 188 61 5 9 2 198 347 490 489 1045 1335 1394 1747 1766 1303 1519 1653 1533 1580 1867 2242 1998 2044 2186 2071 1878 2210 1224 2017 2857 1000 1491 824
117 52 40 144 175 224 113 181 574 1063 807 894 302 109 120 163 219 85 45 25 6 120 275 567 744 1422 1484 1240 1018 1630 1877 2115 2239 1548 1719 1853 1857 1867 2101 1650 1764 2110 1997 2136 1775 1135 1602 890 519
93 118 80 223 365 169 110 4 247 589 632 771 963 551 290 356 236 135 264 156 10 61 217 576 1106 1554 1439 1070 1926 2416 1811 1861 2599 1590 1831 2305 1554 1659 1673 1987 1518 2589 1889 1941 1767 1760 1755 874 665
101 98 36 22 356 92 15 84 210 283 460 863 832 700 644 389 235 190 287 275 182 75 303 615 1320 1748 1842 2522 2437 1592 2251 1824 1838 1869 1740 1715 1664 1504 1767 1600 2666 1825 1599 1646 1707 1753 2544 1804 530
11 38 40 56 6 115 11 47 167 282 913 1097 981 970 706 517 524 217 273 393 251 151 254 663 1276 1858 1835 1760 2364 1966 1444 1289 1637 2398 1424 1608 1663 2357 1668 1776 1816 1861 2292 2923 1861 1202 2673 2434 815
29 63 20 1 0 204 61 113 86 200 410 965 1108 1106 914 561 598 207 256 536 333 309 238 655 1203 1955 2033 2036 2403 1935 2381 1510 2061 2029 2372 1826 2055 1692 1715 1689 1834 2043 2122 2869 2539 2133 2995 1208 2025
39 45 26 3 2 74 221 44 94 256 230 724 950 1058 998 848 629 563 448 631 411 358 362 475 1336 2528 2170 2181 2016 2209 1225 2447 1635 1949 1955 1781 1393 1750 1739 2014 1832 2053 1820 2180 2165 2259 2382 3146 3300
32 33 18 2 1 19 129 125 169 161 132 147 201 378 772 1041 1229 964 699 648 769 403 385 622 2335 2889 2306 1993 2166 2281 2133 1877 2069 1814 1793 1471 1412 1144 2651 2620 2396 2384 2346 2109 2304 2618 2555 2418 2528
21 10 10 1 0 3 53 252 209 188 32 18 98 184 259 457 1090 1073 900 877 884 650 508 655 2606 2971 2332 2235 2633 3198 2688 1836 1319 1867 1348 1576 1084 1362 2729 2001 1896 2195 2106 2177 2352 2264 1871 2935 2312
19 1 3 40 37 27 157 190 159 154 154 54 267 199 185 500 1076 1049 872 921 797 1033 768 1032 2306 3383 2586 2339 3387 3073 3223 2924 1875 1825 2124 1560 1365 2361 2583 1592 2180 1982 1861 2087 2595 2599 2197 2399 2459
0 2 14 6 68 53 227 226 302 55 17 6 206 330 274 292 717 837 539 729 989 986 1068 1125 1619 2463 2526 2511 2438 2402 2488 2671 2505 1664 1727 2157 2210 1452 1245 2244 1592 1668 1916 2077 2500 2719 2588 2637 2345
0 0 2 44 31 118 140 390 138 43 0 12 136 214 192 231 314 341 485 741 850 534 531 1298 1507 2007 2334 2522 2455 2983 2519 2472 2615 2145 1828 1822 2229 1889 2119 2340 2040 2048 1783 2024 2736 2930 2520 2574 2648
0 3 6 7 27 10 54 87 51 23 10 0 57 196 384 142 438 452 535 625 546 347 107 1058 791 1575 1917 2000 2346 2224 2337 2337 2341 2373 1957 1914 2380 2441 2136 2495 2701 2400 2243 3004 2278 2079 1371 1906 1942

GFSSGP_con_mucape_102.txt.gz
CAPE
6 0 35 269 125 412 320 313 173 31 49 30 89 231 224 268 240 294 426 488 347 652 1081 1301 2282 2260 1994 1803 1688 1661 1666 1650 1599 1773 2202 2424 2342 2685 2871 2965 2953 3016 2920 2409 2473 2455 2362 2366 1842
0 1 362 490 309 406 562 171 147 33 6 25 124 201 39 33 32 132 420 420 202 286 582 862 2249 2335 1934 1659 2214 1859 1961 1856 1649 1556 1579 2221 2062 2380 2419 2504 2601 2978 2691 2619 2378 2498 2513 2404 2171
37 148 341 286 439 591 446 109 49 23 3 50 271 190 6 0 14 161 259 167 92 463 1067 1777 2311 2455 1890 1958 2007 1981 1983 1982 1599 2026 2131 1706 2201 2107 2255 2389 2459 2615 2483 2344 2152 2295 2034 1856 1614
248 454 400 639 466 501 293 91 2 11 59 107 182 0 9 40 84 54 121 123 379 935 1163 2290 2537 2079 1839 1970 1764 1914 1936 1724 1557 1737 1632 1963 1798 2004 2148 2263 2311 2353 2403 2259 2176 2130 2198 2014 1829
221 800 695 354 736 330 125 0 62 47 61 158 20 11 15 109 40 85 216 407 513 693 1116 1588 2519 2374 1843 1853 1837 1887 1825 1810 1837 1732 1852 1888 1954 1921 2050 2265 2165 2245 2207 2108 2308 2303 2335 2146 1809
493 909 604 582 681 94 54 35 276 185 230 93 0 3 32 87 81 162 247 600 608 405 895 1316 2151 2103 1755 1646 1887 1806 1801 1936 1876 1978 2049 1883 2181 2035 2189 2114 2170 2164 2278 2409 2355 2417 2453 2285 1849
434 872 446 346 693 430 57 127 420 291 231 66 0 18 25 48 102 133 310 525 495 658 989 1328 1376 1703 1825 1707 1980 1918 1980 1950 1874 1970 2211 2211 2061 2005 1929 2129 2177 2154 2321 2359 2296 2448 2518 2068 1685
649 897 357 420 680 613 645 379 788 648 285 143 123 43 5 72 56 117 122 579 444 406 774 1425 1593 1607 1493 1617 1833 1941 1962 1858 1890 1713 1976 2026 1979 1798 1920 2625 2587 2218 2200 2136 2259 2443 2378 1878 1611
366 150 195 242 507 834 618 613 756 888 315 356 272 17 7 30 73 149 297 372 386 594 632 723 1193 1588 1751 1596 1710 1874 1976 1909 1782 1518 1746 2006 1757 1720 1841 2595 2458 2041 2109 2140 2189 2307 2344 1966 1710
373 51 144 286 470 525 353 234 593 616 400 489 36 10 2 32 126 198 217 158 205 537 618 1006 1069 1192 1639 869 1956 1872 1612 1859 2378 1701 1943 1249 1585 1417 1451 2001 2164 1861 1928 1857 2064 2252 2404 2281 1536
194 210 347 508 438 251 526 723 619 619 554 259 35 0 32 18 103 88 152 321 236 667 856 825 1316 1556 1460 1309 1376 1655 1738 1756 1961 1161 2275 2115 1864 1108 966 1842 1601 1964 1886 1737 1656 2225 2237 2566 2118
198 229 331 475 310 204 498 417 608 550 418 83 117 23 26 45 72 82 81 280 502 879 901 1291 1616 2375 2054 237 976 1568 1522 1952 1458 1785 2736 2426 1948 1875 2166 1903 2062 1553 2797 1198 2323 698 1025 1799 1034
186 181 427 192 342 249 157 162 430 565 392 197 62 37 21 39 65 99 122 96 826 482 1149 1378 1784 1816 1844 464 732 585 1065 1389 1043 2128 1914 2485 966 2723 2101 2154 1694 1402 2609 1768 2284 1545 2695 2172 1229
67 117 185 321 270 102 38 69 56 430 380 450 79 57 16 35 67 176 263 116 250 544 479 978 1561 1277 2118 1755 826 340 692 843 1322 1777 2340 2052 1904 1489 2074 2628 1963 2472 1975 2098 1634 1176 1805 1088 1692
102 95 82 327 142 149 83 119 130 714 530 615 114 48 22 34 78 154 246 205 118 214 560 554 878 1472 2060 2078 1667 852 663 890 1747 1493 2768 2497 2308 2762 852 1978 1902 2564 2878 2629 3183 2445 3263 1639 1474
49 133 104 406 357 231 114 156 123 394 482 368 82 43 30 45 53 86 189 223 232 255 740 598 225 922 1865 2645 2190 717 918 93 766 1672 1871 2533 2863 2873 2834 2647 1872 2682 2683 1178 2533 2128 1965 2640 1755
68 95 87 80 270 281 233 270 118 212 581 172 75 46 33 62 67 71 28 57 37 457 771 550 968 802 1666 2124 2043 1584 817 1098 1586 1968 2282 2345 2643 2370 2723 2517 2748 2583 2307 2386 1231 901 2011 2649 1037
23 66 96 116 227 337 244 158 123 110 343 169 105 65 67 91 56 61 22 20 71 446 819 1087 1080 1850 2748 1971 2865 2064 2589 1685 1504 863 1793 2020 2294 2248 1646 2400 2745 2812 2570 1570 831 2282 2176 2357 534
20 102 87 72 553 330 169 152 68 103 614 186 94 65 73 113 99 17 14 15 68 375 713 1203 2112 2476 2163 2072 2072 2676 2373 2927 2189 1235 1903 1824 2635 2347 1892 1868 2656 3011 1139 2165 2852 2439 2366 2781 2166
19 54 106 173 273 195 133 43 97 186 224 512 123 77 122 115 55 47 19 28 90 418 772 1293 2171 2354 2585 2072 2102 1978 764 2111 2331 2173 2685 2678 2512 2550 2361 2547 2501 2541 2460 3098 2860 3358 2562 2336 2057
0 13 0 260 101 8 12 12 2 18 33 367 415 229 163 213 118 36 67 30 21 357 737 1228 2269 2114 2546 2643 2126 556 1154 2071 2344 1807 2421 2425 2466 2350 2780 2543 2960 1594 2711 2781 3287 3147 3044 2625 1670
0 104 1 364 47 60 152 159 105 133 142 148 504 793 350 211 133 34 75 40 7 200 462 1359 2459 2169 2138 1397 2658 3065 2295 1025 2546 2283 2317 2361 2214 2683 2739 2538 2965 2632 2830 3165 3369 2080 2915 3677 2813
7 59 24 29 33 77 101 90 121 58 30 265 467 833 718 279 126 109 114 70 41 115 336 1103 2180 2480 2699 2776 2361 2546 617 4 824 633 2905 2347 2737 2029 2246 3162 2796 2905 985 1596 3394 3113 3772 3141 2574
0 0 47 12 0 86 84 136 164 51 166 510 782 817 769 540 243 189 77 88 54 108 236 971 1845 2589 2649 2963 2355 2543 966 512 931 1122 2787 2444 2413 2669 2635 2535 3327 3072 1308 2656 3104 3144 3386 3380 3259
2 17 55 49 0 2 155 157 228 151 81 278 307 533 561 755 379 380 303 307 164 211 234 1026 1781 2676 2822 2632 2679 2343 2258 827 726 2126 2160 1567 1774 1958 2579 2972 3513 3170 3392 3133 3147 3660 3423 3371 3636
41 49 82 37 18 5 230 244 154 113 35 41 275 392 324 733 698 625 527 377 363 339 422 1125 2100 2660 2707 2757 3030 3237 2665 2157 1534 1983 1673 526 788 693 2026 2714 2954 3226 2584 2665 3166 3478 3112 3410 3165
31 26 34 57 4 39 441 231 174 41 56 44 69 139 194 430 741 400 671 503 300 620 408 1390 2164 2650 2762 2591 3007 3423 3437 3274 2519 3105 3317 2263 818 897 2843 2427 2896 3061 2803 2872 2946 3105 3270 3164 3734
8 20 6 14 48 128 432 293 347 111 63 131 76 13 15 264 377 646 600 568 800 871 788 1222 2606 2979 3085 2916 3073 3028 3226 3361 3244 3757 2894 3231 1698 1099 755 1230 2541 3226 3200 3067 2882 2920 3059 3188 3409
0 0 0 1 36 62 330 271 175 120 32 39 126 141 106 137 450 541 446 363 485 372 220 216 1220 2641 2810 3055 3084 3033 2990 3135 3413 3065 2930 2674 3115 1247 668 135 1068 2750 2930 3016 3348 2815 2563 2356 2692
0 0 6 14 4 29 259 129 114 64 88 26 92 87 82 188 323 405 171 179 240 173 27 54 317 778 1496 1564 2532 2805 3311 3223 3151 3177 3025 3021 3071 2814 1575 1362 1940 2256 2932 2864 3411 2698 2494 2627 3059

GFSSGP_con_mucape_105.txt.gz
CAPE
13 5 51 93 81 129 110 407 7 60 93 66 63 116 127 157 164 121 380 421 407 1018 1574 1914 2444 2020 1943 1688 1712 1564 1539 1686 2118 2520 2656 2481 2349 2882 3040 2772 2557 2657 3045 2562 2394 2368 1835 1962 1857
1 15 105 183 51 105 130 195 32 166 255 90 0 38 86 93 167 326 361 276 528 828 958 1578 2318 2227 1668 2156 2065 1802 1648 1565 1536 2046 2295 2109 2336 2883 2629 2471 2439 2894 2874 2497 2543 2395 2262 1852 1816
9 38 88 192 111 91 14 83 13 136 115 56 5 0 12 112 185 191 140 308 447 533 856 1442 2333 2180 2064 1921 2077 2004 2024 1530 1929 1671 1933 2169 2048 2471 2389 2629 2456 2428 2298 2335 2187 1768 1571 1476 1664
107 298 234 463 89 403 224 21 28 43 36 18 6 0 0 25 87 59 19 56 480 847 1380 2107 2215 1689 2040 1870 2020 1921 1890 1471 1615 1596 1792 1814 2017 2173 2277 2349 2541 2352 2293 2183 2174 2028 1789 1776 1827
76 355 232 308 367 282 20 13 88 20 3 9 0 15 0 1 35 0 49 693 773 1243 1461 1591 2434 2140 1972 1861 1838 1845 1696 1431 1930 1783 1852 1856 1948 2138 2305 2087 2274 2175 2168 2256 2207 2196 1888 1761 1707
179 414 229 127 387 241 295 187 92 78 40 0 0 2 10 5 6 24 252 517 785 937 1283 1379 2111 2228 1900 1912 1706 1647 1648 1563 1929 2174 1845 2260 2162 2145 2600 2076 2118 2329 2335 2305 2245 2250 2003 1658 1531
80 415 178 283 334 450 561 529 433 29 1 0 0 0 9 26 34 182 289 361 489 817 1057 1440 1536 1479 1668 1891 1806 1827 1722 1813 1885 1838 1882 2282 1980 1982 2318 2120 2200 2397 2270 2211 2194 2230 1916 1643 1427
257 230 211 235 243 379 790 595 436 89 20 3 0 0 0 50 178 201 144 235 549 715 813 1245 1316 1274 1441 1536 1836 1847 1793 1824 1776 1699 1810 1989 1818 1915 2065 2659 2731 2188 2170 2186 2309 2200 1755 1476 1437
131 82 149 188 304 467 700 782 823 471 43 60 35 0 0 61 107 193 178 360 341 735 962 1024 1140 1031 1219 1352 1601 1737 1798 1833 1737 1812 1488 2078 1262 1424 1697 2181 2400 2168 2119 2119 2189 2205 1918 1628 1486
88 12 29 197 530 732 672 706 713 375 228 206 2 0 4 45 146 223 181 183 333 587 794 935 1073 1012 1073 1176 1341 1399 1522 1151 1110 978 1085 1105 1155 1367 1597 1887 1997 2023 2046 2086 2082 2139 2141 2161 1242
34 32 34 258 379 383 227 630 720 492 51 7 0 0 4 17 136 55 32 243 336 532 726 779 766 925 770 1132 1105 1106 1134 1129 970 921 767 962 980 1459 1519 1682 1639 1457 1886 1410 2082 2191 2144 1958 1756
514 194 180 581 388 295 566 339 415 303 151 60 0 0 1 29 54 65 42 153 527 539 394 800 915 615 414 152 611 785 1157 994 978 876 1142 675 735 767 1099 1284 1110 1295 1448 801 1239 723 1178 995 1373
179 116 213 430 366 344 412 407 443 168 355 35 23 0 7 65 72 55 115 279 601 569 684 939 624 362 8 283 547 524 659 927 861 988 1128 914 1209 717 928 1202 1212 1017 889 896 748 1073 762 761 655
102 302 148 350 304 190 340 368 156 410 530 41 53 1 4 56 74 62 192 228 201 623 794 842 571 81 0 203 359 293 468 579 839 843 1236 1411 882 1140 971 1159 1155 1300 1419 1487 576 693 1134 1171 541
103 62 161 281 157 121 94 44 120 615 583 201 24 4 8 35 71 39 175 281 434 658 711 906 496 455 348 324 261 107 514 651 891 1250 1581 981 933 1085 830 1343 1545 1687 1091 806 1166 1541 1926 1594 880
0 40 20 189 159 115 68 59 105 451 445 484 206 44 14 40 79 42 41 163 143 189 448 636 897 565 484 399 235 0 461 493 569 1390 1193 1519 1475 1394 1308 1429 1227 908 1123 878 1438 995 571 1386 1489
11 28 95 258 215 146 103 19 80 167 231 325 139 68 13 36 66 35 23 24 147 151 151 149 648 572 806 645 347 70 52 301 684 1264 1471 1391 1211 1657 1355 1557 1656 1395 1491 1201 828 1083 894 1066 532
4 38 251 358 334 194 145 112 14 80 156 166 96 71 22 27 56 13 1 0 178 119 45 315 389 839 617 928 600 407 426 579 912 1028 1216 1175 1580 1447 1003 1841 1314 1592 897 798 625 997 1586 1131 599
0 61 92 176 408 197 113 37 3 37 173 200 147 58 25 21 28 8 0 0 222 145 63 843 597 1167 550 966 897 911 872 984 602 324 1326 1311 1360 1037 763 1263 1439 1232 1217 1206 822 1487 1619 1550 1313
37 4 246 431 432 137 170 93 24 75 157 138 159 32 32 26 20 6 0 33 129 153 227 709 1244 774 448 1024 1282 1307 983 1128 1010 1024 1135 1264 1306 1200 1010 1164 1242 1644 1108 1325 1404 1732 1562 1582 561
24 21 115 265 60 162 48 64 41 9 56 114 88 173 34 16 9 0 0 35 88 171 469 952 947 1185 1276 815 814 538 618 1037 1114 1312 1292 1347 1284 1364 1606 1659 1464 1312 1597 1344 1503 1403 1497 1494 957
1 11 233 150 73 107 133 11 0 21 1 63 62 190 65 42 23 15 0 36 76 180 430 1027 944 780 1205 1470 688 194 479 790 862 1113 1219 1520 1341 1505 1150 1691 1502 1539 1212 1406 1531 2097 2025 1922 1865
4 414 294 38 7 73 62 114 61 14 0 8 44 49 37 48 51 31 0 0 63 193 346 1177 954 777 893 1396 1204 766 685 546 867 1051 1187 1499 1391 1669 1273 1441 1496 1380 771 919 1112 2038 1734 2057 2136
0 0 96 151 38 99 221 173 138 66 19 6 9 0 77 84 63 74 29 8 77 147 373 989 1189 1151 1299 1086 1017 893 182 19 639 784 1267 1246 1157 1217 1683 1390 1324 1182 1265 1006 1667 1774 1965 1844 2086
20 35 24 8 15 0 191 155 59 44 11 0 0 13 333 310 89 109 117 102 95 166 399 534 1582 1457 1310 1647 1140 805 605 670 746 610 842 1194 1234 1328 1318 1747 1786 1525 1133 1229 1800 2037 1765 1901 2171
35 1 7 19 0 0 62 144 111 102 79 132 213 80 302 326 266 319 363 96 107 141 370 570 1297 1560 1465 1445 1462 1108 718 752 430 535 1052 1299 1022 1036 986 1743 1599 1551 1643 1713 1556 1393 1775 2155 1801
0 0 6 33 30 10 272 281 265 116 51 64 106 156 292 298 223 631 306 429 246 96 339 604 956 1527 1921 1540 1903 1374 1123 698 623 635 977 1193 408 948 1329 1489 1558 1665 1458 1476 1733 1682 1530 1554 1980
0 0 52 32 4 7 218 308 251 140 113 60 35 87 33 128 121 261 175 313 520 393 434 736 937 1137 1717 1820 1977 1807 1638 1580 1666 1729 1748 1180 856 670 143 959 1463 1566 1578 1743 1237 1195 1711 2017 1393
32 0 1 7 0 0 203 148 278 97 42 34 48 100 158 176 193 130 119 122 355 309 425 449 398 406 394 667 815 1856 1768 1796 1874 1671 1610 1031 825 722 152 727 1146 1294 1612 1594 1660 1536 1432 1440 1773
36 32 3 1 1 17 254 129 141 113 44 67 111 119 53 91 147 225 252 151 262 269 232 269 207 268 228 316 356 918 1948 1783 1831 1845 2137 1178 1091 950 1043 309 912 1006 1428 1533 1433 1234 1286 1400 1348

GFSSGP_con_mucape_108.txt.gz
CAPE
16 12 26 54 62 54 64 97 156 76 64 39 39 41 49 111 105 20 297 444 811 1107 1590 2054 2488 2337 2236 2073 1986 2103 2346 2208 2154 2558 2651 2759 2444 2511 2645 2505 2283 2479 2531 2143 1994 2013 1938 1698 1568
1 25 150 201 62 72 76 157 107 83 47 34 30 88 107 140 190 261 326 485 911 1325 1629 1786 2407 2218 1833 1733 1628 1590 1630 2092 2371 2252 2486 2682 2594 2704 2533 2482 2479 2451 2690 2400 2040 1961 1769 1419 1234
0 5 136 145 28 79 54 128 29 35 67 77 56 67 154 275 276 225 235 732 887 1163 1446 1523 2195 2161 2047 1947 2192 1855 1566 1498 2010 2266 2196 2305 2608 2510 2484 2423 2346 2388 2758 1964 1938 1873 1808 1480 1205
19 213 207 178 38 79 91 56 30 8 42 81 106 138 177 119 154 210 339 453 477 909 1319 2050 1884 1930 2045 2109 2053 1924 1779 2060 1746 2051 2144 2353 2508 2537 2528 2499 2364 2336 2297 2048 1698 1683 1858 1971 1963
104 162 14 204 81 36 62 57 50 12 11 85 97 95 69 83 175 216 209 281 587 1144 1425 1420 2403 2055 1982 1927 1918 1853 1338 1649 1791 1844 1924 2184 2209 2405 2339 2354 2312 2363 2284 2195 1938 1891 1983 1918 1915
211 272 70 99 170 299 220 49 22 14 27 23 38 52 42 38 52 134 365 677 868 1174 1442 1519 1985 2026 2104 1851 1842 1754 1595 2121 1933 1907 2156 2086 2299 2444 2343 2277 2366 2453 2307 2238 2039 1863 1731 1768 2102
179 196 215 140 259 282 495 80 48 81 7 0 0 24 21 0 105 384 630 841 1044 1181 1333 1427 1503 1633 1756 1829 1799 1771 1798 1937 1874 1909 2068 2319 2261 2232 2260 2466 2548 2400 2326 2159 1982 1756 1608 1567 1774
341 136 0 129 165 452 292 46 47 21 20 0 0 0 0 0 283 387 471 621 723 1028 1283 1248 1231 1455 1334 1589 1829 1832 1942 1892 1788 1845 2013 2017 2355 2135 2264 2930 2955 2239 2164 2141 1952 1821 1643 1461 1562
194 52 0 7 153 272 521 161 301 467 24 2 0 0 6 134 250 235 390 547 626 812 1101 1204 1017 1398 1322 1451 1552 1751 1889 1777 1646 1849 1786 1955 1610 1874 1879 2356 2675 2152 2167 2203 2170 1917 1574 1529 1536
168 9 6 75 143 257 515 304 167 102 31 34 0 19 114 188 167 229 389 457 495 755 944 975 940 1151 1214 1432 1448 1346 1525 1083 1004 1133 1361 1182 1537 1607 1822 2066 2398 2246 2208 2145 2038 1938 1876 1952 1283
50 16 56 101 132 66 530 388 514 62 83 13 10 43 85 123 128 320 268 365 546 732 709 871 771 941 1041 1230 1253 1182 990 843 866 914 1047 1152 1249 1685 1651 1826 1828 1775 1998 1695 1966 1766 1664 1644 1565
4 140 160 501 408 232 418 406 193 146 96 54 15 47 96 170 165 174 142 324 490 594 813 817 797 757 632 819 730 915 891 897 906 792 935 1024 1037 1232 1257 1107 1006 1005 1305 903 1355 1042 1205 1048 880
169 220 166 407 427 521 490 369 171 114 77 48 20 102 163 164 124 158 184 301 476 573 692 608 748 657 491 526 655 718 965 929 849 947 996 653 782 643 837 956 1125 926 805 627 874 843 845 485 198
0 373 580 400 421 477 390 156 129 69 71 64 16 21 75 133 93 174 295 382 421 501 638 666 466 359 3 370 488 520 511 721 686 782 718 741 1019 634 774 971 960 969 1328 1151 645 1133 1564 723 331
437 247 81 387 272 369 178 74 75 502 574 27 33 26 61 103 135 188 337 287 501 587 503 488 354 62 13 364 380 421 595 663 767 1005 1021 967 985 888 991 947 973 1130 873 709 897 1477 861 1073 798
305 268 323 373 154 289 110 95 184 391 371 26 42 43 64 123 221 242 297 370 632 599 514 515 194 8 238 235 201 341 595 643 809 1021 990 726 727 711 1384 1245 1192 1145 846 1079 1378 566 786 1288 971
0 23 51 33 127 133 103 53 124 290 438 264 108 51 39 124 170 259 310 347 593 516 614 459 488 401 322 347 125 153 446 454 657 1105 1234 1186 1439 1354 1205 1230 1028 1216 1231 1033 797 976 1230 726 772
0 3 255 348 252 155 110 29 148 301 305 103 105 150 72 79 102 315 378 465 369 504 539 608 549 534 468 544 93 116 209 433 679 1055 1128 1246 1305 1169 1055 1389 1208 1168 884 858 713 871 1381 1278 828
71 23 287 284 239 239 131 84 117 195 117 10 147 180 66 80 100 145 308 337 208 272 229 718 380 622 510 592 331 308 341 536 760 852 1044 1199 1270 994 943 1295 1093 1143 1000 737 1624 1460 1257 1078 918
53 22 138 304 192 166 104 53 86 166 132 79 141 186 77 117 97 105 189 153 131 115 297 324 492 649 661 925 735 706 757 814 709 798 1228 1176 1227 740 703 1054 950 1153 938 1155 1235 1370 1347 1016 825
4 13 150 355 267 136 110 51 88 125 95 113 177 122 135 113 76 100 208 199 138 198 448 512 653 478 403 1030 875 741 794 956 934 880 963 1120 1177 1066 1112 1090 922 1301 1086 1146 1144 1487 1783 1527 1432
0 12 179 217 76 15 70 7 45 62 123 169 181 139 145 80 90 109 158 204 146 297 465 646 606 550 755 754 905 603 770 836 871 846 958 1155 1103 1189 1364 1332 1071 1440 1361 1193 1406 1789 1647 1564 1963
8 322 322 265 64 24 0 19 13 15 75 77 101 84 117 70 52 35 142 187 167 300 481 521 615 731 1244 1234 792 549 767 756 970 1049 1126 1127 1076 1197 1101 1306 1363 1110 996 950 1400 1700 1465 1796 2060
286 311 272 157 81 50 46 56 67 25 46 107 127 74 179 64 138 42 175 190 180 292 606 452 423 435 799 1049 1143 622 549 766 909 939 1082 1140 1181 1332 1085 1207 1117 997 855 709 1661 1587 1533 1484 1954
35 353 116 84 32 9 11 34 42 25 46 67 124 76 84 57 78 184 118 163 175 302 575 736 530 587 853 887 978 727 428 353 838 871 1082 1059 901 1014 1183 1121 1077 943 977 938 1508 1606 1420 1503 1510
0 0 6 0 15 6 8 2 237 69 44 16 21 133 86 217 127 344 277 140 176 240 409 981 706 765 978 914 957 765 409 584 561 707 911 883 982 1170 1004 1201 1392 1313 979 1059 1357 1395 1366 1530 1604
0 4 0 2 21 18 164 172 168 99 53 136 52 170 122 109 264 224 409 472 179 186 343 782 994 922 832 1486 898 841 547 705 684 497 718 1017 1054 1056 1057 1190 1396 1262 1274 1347 1401 1338 1462 1352 1424
1 0 4 1 17 0 104 177 116 118 143 86 61 14 67 140 198 218 137 364 279 280 452 559 1194 1181 954 918 1361 1110 878 657 314 522 807 987 904 702 1024 1200 1337 1325 1184 1191 1440 1338 1195 1405 1505
0 0 14 9 30 2 87 105 166 124 110 46 71 38 101 151 80 134 164 180 260 268 425 623 719 870 750 569 708 1003 1378 1219 1070 1429 1338 1206 787 694 610 763 718 1277 1381 1317 1498 963 1486 1256 1271
0 1 31 19 51 91 144 179 172 107 65 78 23 131 100 188 216 118 94 232 201 193 219 182 303 355 199 171 250 199 559 978 1563 1611 1183 979 857 645 460 302 930 944 1175 1487 1500 1320 1346 1212 1083

GFSSGP_con_mucape_111.txt.gz
CAPE
53 17 22 76 34 39 67 96 158 1 0 14 4 25 88 126 151 9 294 404 939 1325 1512 1776 2439 2168 2113 2152 2373 2234 2146 2028 2162 2141 2543 2433 2552 2601 2518 2502 2359 2437 2478 2020 1877 1812 1624 1528 1376
23 39 253 126 34 44 85 118 46 34 6 16 76 129 192 265 344 440 405 773 996 1457 1737 1839 2279 2319 1895 1817 2003 2103 2269 2266 2193 2438 2444 2439 2555 2647 2545 2544 2570 2458 2401 2103 1900 1610 1450 1482 1324
5 41 43 44 28 51 103 82 59 59 31 69 191 220 315 446 269 279 448 827 1218 1537 1626 1780 1879 1952 1534 1457 1512 1555 1974 2220 2180 2446 2253 2416 2487 2642 2596 2512 2645 2553 2599 1972 1806 1410 1196 1186 1262
52 41 58 53 2 101 129 39 61 42 57 146 271 232 224 283 229 298 709 912 1175 1250 1313 1760 2124 2013 1971 1906 1796 1516 1429 1826 2248 2049 2058 2553 2544 2471 2430 2248 2426 2091 1965 2004 1918 1869 1462 1367 1654
195 137 8 88 64 80 66 46 61 49 45 127 117 105 139 179 266 519 571 755 873 1156 1375 1525 2156 1781 2010 1815 1778 1921 1899 1731 1995 2159 2040 2356 2571 2595 2547 2384 2369 2305 1978 1845 1944 1882 1979 1756 1621
228 123 79 59 68 235 72 86 71 102 118 66 85 95 159 206 284 280 305 416 1009 1196 1203 1587 1752 1942 1911 1759 1829 1505 1940 1851 1974 2018 2088 2373 2486 2396 2372 2320 2481 2302 2119 2021 2044 1983 1861 2082 2130
198 161 30 105 102 52 11 55 79 81 75 75 51 40 167 152 124 206 352 693 1055 1238 1313 1438 1568 1718 1757 1671 1706 1881 2165 2000 1840 1773 2155 2280 2264 2302 2367 2510 2518 2238 2105 1985 1887 1753 1788 2083 2178
307 54 0 22 93 130 38 52 50 47 49 35 0 41 82 55 280 621 716 918 1093 1246 1231 1335 1423 1385 1513 1562 1768 1917 2084 2009 1861 2076 2156 2316 2205 2322 2532 2938 2793 2218 2001 1788 1762 1770 1763 1608 1878
176 21 15 67 129 98 168 115 329 125 43 53 0 5 0 253 483 504 693 780 988 1199 1185 1189 1371 1237 1479 1517 1636 1891 1859 1853 2027 1820 2032 2084 1873 2044 2069 2467 2394 2189 2018 1918 1891 1612 1621 1613 1622
147 0 9 45 177 141 215 264 114 16 29 83 0 0 202 321 334 387 372 522 775 1027 1081 990 1241 1145 1363 1566 1526 1560 1505 1306 1488 1539 1534 1540 1719 1746 1973 2137 2209 2172 2143 2030 1954 1784 1718 1806 806
18 16 44 55 217 151 170 220 162 23 27 15 48 82 203 211 219 272 408 398 423 790 961 838 1050 1034 1278 1380 1194 1134 909 881 1012 1189 1126 1302 1518 1735 1827 1800 1692 1529 1870 1470 1615 1499 1376 1480 1333
7 19 39 339 136 69 244 166 77 33 34 27 142 185 142 149 182 311 340 318 488 752 743 746 854 846 1052 1130 1007 891 786 724 769 928 1089 1132 1135 1365 1327 1420 1214 1049 1227 979 1162 833 649 749 975
0 125 244 412 213 193 381 267 160 61 34 89 137 174 110 156 211 220 205 348 497 627 764 695 796 770 613 657 718 833 875 906 829 792 942 1008 943 900 905 797 980 1006 749 752 873 1064 1148 164 149
0 264 490 512 577 379 253 119 30 54 161 66 92 135 141 130 208 185 215 360 509 613 763 673 691 512 482 591 659 718 873 855 839 804 899 773 663 653 751 927 1007 835 1171 822 868 1353 986 327 321
235 438 475 445 436 336 187 106 66 23 1 48 100 122 137 116 171 199 235 382 459 584 710 633 638 378 259 401 449 497 571 729 705 758 913 697 872 736 599 731 989 946 717 711 1165 936 649 745 387
280 158 168 366 271 229 93 52 60 527 224 23 76 102 109 106 116 233 310 359 419 533 505 555 436 94 82 346 394 386 583 625 747 941 938 970 912 906 1077 1013 886 1052 881 1079 942 579 782 862 830
349 69 130 135 226 304 94 63 82 266 70 11 17 61 73 87 119 278 338 396 426 396 425 387 302 103 60 261 234 380 486 571 707 947 914 805 761 990 1152 1112 977 927 1105 899 829 877 1165 710 571
0 1 113 59 115 211 178 53 149 229 44 30 99 36 49 101 137 235 313 422 444 405 326 226 145 87 193 136 5 113 385 454 570 929 912 1049 1351 1058 1353 1014 1234 1067 968 862 787 1220 1181 1209 830
0 4 30 315 244 237 98 51 173 187 92 111 67 128 104 114 159 187 265 451 466 408 362 302 360 326 266 346 9 165 364 341 573 737 866 1035 1141 940 1355 1035 1011 1073 1054 919 1498 1348 1170 884 654
0 0 109 200 226 182 94 106 103 166 124 96 41 112 95 147 193 221 240 397 344 416 348 354 401 395 300 456 367 336 303 468 605 672 927 997 1107 873 808 1003 748 1017 937 1135 1156 1385 1364 1173 924
0 1 48 288 247 195 135 80 87 91 82 71 18 87 113 93 141 187 236 351 247 440 427 479 347 469 483 664 565 594 619 732 643 603 819 1022 1100 718 606 910 882 1322 1012 1030 1167 1547 1461 1519 1391
0 105 26 355 158 79 73 0 77 91 78 31 49 72 141 97 119 228 279 271 149 216 249 357 351 543 496 838 641 639 678 634 707 418 843 949 1049 1040 1048 1208 960 1291 1273 1062 1312 1693 1520 1739 1652
24 67 15 205 120 17 22 0 0 51 46 20 6 12 135 78 73 189 196 171 131 144 239 308 367 380 443 664 698 600 485 550 636 696 800 974 1006 936 1206 1129 985 1152 964 1082 1445 1340 1474 1819 1750
267 270 222 186 91 28 18 2 51 52 42 10 36 95 131 67 90 99 121 151 119 240 307 337 379 415 513 641 684 680 528 590 663 801 908 913 974 1039 860 1154 1222 1115 928 807 1540 1450 1302 1516 1454
239 262 106 42 55 13 26 23 49 81 58 93 74 135 166 100 68 243 94 111 134 283 343 338 373 428 900 971 975 711 367 495 592 766 927 902 909 993 948 1030 1054 866 946 753 1527 1382 1247 1395 1189
295 158 10 0 19 26 103 47 57 101 54 106 97 138 162 119 127 149 169 121 138 251 431 339 325 310 599 769 936 769 580 460 698 719 805 919 900 870 1083 1119 962 919 956 931 1225 1473 1367 1425 1338
0 56 0 2 0 2 47 175 413 76 58 82 96 59 82 178 241 149 311 263 107 159 446 461 397 342 540 754 772 740 478 47 301 598 745 896 755 872 918 991 1224 1202 1160 1099 953 1169 1350 1322 1102
0 0 1 0 0 0 75 110 192 83 80 74 43 44 47 64 366 242 251 319 229 166 319 849 542 558 567 1070 756 838 584 453 542 577 494 634 837 877 813 908 1123 1182 1035 1171 1264 1309 1187 1095 1301
0 0 4 0 0 0 25 54 116 84 40 62 60 44 48 86 163 232 194 191 161 228 382 801 709 703 604 821 1058 1050 933 719 508 205 411 539 644 763 627 809 1019 1186 1087 1032 1073 1275 1087 1270 1170
23 10 4 0 0 70 55 30 141 106 43 63 50 42 26 47 98 55 82 91 204 203 271 242 216 427 684 550 632 694 715 903 1114 1087 977 1308 1131 690 582 557 876 819 1044 1195 1299 1459 1218 1145 1204

GFSSGP_con_mucape_114.txt.gz
CAPE
74 18 26 99 43 26 67 135 34 0 0 0 0 0 56 216 175 0 250 388 730 1058 1444 1767 2444 2108 2009 1966 1880 1864 1887 1779 2182 2617 2541 2439 2428 2448 2334 2319 2363 2495 2175 1776 1894 1735 1569 1606 1882
0 54 293 124 37 44 108 114 28 0 0 0 62 192 264 535 308 366 413 740 1054 1208 1435 1634 2248 2160 1978 2098 2136 2169 2037 1977 2394 2490 2525 2331 2424 2431 2432 2256 2215 2227 2085 2005 1837 1690 1542 1233 1419
23 34 3 9 29 62 79 72 60 15 0 84 194 281 312 291 203 261 470 897 1240 1436 1555 1647 1989 1891 1742 1801 2025 2075 2165 2182 2398 2391 2432 2417 2529 2699 2616 2405 2426 2214 2301 1836 1660 1496 1437 1536 1436
14 47 26 27 23 118 77 38 66 2 0 184 214 206 227 213 190 411 736 1053 1187 1367 1565 1734 1708 1466 1552 1534 1508 1754 2210 1985 2298 2245 2398 2339 2536 2409 2479 2496 2321 2129 1964 1783 1639 1551 1502 1465 1459
59 130 3 109 84 92 54 57 73 31 53 160 137 107 182 247 342 628 820 959 1149 1125 1234 1684 2144 1906 1931 1945 1500 1532 1618 2212 2025 2211 2376 2374 2141 2112 2339 2383 2089 1981 2028 1861 1904 1953 1694 1581 1661
157 54 63 60 108 149 50 59 82 88 74 73 100 31 189 335 420 541 662 797 884 1099 1309 1654 1739 1939 1867 1764 1690 1740 1861 1852 2182 2160 2299 2569 2367 2492 2229 2444 2237 1930 1926 1904 1950 1819 1995 1722 1655
191 86 32 74 105 86 53 61 70 39 9 7 0 51 279 197 247 371 490 870 1044 1031 1316 1307 1400 1617 1708 1684 1452 1811 1659 2064 2003 2190 2411 2516 2322 2448 2571 2447 2309 2106 1986 1824 1738 1857 2080 2208 2085
74 22 39 79 92 109 93 96 40 45 9 0 0 19 94 159 150 317 635 941 1074 1140 1190 1335 1377 1384 1373 1441 1778 1662 1866 1871 1938 2191 2286 2186 2279 2515 2603 2703 2336 2061 1887 1831 1828 1879 1752 1892 1988
76 37 33 61 67 104 152 91 175 13 0 0 0 2 54 236 399 439 668 832 1062 1155 1082 1221 1233 1321 1437 1406 1585 1723 1862 1918 2063 2150 2303 1924 2079 2146 2106 2606 2263 2040 1840 1815 1750 1668 1621 1676 1866
108 9 45 52 99 45 336 137 43 21 0 0 0 21 198 407 300 246 320 520 849 1051 1053 1163 1087 1262 1318 1655 1527 1460 1504 1618 1495 1732 1720 1699 1803 1822 2069 2220 2224 2092 1993 1825 1711 1612 1653 1567 836
21 2 70 58 141 55 303 164 31 37 17 0 13 133 269 288 257 280 330 355 593 848 972 958 1033 1217 1343 1331 1320 1114 962 1199 1368 1252 1337 1465 1377 1623 1523 1535 1371 1345 1555 1096 1174 968 954 1222 1401
9 20 24 36 357 56 188 97 36 34 62 0 32 171 215 190 248 214 258 357 473 780 913 718 901 1068 1181 1032 910 707 701 787 923 956 1056 1180 1081 1202 1189 999 871 926 989 743 896 717 646 651 792
0 21 112 356 207 83 173 159 103 11 47 22 130 190 155 135 193 187 260 242 412 631 706 625 736 821 934 742 695 644 726 681 684 800 844 840 809 778 787 680 940 713 615 670 955 1141 804 177 162
0 138 551 334 137 225 109 94 58 45 36 118 144 123 104 147 187 230 217 296 400 502 603 552 610 574 453 450 657 717 792 827 769 767 832 850 603 559 604 853 890 795 1136 707 954 866 671 283 253
365 520 556 502 336 141 118 69 67 131 85 132 126 117 94 168 195 212 183 277 379 462 570 540 582 320 411 513 567 626 674 717 791 662 739 508 601 730 598 650 838 879 661 1008 1057 551 648 673 442
323 352 347 427 304 160 109 133 95 90 119 149 150 134 107 179 181 178 190 277 403 469 550 500 521 294 323 401 382 436 572 634 665 781 857 678 771 809 611 813 805 929 901 807 713 823 733 687 702
270 103 113 302 233 147 114 79 56 130 52 95 141 143 139 170 156 178 210 295 408 456 529 508 451 149 101 238 321 335 498 529 668 806 817 822 737 812 1146 950 986 866 1023 982 743 1065 1164 735 462
90 0 14 23 127 219 99 91 49 71 49 89 108 160 156 143 134 221 265 282 370 421 430 413 393 226 58 135 264 269 399 483 545 838 744 792 937 983 992 872 1122 966 895 721 1030 1218 954 897 640
0 0 0 321 208 219 106 75 49 48 51 22 29 46 114 143 123 241 297 350 360 384 402 358 233 96 38 92 189 272 335 405 429 680 758 865 1090 927 1040 729 1092 846 901 1188 1197 1221 1033 913 639
3 0 65 274 264 188 110 138 149 101 59 26 96 63 54 107 146 217 275 369 339 340 234 178 102 131 201 145 16 13 267 264 419 573 738 830 894 794 1034 907 844 872 930 1014 1141 1379 1199 1238 1175
6 2 66 245 264 210 210 142 74 103 68 56 103 84 95 147 171 232 227 340 357 347 187 177 244 236 230 295 270 313 425 519 544 562 740 906 969 777 636 782 641 1150 916 847 1134 1412 1362 1505 1284
2 0 1 294 135 38 120 0 28 121 72 82 33 52 92 131 179 196 221 269 308 336 203 237 280 280 252 475 343 372 454 540 554 499 650 800 911 875 679 871 769 1095 977 910 1340 1541 1535 1567 1584
3 4 0 244 113 51 0 0 0 103 111 58 25 47 110 95 96 150 231 233 238 247 272 219 268 279 362 612 467 531 537 490 489 547 639 780 883 904 1022 1066 811 1119 1069 943 1414 1103 1491 1711 1714
172 160 130 145 63 17 0 0 0 109 67 68 32 46 46 96 76 117 174 177 228 206 245 329 284 312 408 629 555 499 410 434 521 541 650 857 857 796 840 952 810 911 919 875 1377 1215 1252 1557 1345
131 136 77 79 66 32 1 2 3 21 34 64 26 31 26 148 45 63 68 135 180 182 192 217 256 327 285 529 550 618 476 523 537 553 659 754 821 854 767 983 1012 1005 889 610 1356 1194 1262 1528 1335
47 4 42 2 0 16 74 14 2 11 46 54 47 41 29 131 74 46 66 82 130 138 249 249 271 299 436 551 765 738 592 378 444 542 715 759 716 728 934 881 910 913 728 877 1145 1361 1207 1316 1294
0 3 22 0 0 31 41 103 85 39 60 113 55 32 29 118 162 78 81 230 95 131 276 301 284 290 490 775 743 736 509 374 450 558 683 732 759 796 807 942 1048 929 998 870 972 1217 1288 1195 1130
0 0 0 0 0 0 39 87 75 103 67 127 117 93 99 121 227 219 165 327 160 123 157 401 322 276 298 560 643 615 597 359 145 242 525 706 822 702 768 778 928 1083 1069 991 963 1021 1014 1083 1159
0 0 0 2 0 0 0 6 85 102 211 249 194 140 134 153 206 134 170 233 159 164 259 621 493 356 390 646 678 682 613 539 409 344 385 528 581 707 705 648 649 884 912 836 981 1076 1157 1016 1086
15 0 0 0 0 0 0 0 73 104 259 99 59 66 116 86 103 196 169 233 121 116 261 525 378 336 337 545 899 762 692 602 717 658 292 237 367 487 587 555 577 730 933 913 936 1071 1185 1102 1069

GFSSGP_con_mucape_117.txt.gz
CAPE
47 17 23 124 112 148 241 82 0 0 0 0 0 0 111 427 253 32 326 557 512 766 1322 1503 2007 2011 2037 1985 1900 1874 1796 2267 2609 2529 2525 2585 2397 2380 2076 2029 2194 2091 2176 1840 1728 1731 1873 1905 1614
8 39 316 444 204 157 226 53 0 0 0 0 69 202 352 434 316 323 494 545 612 878 1398 1529 1868 2236 2016 1992 1970 1863 1934 2442 2521 2459 2352 2405 2338 2386 2105 2250 2077 2242 2278 1813 1746 1485 1582 1533 1555
35 50 58 49 75 202 173 14 0 0 0 42 321 368 439 248 203 354 491 694 745 1102 1385 1789 2044 2118 2089 2081 2165 2193 2201 2392 2478 2494 2236 2260 2387 2325 2095 2288 2277 2119 2035 1843 1712 1710 1631 1726 2015
2 68 128 176 230 199 135 8 0 0 33 276 287 344 233 164 250 483 666 823 930 1238 1408 2030 1776 1621 1592 1739 2094 2197 2030 2281 2333 2409 2329 2222 2528 2285 2180 2259 2152 2025 1789 1616 1768 1757 1680 1592 1738
138 165 70 189 169 55 44 16 7 13 24 284 218 184 209 412 589 593 802 810 964 1274 1153 1501 1756 1701 1561 1470 1424 1781 2127 2062 2234 2338 2309 2214 2280 2397 2251 2104 2173 2050 2012 1892 1955 1858 1714 1850 1959
298 205 120 155 96 34 26 15 5 43 176 100 105 102 287 561 509 702 790 970 952 631 1264 1461 1784 1915 1856 1573 1832 1514 1820 2181 2192 2195 2394 2214 2131 2267 2586 2137 1988 2014 1905 1857 1942 2060 1701 1731 1797
224 238 51 84 61 20 42 92 103 119 120 38 79 65 223 390 507 676 835 799 529 782 1534 1472 1544 1840 1763 1557 1789 1851 1604 1871 2145 2473 2487 2372 2275 2084 2400 2429 2043 1804 1727 1812 1942 2155 2203 1929 1981
40 102 65 99 77 106 72 83 53 74 27 0 0 56 107 247 418 604 494 490 548 1009 1213 1280 1544 1610 1631 1439 1749 1962 1999 1871 2271 2327 2327 2432 2186 2307 2331 2689 2537 1964 1876 1877 1904 1901 1898 1937 1879
7 124 46 71 113 114 79 29 36 25 1 7 27 10 76 259 382 290 451 723 639 1032 1207 1261 1199 1461 1658 1699 1781 1763 1905 2010 2171 2385 2480 2483 2530 2216 1788 2530 2102 1880 1886 1826 1659 1600 1546 1798 2111
109 42 102 101 142 110 89 96 30 0 7 35 41 128 182 302 200 82 368 517 536 855 1012 1322 1146 1378 1509 1652 1875 2105 2096 2163 2571 2488 2473 2384 2516 2353 2034 2289 2110 1985 1827 1727 1673 1815 1801 1324 1041
99 23 122 107 145 72 64 41 0 13 15 20 68 174 274 153 20 33 334 402 742 725 951 1260 1376 1528 1681 1974 2027 1699 1856 1748 2093 2192 2209 2097 2078 2322 2335 2258 1976 1982 1670 1338 1369 1265 1204 1396 1685
1 1 91 130 198 103 66 8 7 59 82 0 55 131 102 46 0 41 279 391 789 846 846 1229 1274 1564 1857 1820 1396 1438 1448 1422 1296 1631 1900 1819 1743 2035 1865 1736 2102 2065 1609 1904 1898 1744 1825 1302 1435
25 5 14 142 269 87 91 16 11 18 3 32 91 129 118 136 172 182 294 347 628 760 827 1130 1297 1581 1669 1528 1375 1370 1474 1284 1253 1431 1525 1539 1574 1743 1616 2067 1745 1726 1858 1643 1859 1889 1489 1035 905
21 103 471 336 291 139 71 38 43 21 37 117 147 168 252 320 340 313 257 275 466 600 733 933 1086 1330 1362 1273 1502 1496 1683 1476 1350 1408 1475 1584 1306 1565 1781 1922 1761 1966 1785 1460 1767 1891 1852 1449 1181
248 443 599 345 334 207 37 45 53 50 106 188 217 271 293 346 318 261 258 281 468 620 684 779 885 850 1019 1324 1315 1385 1585 1400 1329 1343 1525 1441 1585 1657 1606 1666 1786 1933 1854 1993 1785 1527 1877 1505 1021
408 407 612 553 353 246 97 7 3 88 126 151 211 256 286 363 367 356 339 407 585 664 842 779 634 500 805 1128 1132 1252 1527 1557 1540 1625 1157 1218 1600 1818 1732 1787 1843 2044 1899 1864 1886 2012 1873 1603 1653
185 254 275 703 393 209 153 226 138 127 114 145 138 222 270 371 415 429 355 493 687 853 905 904 851 393 541 713 992 1152 1462 1492 1661 1803 1676 1758 1658 1693 2159 1887 1993 2199 2116 1830 1886 2261 2324 1966 1502
135 65 44 189 483 332 198 219 255 208 102 140 179 213 289 346 410 444 399 495 728 878 993 998 819 287 145 630 689 831 1242 1260 1404 1940 1755 1926 1682 1958 2053 1838 2183 1889 1911 1884 2527 2739 2119 1789 1540
9 0 1 343 452 426 275 273 305 305 153 157 165 98 298 269 368 434 411 535 772 846 925 957 888 481 150 484 553 742 1143 1314 1480 1747 1839 2102 2004 2056 2286 1881 2073 1938 2038 2468 2646 2431 2468 2102 2179
7 0 387 485 470 401 323 265 273 303 223 183 115 71 164 219 269 453 498 621 782 909 925 877 825 586 334 367 478 547 1088 1068 1338 1662 1817 1956 2002 1918 2086 2007 1930 2086 2021 2513 2894 3090 2401 2409 2302
12 4 271 348 501 399 367 419 320 268 195 101 87 102 103 172 260 446 542 722 770 908 889 871 797 382 375 613 565 885 1088 1345 1286 1500 1738 1819 1960 1787 1853 1993 1807 2310 2253 1862 2699 2914 3169 2523 2371
19 1 10 513 256 91 220 97 277 263 254 107 110 114 80 174 240 331 473 709 749 818 774 761 745 395 737 1053 680 1045 875 1126 1743 1877 1810 2019 1947 1981 1592 1833 1975 2505 2093 2296 2757 2655 3010 2968 2583
11 0 0 54 177 88 221 63 55 155 319 195 101 123 114 97 98 330 417 563 629 712 695 658 783 873 820 1150 1047 1120 1563 1817 1167 1670 1719 2091 2225 2062 1741 1975 2128 2506 2180 2276 2838 2603 3147 2762 2400
47 4 69 149 122 0 24 36 63 231 350 300 228 151 175 121 115 190 290 416 520 590 613 626 818 989 984 1084 1245 1537 1485 1846 2042 1570 1444 2035 1758 1865 2011 2127 2175 2316 2092 2253 2679 2516 2743 2726 2700
207 47 154 152 82 4 17 39 49 99 87 340 310 169 185 151 183 183 267 363 419 429 543 594 905 1040 1054 1195 1302 1170 1265 1409 1437 1904 2374 2126 1598 1896 1966 2261 2249 2234 2232 2007 2706 2666 2610 2600 2310
19 0 0 0 26 5 100 93 85 120 84 111 327 250 138 142 231 261 221 338 359 305 546 654 898 1126 1089 1160 1435 1274 1249 1085 1324 1598 1321 1477 1687 2845 2065 2073 2292 2128 2181 2089 2473 2443 2148 2632 2311
0 0 0 25 9 68 147 146 266 153 197 179 310 190 99 223 260 217 263 269 361 331 507 691 877 1022 1126 1164 1759 1627 1116 892 1066 1350 1618 1624 1857 2141 1903 2040 2062 2043 2036 2064 2289 2212 2511 2487 2395
0 0 0 10 60 1 145 222 243 204 283 355 311 246 115 227 319 306 338 471 468 386 571 728 931 1040 1160 1323 1626 1772 1139 862 697 905 1435 1657 1673 1854 2007 1898 2000 2172 2222 2242 2279 2125 2378 2408 2027
0 0 0 5 0 6 71 227 426 405 279 452 326 217 213 236 310 420 299 529 659 608 467 950 1034 1025 1053 1223 1543 1626 1206 931 1047 994 1156 1391 1650 1775 1774 1909 2039 2167 2275 2243 2373 2406 2260 2271 2295
0 0 0 20 0 4 83 41 198 318 287 283 298 320 309 255 357 420 356 410 392 504 643 1025 1254 1153 1143 1055 1384 1214 1137 1310 1386 1183 802 970 1260 1473 1651 1799 1673 1704 1984 1993 2083 1960 1602 2193 2116

GFSSGP_con_mucape_120.txt.gz
CAPE
34 12 25 283 1067 576 177 40 0 0 0 0 0 2 493 747 436 328 377 590 652 909 1187 1327 2189 2117 1972 1983 1859 2009 2380 2645 2550 2589 2631 2310 2130 2040 2117 2004 2050 2226 2099 1877 1866 1943 1806 1748 1591
146 86 644 1198 874 133 145 5 0 0 0 0 26 260 508 521 230 319 663 609 730 962 1046 1396 1983 2055 1844 1888 1884 2127 2585 2509 2409 2480 2549 2376 2311 1914 2074 2232 2107 2155 2459 1754 1835 1728 1622 2010 1389
31 100 696 1046 272 68 74 0 0 0 0 164 403 619 689 233 240 484 626 761 889 1067 1271 1624 2071 2116 2083 2200 2218 2238 2546 2410 2463 2354 2443 2357 2294 2481 2230 2226 2243 2140 1981 1834 1745 1891 1862 1813 1635
10 102 771 854 295 243 37 0 0 0 319 505 539 629 309 189 464 637 741 770 780 892 1292 1825 1968 2064 2164 2251 2255 2206 2382 2476 2454 2181 2161 2313 2333 2196 2297 2202 1935 1706 1768 1703 2028 1798 1891 1771 1563
148 280 534 554 221 103 18 8 2 192 505 534 525 505 198 568 593 695 755 566 502 794 1076 1299 1444 1434 1510 1589 2040 2225 2245 2404 2521 2147 1932 2131 2251 2323 2354 2051 2077 1872 1908 2099 1995 1977 1980 2240 2088
635 598 528 307 175 80 16 2 2 45 459 321 253 209 579 623 612 688 550 461 565 449 1281 934 1781 2013 1652 1454 1480 2015 2216 2301 2356 2208 2082 2175 2259 2491 2428 2160 2036 1890 1986 2163 1953 1710 1851 1926 1723
831 681 487 352 286 337 137 8 48 269 259 272 59 176 478 532 594 531 484 502 331 944 1388 1223 1617 1934 1911 1982 1958 1803 2182 2292 2534 2317 2249 2157 2142 2169 2590 2126 1843 1897 1914 2096 2075 2068 2002 2035 2129
137 583 541 411 236 403 263 255 201 262 224 81 5 87 397 430 472 406 383 335 385 904 1067 1342 1211 1678 1106 1465 1880 1869 2011 2215 2307 2461 2499 2393 2382 2298 2230 2525 2306 1930 1852 1809 1864 1905 1869 1941 1980
118 422 237 386 307 390 172 64 152 128 150 36 77 3 282 476 349 274 326 358 521 678 922 985 1209 1559 1255 1673 1999 1988 2103 2332 2508 2498 2387 2265 2243 1515 1784 2253 1988 1947 1754 1528 1510 1464 1541 1912 2067
431 384 59 191 286 220 200 142 129 100 149 128 17 115 246 242 218 189 308 300 481 843 1032 940 1135 1043 1166 1286 1867 1896 1889 1702 2301 2041 2116 2259 1765 2112 1668 2057 2011 1895 1676 1657 1672 1734 1626 1328 1018
205 218 15 8 163 246 51 52 108 103 71 115 100 148 141 163 117 154 284 281 504 591 636 702 1488 1545 1658 1948 1702 1589 1599 1736 2242 2032 1904 1372 1250 1377 1370 1646 1674 1474 1660 1530 1483 1478 1230 1374 1415
169 95 160 66 239 271 181 59 112 145 121 0 11 71 104 88 46 128 219 375 583 596 663 684 1166 1732 1349 1133 1115 920 1151 1263 1287 1746 1517 1597 1581 1973 1766 1762 1770 1806 1831 1959 1830 1380 1574 1019 1532
84 189 193 299 177 170 45 7 65 76 0 0 1 49 80 30 23 143 188 363 603 574 706 754 1075 1460 1463 1485 986 801 744 1010 1193 1333 1315 1584 1699 1996 1913 2178 1747 1937 1660 1693 1830 1684 1478 921 1025
23 11 158 391 147 246 45 41 1 20 12 0 37 61 73 81 62 154 213 340 554 507 644 732 876 1043 1346 1458 1351 1151 871 1189 1132 889 1763 2117 1809 1836 2061 1876 1708 1878 1851 2051 1855 2255 1662 960 832
30 233 457 571 325 198 63 1 1 44 36 78 75 105 126 203 247 221 241 351 514 483 590 674 799 993 1417 1582 1272 933 956 906 997 1194 1966 1897 1683 2219 1899 1868 1613 1860 2149 1963 2034 1838 1769 1051 890
125 234 448 648 411 108 39 78 69 158 94 101 115 215 289 345 323 324 301 400 559 386 576 597 524 938 1348 1448 1257 1001 1121 997 956 1308 1408 1749 2008 2201 2034 1689 1588 2160 1912 1704 1729 1884 1426 1226 1223
246 268 438 685 574 214 32 58 42 182 140 247 296 307 343 430 394 413 432 522 626 529 708 601 655 702 1141 1380 1296 1385 1803 1056 1245 1390 1317 1814 1877 2229 1943 1541 1958 2317 1791 1732 1774 1808 1885 1479 1246
213 260 408 552 811 555 377 272 90 192 187 186 246 320 407 454 451 509 469 581 733 603 897 1081 1094 1008 1255 1304 1523 1391 1291 1163 1227 1349 1358 1888 1852 2294 1949 1735 2120 2040 1522 1781 2448 2734 2206 1865 1812
197 124 210 514 673 551 315 333 197 191 147 84 151 256 380 390 510 574 552 658 771 906 1021 1008 1123 1157 916 1121 915 966 1081 1269 1325 1323 1844 2107 1920 2346 2447 1477 1919 1841 1820 2524 2697 2027 2299 1779 1967
0 6 270 465 748 713 350 331 667 547 101 1 96 112 339 352 433 637 733 697 906 1025 1155 1285 1361 1554 700 867 1042 851 984 1046 1176 1291 1839 1681 1894 2161 2085 2027 1639 2258 1929 2499 3010 3024 2056 1881 2619
9 9 311 283 580 570 583 521 612 606 553 93 86 79 134 335 465 729 850 781 894 1130 1149 1296 1465 1485 1416 856 1071 1345 1691 1671 1544 1509 1679 1714 1639 1802 1994 2100 2210 2150 2421 1699 2698 2836 3422 2026 2573
35 7 148 489 334 270 553 414 605 688 651 247 199 115 52 167 439 535 828 880 905 1054 1118 1141 1501 1535 1183 1155 1020 1065 831 1330 1837 2108 1358 1491 1596 1628 1771 1975 2045 2233 1900 2305 2392 2698 3326 3878 2276
6 0 0 2 5 23 240 137 464 706 613 571 490 104 113 82 258 453 522 817 945 1039 1005 834 1396 1335 929 1570 1403 1125 1154 816 930 1072 1569 1600 1963 1929 1564 1932 2125 2220 2030 2387 2728 2971 3683 2789 2716
0 0 0 0 3 1 24 82 490 537 572 533 450 429 241 99 203 363 544 713 957 981 1001 783 1185 1651 1501 1673 1397 1610 1340 1061 1095 1270 1333 1388 1330 1618 1987 1884 2288 2368 2277 2182 2459 2779 3267 3331 3405
0 1 61 32 36 10 60 52 108 374 394 434 770 548 392 171 89 238 465 773 950 960 1077 844 1152 1576 1665 1642 1408 1235 1321 1455 1520 1542 1382 1247 1204 1150 2004 2199 2329 2341 2685 2324 2701 2895 2592 2825 2896
0 37 71 93 91 86 184 50 145 309 421 548 778 670 614 453 185 153 484 815 1010 896 1076 979 1274 1437 1596 1551 1802 1568 1257 1436 2339 1554 1003 950 925 1336 1679 2033 1988 2126 2309 2222 2814 2332 2073 2423 2355
0 0 6 60 84 127 309 142 714 534 472 468 573 788 579 609 287 181 245 652 820 884 1047 1130 1233 1659 1657 1411 1871 1929 1575 1405 2351 1754 1618 1313 1243 905 1341 1486 1518 1768 1802 2210 2484 1812 2454 2322 2361
0 0 0 1 118 90 174 163 196 831 591 678 725 869 829 614 313 305 399 600 839 803 881 1130 1306 1674 1632 1335 1490 1450 1470 1732 1878 2065 1921 1887 1561 1198 1501 1436 1577 1703 1908 1854 2377 1819 2392 2747 2197
0 0 0 4 7 93 120 174 777 776 718 906 826 907 938 823 703 466 705 789 829 817 809 1040 1307 1512 1478 1535 1230 1463 1257 1449 1784 1348 1658 2189 1887 1757 1781 1751 1547 1561 1705 1994 2424 1882 1927 2396 2344
0 0 0 8 36 46 90 339 788 911 739 968 931 971 911 821 804 778 613 824 1115 1059 840 1127 1409 1364 1390 1477 1570 1200 1273 1131 1192 1570 1580 1932 2426 2519 1986 1944 1727 1692 1672 1890 1964 1625 1125 1836 1808